<?xml version='1.0' encoding='UTF-8'?>
<gpx version="1.1" creator="https://www.komoot.de" xmlns="http://www.topografix.com/GPX/1/1" xmlns:xsi="http://www.w3.org/2001/XMLSchema-instance" xsi:schemaLocation="http://www.topografix.com/GPX/1/1 http://www.topografix.com/GPX/1/1/gpx.xsd">
  <metadata>
    <name>TL2025-2_Ursberg-Dürren</name>
    <author>
      <link href="https://www.komoot.de">
        <text>komoot</text>
        <type>text/html</type>
      </link>
    </author>
  </metadata>
  <trk>
    <name>TL2025-2_Ursberg-Dürren</name>
    <trkseg>
      <trkpt lat="48.265602" lon="10.445167">
        <ele>510.470863</ele>
        <time>2025-05-18T15:30:27.035Z</time>
      </trkpt>
      <trkpt lat="48.265602" lon="10.445168">
        <ele>510.470863</ele>
        <time>2025-05-18T15:30:27.068Z</time>
      </trkpt>
      <trkpt lat="48.265598" lon="10.445168">
        <ele>510.470863</ele>
        <time>2025-05-18T15:30:27.166Z</time>
      </trkpt>
      <trkpt lat="48.265598" lon="10.445165">
        <ele>510.470863</ele>
        <time>2025-05-18T15:30:27.232Z</time>
      </trkpt>
      <trkpt lat="48.265598" lon="10.445170">
        <ele>510.470863</ele>
        <time>2025-05-18T15:30:27.330Z</time>
      </trkpt>
      <trkpt lat="48.265598" lon="10.445175">
        <ele>510.470863</ele>
        <time>2025-05-18T15:30:27.413Z</time>
      </trkpt>
      <trkpt lat="48.265598" lon="10.445173">
        <ele>510.470863</ele>
        <time>2025-05-18T15:30:27.444Z</time>
      </trkpt>
      <trkpt lat="48.265598" lon="10.445177">
        <ele>510.470863</ele>
        <time>2025-05-18T15:30:27.509Z</time>
      </trkpt>
      <trkpt lat="48.265602" lon="10.445182">
        <ele>510.470863</ele>
        <time>2025-05-18T15:30:27.637Z</time>
      </trkpt>
      <trkpt lat="48.265614" lon="10.445187">
        <ele>510.470863</ele>
        <time>2025-05-18T15:30:27.945Z</time>
      </trkpt>
      <trkpt lat="48.265617" lon="10.445189">
        <ele>510.470863</ele>
        <time>2025-05-18T15:30:28.047Z</time>
      </trkpt>
      <trkpt lat="48.265617" lon="10.445193">
        <ele>510.470863</ele>
        <time>2025-05-18T15:30:28.129Z</time>
      </trkpt>
      <trkpt lat="48.265617" lon="10.445197">
        <ele>510.470863</ele>
        <time>2025-05-18T15:30:28.195Z</time>
      </trkpt>
      <trkpt lat="48.265617" lon="10.445195">
        <ele>510.470863</ele>
        <time>2025-05-18T15:30:28.228Z</time>
      </trkpt>
      <trkpt lat="48.265617" lon="10.445193">
        <ele>510.470863</ele>
        <time>2025-05-18T15:30:28.262Z</time>
      </trkpt>
      <trkpt lat="48.265621" lon="10.445189">
        <ele>510.470863</ele>
        <time>2025-05-18T15:30:28.390Z</time>
      </trkpt>
      <trkpt lat="48.265621" lon="10.445187">
        <ele>510.470863</ele>
        <time>2025-05-18T15:30:28.423Z</time>
      </trkpt>
      <trkpt lat="48.265621" lon="10.445184">
        <ele>510.470863</ele>
        <time>2025-05-18T15:30:28.472Z</time>
      </trkpt>
      <trkpt lat="48.265625" lon="10.445180">
        <ele>510.470863</ele>
        <time>2025-05-18T15:30:28.590Z</time>
      </trkpt>
      <trkpt lat="48.265625" lon="10.445178">
        <ele>510.470863</ele>
        <time>2025-05-18T15:30:28.623Z</time>
      </trkpt>
      <trkpt lat="48.265625" lon="10.445180">
        <ele>510.470863</ele>
        <time>2025-05-18T15:30:28.657Z</time>
      </trkpt>
      <trkpt lat="48.265625" lon="10.445182">
        <ele>510.470863</ele>
        <time>2025-05-18T15:30:28.690Z</time>
      </trkpt>
      <trkpt lat="48.265625" lon="10.445184">
        <ele>510.470863</ele>
        <time>2025-05-18T15:30:28.723Z</time>
      </trkpt>
      <trkpt lat="48.265629" lon="10.445185">
        <ele>510.470863</ele>
        <time>2025-05-18T15:30:28.824Z</time>
      </trkpt>
      <trkpt lat="48.265629" lon="10.445184">
        <ele>510.470863</ele>
        <time>2025-05-18T15:30:28.840Z</time>
      </trkpt>
      <trkpt lat="48.265629" lon="10.445180">
        <ele>510.470863</ele>
        <time>2025-05-18T15:30:28.906Z</time>
      </trkpt>
      <trkpt lat="48.265633" lon="10.445177">
        <ele>510.470863</ele>
        <time>2025-05-18T15:30:29.015Z</time>
      </trkpt>
      <trkpt lat="48.265629" lon="10.445178">
        <ele>510.470863</ele>
        <time>2025-05-18T15:30:29.114Z</time>
      </trkpt>
      <trkpt lat="48.265633" lon="10.445178">
        <ele>510.470863</ele>
        <time>2025-05-18T15:30:29.212Z</time>
      </trkpt>
      <trkpt lat="48.265633" lon="10.445177">
        <ele>510.470863</ele>
        <time>2025-05-18T15:30:29.228Z</time>
      </trkpt>
      <trkpt lat="48.265633" lon="10.445173">
        <ele>510.470863</ele>
        <time>2025-05-18T15:30:29.293Z</time>
      </trkpt>
      <trkpt lat="48.265636" lon="10.445173">
        <ele>510.470863</ele>
        <time>2025-05-18T15:30:29.392Z</time>
      </trkpt>
      <trkpt lat="48.265636" lon="10.445175">
        <ele>510.470863</ele>
        <time>2025-05-18T15:30:29.424Z</time>
      </trkpt>
      <trkpt lat="48.265636" lon="10.445170">
        <ele>510.470863</ele>
        <time>2025-05-18T15:30:29.506Z</time>
      </trkpt>
      <trkpt lat="48.265640" lon="10.445173">
        <ele>510.470863</ele>
        <time>2025-05-18T15:30:29.616Z</time>
      </trkpt>
      <trkpt lat="48.265640" lon="10.445171">
        <ele>510.470863</ele>
        <time>2025-05-18T15:30:29.649Z</time>
      </trkpt>
      <trkpt lat="48.265640" lon="10.445170">
        <ele>510.470863</ele>
        <time>2025-05-18T15:30:29.667Z</time>
      </trkpt>
      <trkpt lat="48.265640" lon="10.445171">
        <ele>510.470863</ele>
        <time>2025-05-18T15:30:29.684Z</time>
      </trkpt>
      <trkpt lat="48.265640" lon="10.445170">
        <ele>510.470863</ele>
        <time>2025-05-18T15:30:29.701Z</time>
      </trkpt>
      <trkpt lat="48.265640" lon="10.445171">
        <ele>510.470863</ele>
        <time>2025-05-18T15:30:29.719Z</time>
      </trkpt>
      <trkpt lat="48.265640" lon="10.445173">
        <ele>510.470863</ele>
        <time>2025-05-18T15:30:29.752Z</time>
      </trkpt>
      <trkpt lat="48.265644" lon="10.445175">
        <ele>510.470863</ele>
        <time>2025-05-18T15:30:29.856Z</time>
      </trkpt>
      <trkpt lat="48.265644" lon="10.445173">
        <ele>510.470863</ele>
        <time>2025-05-18T15:30:29.888Z</time>
      </trkpt>
      <trkpt lat="48.265655" lon="10.445175">
        <ele>510.470863</ele>
        <time>2025-05-18T15:30:30.185Z</time>
      </trkpt>
      <trkpt lat="48.265659" lon="10.445167">
        <ele>510.470863</ele>
        <time>2025-05-18T15:30:30.362Z</time>
      </trkpt>
      <trkpt lat="48.265663" lon="10.445168">
        <ele>510.470863</ele>
        <time>2025-05-18T15:30:30.465Z</time>
      </trkpt>
      <trkpt lat="48.265663" lon="10.445165">
        <ele>510.470863</ele>
        <time>2025-05-18T15:30:30.532Z</time>
      </trkpt>
      <trkpt lat="48.265663" lon="10.445157">
        <ele>510.470863</ele>
        <time>2025-05-18T15:30:30.663Z</time>
      </trkpt>
      <trkpt lat="48.265663" lon="10.445155">
        <ele>510.470863</ele>
        <time>2025-05-18T15:30:30.696Z</time>
      </trkpt>
      <trkpt lat="48.265675" lon="10.445165">
        <ele>510.470863</ele>
        <time>2025-05-18T15:30:31.036Z</time>
      </trkpt>
      <trkpt lat="48.265678" lon="10.445167">
        <ele>510.470863</ele>
        <time>2025-05-18T15:30:31.139Z</time>
      </trkpt>
      <trkpt lat="48.265690" lon="10.445167">
        <ele>510.470863</ele>
        <time>2025-05-18T15:30:31.436Z</time>
      </trkpt>
      <trkpt lat="48.265701" lon="10.445165">
        <ele>510.470863</ele>
        <time>2025-05-18T15:30:31.735Z</time>
      </trkpt>
      <trkpt lat="48.265709" lon="10.445160">
        <ele>510.470863</ele>
        <time>2025-05-18T15:30:31.948Z</time>
      </trkpt>
      <trkpt lat="48.265720" lon="10.445157">
        <ele>510.470863</ele>
        <time>2025-05-18T15:30:32.247Z</time>
      </trkpt>
      <trkpt lat="48.265736" lon="10.445150">
        <ele>510.470863</ele>
        <time>2025-05-18T15:30:32.658Z</time>
      </trkpt>
      <trkpt lat="48.265755" lon="10.445148">
        <ele>510.470863</ele>
        <time>2025-05-18T15:30:33.154Z</time>
      </trkpt>
      <trkpt lat="48.265766" lon="10.445147">
        <ele>510.470863</ele>
        <time>2025-05-18T15:30:33.450Z</time>
      </trkpt>
      <trkpt lat="48.265781" lon="10.445147">
        <ele>510.470863</ele>
        <time>2025-05-18T15:30:33.845Z</time>
      </trkpt>
      <trkpt lat="48.265797" lon="10.445144">
        <ele>510.470863</ele>
        <time>2025-05-18T15:30:34.242Z</time>
      </trkpt>
      <trkpt lat="48.265812" lon="10.445137">
        <ele>510.470863</ele>
        <time>2025-05-18T15:30:34.653Z</time>
      </trkpt>
      <trkpt lat="48.265827" lon="10.445128">
        <ele>510.470863</ele>
        <time>2025-05-18T15:30:35.074Z</time>
      </trkpt>
      <trkpt lat="48.265839" lon="10.445117">
        <ele>510.470863</ele>
        <time>2025-05-18T15:30:35.431Z</time>
      </trkpt>
      <trkpt lat="48.265850" lon="10.445095">
        <ele>510.470863</ele>
        <time>2025-05-18T15:30:35.909Z</time>
      </trkpt>
      <trkpt lat="48.265854" lon="10.445080">
        <ele>510.470863</ele>
        <time>2025-05-18T15:30:36.190Z</time>
      </trkpt>
      <trkpt lat="48.265850" lon="10.445057">
        <ele>510.470863</ele>
        <time>2025-05-18T15:30:36.598Z</time>
      </trkpt>
      <trkpt lat="48.265842" lon="10.445032">
        <ele>510.470863</ele>
        <time>2025-05-18T15:30:37.067Z</time>
      </trkpt>
      <trkpt lat="48.265827" lon="10.445008">
        <ele>510.470863</ele>
        <time>2025-05-18T15:30:37.637Z</time>
      </trkpt>
      <trkpt lat="48.265819" lon="10.444985">
        <ele>510.470863</ele>
        <time>2025-05-18T15:30:38.078Z</time>
      </trkpt>
      <trkpt lat="48.265808" lon="10.444960">
        <ele>510.470863</ele>
        <time>2025-05-18T15:30:38.610Z</time>
      </trkpt>
      <trkpt lat="48.265793" lon="10.444932">
        <ele>510.470863</ele>
        <time>2025-05-18T15:30:39.228Z</time>
      </trkpt>
      <trkpt lat="48.265778" lon="10.444901">
        <ele>510.470863</ele>
        <time>2025-05-18T15:30:39.885Z</time>
      </trkpt>
      <trkpt lat="48.265766" lon="10.444877">
        <ele>510.470863</ele>
        <time>2025-05-18T15:30:40.405Z</time>
      </trkpt>
      <trkpt lat="48.265755" lon="10.444847">
        <ele>510.470863</ele>
        <time>2025-05-18T15:30:40.994Z</time>
      </trkpt>
      <trkpt lat="48.265743" lon="10.444820">
        <ele>510.470863</ele>
        <time>2025-05-18T15:30:41.540Z</time>
      </trkpt>
      <trkpt lat="48.265732" lon="10.444790">
        <ele>510.470863</ele>
        <time>2025-05-18T15:30:42.143Z</time>
      </trkpt>
      <trkpt lat="48.265717" lon="10.444758">
        <ele>510.470863</ele>
        <time>2025-05-18T15:30:42.813Z</time>
      </trkpt>
      <trkpt lat="48.265705" lon="10.444730">
        <ele>510.470863</ele>
        <time>2025-05-18T15:30:43.388Z</time>
      </trkpt>
      <trkpt lat="48.265690" lon="10.444700">
        <ele>510.470863</ele>
        <time>2025-05-18T15:30:44.032Z</time>
      </trkpt>
      <trkpt lat="48.265675" lon="10.444670">
        <ele>510.470863</ele>
        <time>2025-05-18T15:30:44.689Z</time>
      </trkpt>
      <trkpt lat="48.265614" lon="10.444729">
        <ele>510.470863</ele>
        <time>2025-05-18T15:30:46.564Z</time>
      </trkpt>
      <trkpt lat="48.265471" lon="10.444397">
        <ele>510.399703</ele>
        <time>2025-05-18T15:30:52.482Z</time>
      </trkpt>
      <trkpt lat="48.265761" lon="10.443995">
        <ele>510.163061</ele>
        <time>2025-05-18T15:31:01.129Z</time>
      </trkpt>
      <trkpt lat="48.265831" lon="10.443897">
        <ele>510.105678</ele>
        <time>2025-05-18T15:31:03.213Z</time>
      </trkpt>
      <trkpt lat="48.265922" lon="10.443772">
        <ele>510.031731</ele>
        <time>2025-05-18T15:31:05.919Z</time>
      </trkpt>
      <trkpt lat="48.266044" lon="10.443604">
        <ele>509.932480</ele>
        <time>2025-05-18T15:31:09.302Z</time>
      </trkpt>
      <trkpt lat="48.266254" lon="10.443311">
        <ele>509.760605</ele>
        <time>2025-05-18T15:31:14.752Z</time>
      </trkpt>
      <trkpt lat="48.266551" lon="10.442931">
        <ele>509.526650</ele>
        <time>2025-05-18T15:31:21.538Z</time>
      </trkpt>
      <trkpt lat="48.266685" lon="10.442754">
        <ele>509.419645</ele>
        <time>2025-05-18T15:31:24.672Z</time>
      </trkpt>
      <trkpt lat="48.266785" lon="10.442634">
        <ele>509.282709</ele>
        <time>2025-05-18T15:31:26.952Z</time>
      </trkpt>
      <trkpt lat="48.266946" lon="10.442538">
        <ele>509.052100</ele>
        <time>2025-05-18T15:31:30.048Z</time>
      </trkpt>
      <trkpt lat="48.267088" lon="10.442452">
        <ele>508.848269</ele>
        <time>2025-05-18T15:31:32.814Z</time>
      </trkpt>
      <trkpt lat="48.267260" lon="10.442351">
        <ele>508.602411</ele>
        <time>2025-05-18T15:31:36.167Z</time>
      </trkpt>
      <trkpt lat="48.267434" lon="10.442249">
        <ele>508.353751</ele>
        <time>2025-05-18T15:31:39.572Z</time>
      </trkpt>
      <trkpt lat="48.267603" lon="10.442144">
        <ele>508.110276</ele>
        <time>2025-05-18T15:31:42.917Z</time>
      </trkpt>
      <trkpt lat="48.268179" lon="10.441796">
        <ele>507.283749</ele>
        <time>2025-05-18T15:31:54.286Z</time>
      </trkpt>
      <trkpt lat="48.268477" lon="10.441657">
        <ele>507.232669</ele>
        <time>2025-05-18T15:32:00.633Z</time>
      </trkpt>
      <trkpt lat="48.268961" lon="10.441456">
        <ele>508.447499</ele>
        <time>2025-05-18T15:32:11.458Z</time>
      </trkpt>
      <trkpt lat="48.268924" lon="10.441232">
        <ele>508.819154</ele>
        <time>2025-05-18T15:32:14.903Z</time>
      </trkpt>
      <trkpt lat="48.268604" lon="10.439995">
        <ele>510.956292</ele>
        <time>2025-05-18T15:32:36.437Z</time>
      </trkpt>
      <trkpt lat="48.268227" lon="10.438695">
        <ele>516.381276</ele>
        <time>2025-05-18T15:33:04.364Z</time>
      </trkpt>
      <trkpt lat="48.268062" lon="10.438112">
        <ele>519.096451</ele>
        <time>2025-05-18T15:33:17.543Z</time>
      </trkpt>
      <trkpt lat="48.267833" lon="10.437317">
        <ele>522.809129</ele>
        <time>2025-05-18T15:33:34.815Z</time>
      </trkpt>
      <trkpt lat="48.267437" lon="10.435996">
        <ele>527.081080</ele>
        <time>2025-05-18T15:34:00.441Z</time>
      </trkpt>
      <trkpt lat="48.266557" lon="10.433567">
        <ele>534.953482</ele>
        <time>2025-05-18T15:34:45.703Z</time>
      </trkpt>
      <trkpt lat="48.266067" lon="10.432213">
        <ele>539.573453</ele>
        <time>2025-05-18T15:35:13.262Z</time>
      </trkpt>
      <trkpt lat="48.265888" lon="10.431628">
        <ele>542.028203</ele>
        <time>2025-05-18T15:35:25.428Z</time>
      </trkpt>
      <trkpt lat="48.265760" lon="10.431108">
        <ele>544.141997</ele>
        <time>2025-05-18T15:35:35.871Z</time>
      </trkpt>
      <trkpt lat="48.265169" lon="10.428038">
        <ele>554.869718</ele>
        <time>2025-05-18T15:36:35.260Z</time>
      </trkpt>
      <trkpt lat="48.264492" lon="10.425069">
        <ele>558.462269</ele>
        <time>2025-05-18T15:37:23.761Z</time>
      </trkpt>
      <trkpt lat="48.264480" lon="10.425013">
        <ele>558.497556</ele>
        <time>2025-05-18T15:37:24.447Z</time>
      </trkpt>
      <trkpt lat="48.264303" lon="10.424250">
        <ele>556.207115</ele>
        <time>2025-05-18T15:37:33.029Z</time>
      </trkpt>
      <trkpt lat="48.264242" lon="10.423822">
        <ele>554.499243</ele>
        <time>2025-05-18T15:37:37.363Z</time>
      </trkpt>
      <trkpt lat="48.264230" lon="10.423519">
        <ele>553.314867</ele>
        <time>2025-05-18T15:37:40.263Z</time>
      </trkpt>
      <trkpt lat="48.264377" lon="10.421358">
        <ele>544.152346</ele>
        <time>2025-05-18T15:38:00.589Z</time>
      </trkpt>
      <trkpt lat="48.264523" lon="10.420570">
        <ele>540.282583</ele>
        <time>2025-05-18T15:38:08.346Z</time>
      </trkpt>
      <trkpt lat="48.264750" lon="10.419581">
        <ele>535.333289</ele>
        <time>2025-05-18T15:38:18.427Z</time>
      </trkpt>
      <trkpt lat="48.264886" lon="10.418988">
        <ele>532.583114</ele>
        <time>2025-05-18T15:38:24.526Z</time>
      </trkpt>
      <trkpt lat="48.264945" lon="10.418560">
        <ele>530.669003</ele>
        <time>2025-05-18T15:38:28.782Z</time>
      </trkpt>
      <trkpt lat="48.264981" lon="10.418126">
        <ele>528.753687</ele>
        <time>2025-05-18T15:38:32.997Z</time>
      </trkpt>
      <trkpt lat="48.264979" lon="10.417812">
        <ele>527.378522</ele>
        <time>2025-05-18T15:38:36.009Z</time>
      </trkpt>
      <trkpt lat="48.264920" lon="10.416395">
        <ele>521.508101</ele>
        <time>2025-05-18T15:38:49.510Z</time>
      </trkpt>
      <trkpt lat="48.264835" lon="10.414692">
        <ele>515.161343</ele>
        <time>2025-05-18T15:39:06.194Z</time>
      </trkpt>
      <trkpt lat="48.264843" lon="10.414361">
        <ele>513.930410</ele>
        <time>2025-05-18T15:39:09.654Z</time>
      </trkpt>
      <trkpt lat="48.264904" lon="10.413752">
        <ele>512.984635</ele>
        <time>2025-05-18T15:39:16.373Z</time>
      </trkpt>
      <trkpt lat="48.264958" lon="10.413450">
        <ele>512.703602</ele>
        <time>2025-05-18T15:39:19.955Z</time>
      </trkpt>
      <trkpt lat="48.265184" lon="10.412685">
        <ele>511.951425</ele>
        <time>2025-05-18T15:39:30.440Z</time>
      </trkpt>
      <trkpt lat="48.265296" lon="10.412358">
        <ele>511.620929</ele>
        <time>2025-05-18T15:39:35.319Z</time>
      </trkpt>
      <trkpt lat="48.265351" lon="10.412208">
        <ele>511.467026</ele>
        <time>2025-05-18T15:39:37.638Z</time>
      </trkpt>
      <trkpt lat="48.265442" lon="10.411953">
        <ele>511.207002</ele>
        <time>2025-05-18T15:39:41.653Z</time>
      </trkpt>
      <trkpt lat="48.265785" lon="10.410937">
        <ele>512.624486</ele>
        <time>2025-05-18T15:39:58.847Z</time>
      </trkpt>
      <trkpt lat="48.265874" lon="10.410571">
        <ele>513.340906</ele>
        <time>2025-05-18T15:40:04.996Z</time>
      </trkpt>
      <trkpt lat="48.265971" lon="10.409795">
        <ele>514.792594</ele>
        <time>2025-05-18T15:40:18.042Z</time>
      </trkpt>
      <trkpt lat="48.265979" lon="10.409725">
        <ele>514.923178</ele>
        <time>2025-05-18T15:40:19.260Z</time>
      </trkpt>
      <trkpt lat="48.265982" lon="10.409105">
        <ele>516.087536</ele>
        <time>2025-05-18T15:40:30.140Z</time>
      </trkpt>
      <trkpt lat="48.265982" lon="10.409073">
        <ele>516.159356</ele>
        <time>2025-05-18T15:40:30.695Z</time>
      </trkpt>
      <trkpt lat="48.265954" lon="10.408689">
        <ele>517.026349</ele>
        <time>2025-05-18T15:40:37.599Z</time>
      </trkpt>
      <trkpt lat="48.265915" lon="10.408339">
        <ele>517.822808</ele>
        <time>2025-05-18T15:40:43.753Z</time>
      </trkpt>
      <trkpt lat="48.265865" lon="10.408109">
        <ele>518.365843</ele>
        <time>2025-05-18T15:40:47.915Z</time>
      </trkpt>
      <trkpt lat="48.265771" lon="10.407640">
        <ele>519.465132</ele>
        <time>2025-05-18T15:40:56.028Z</time>
      </trkpt>
      <trkpt lat="48.265737" lon="10.407473">
        <ele>519.857081</ele>
        <time>2025-05-18T15:40:58.862Z</time>
      </trkpt>
      <trkpt lat="48.265703" lon="10.407304">
        <ele>520.253326</ele>
        <time>2025-05-18T15:41:01.726Z</time>
      </trkpt>
      <trkpt lat="48.265687" lon="10.406817">
        <ele>521.347670</ele>
        <time>2025-05-18T15:41:09.381Z</time>
      </trkpt>
      <trkpt lat="48.265681" lon="10.406364">
        <ele>522.153479</ele>
        <time>2025-05-18T15:41:16.397Z</time>
      </trkpt>
      <trkpt lat="48.265675" lon="10.406175">
        <ele>522.320344</ele>
        <time>2025-05-18T15:41:19.272Z</time>
      </trkpt>
      <trkpt lat="48.265671" lon="10.406044">
        <ele>522.435993</ele>
        <time>2025-05-18T15:41:21.253Z</time>
      </trkpt>
      <trkpt lat="48.265640" lon="10.405671">
        <ele>522.767490</ele>
        <time>2025-05-18T15:41:26.914Z</time>
      </trkpt>
      <trkpt lat="48.265615" lon="10.405404">
        <ele>523.005271</ele>
        <time>2025-05-18T15:41:30.908Z</time>
      </trkpt>
      <trkpt lat="48.265598" lon="10.405218">
        <ele>523.170840</ele>
        <time>2025-05-18T15:41:33.685Z</time>
      </trkpt>
      <trkpt lat="48.265497" lon="10.404190">
        <ele>524.087241</ele>
        <time>2025-05-18T15:41:49.158Z</time>
      </trkpt>
      <trkpt lat="48.265419" lon="10.403427">
        <ele>525.138253</ele>
        <time>2025-05-18T15:42:01.068Z</time>
      </trkpt>
      <trkpt lat="48.265284" lon="10.402542">
        <ele>526.743804</ele>
        <time>2025-05-18T15:42:15.465Z</time>
      </trkpt>
      <trkpt lat="48.264901" lon="10.400914">
        <ele>529.893958</ele>
        <time>2025-05-18T15:42:43.624Z</time>
      </trkpt>
      <trkpt lat="48.264483" lon="10.399096">
        <ele>533.826543</ele>
        <time>2025-05-18T15:43:14.617Z</time>
      </trkpt>
      <trkpt lat="48.263903" lon="10.396548">
        <ele>540.487645</ele>
        <time>2025-05-18T15:43:58.684Z</time>
      </trkpt>
      <trkpt lat="48.263842" lon="10.396274">
        <ele>541.225757</ele>
        <time>2025-05-18T15:44:03.779Z</time>
      </trkpt>
      <trkpt lat="48.263297" lon="10.394179">
        <ele>549.407306</ele>
        <time>2025-05-18T15:44:46.495Z</time>
      </trkpt>
      <trkpt lat="48.262646" lon="10.392059">
        <ele>556.314955</ele>
        <time>2025-05-18T15:45:27.715Z</time>
      </trkpt>
      <trkpt lat="48.262370" lon="10.391230">
        <ele>558.814792</ele>
        <time>2025-05-18T15:45:42.526Z</time>
      </trkpt>
      <trkpt lat="48.262117" lon="10.390710">
        <ele>559.853081</ele>
        <time>2025-05-18T15:45:52.615Z</time>
      </trkpt>
      <trkpt lat="48.261647" lon="10.389947">
        <ele>561.451849</ele>
        <time>2025-05-18T15:46:08.967Z</time>
      </trkpt>
      <trkpt lat="48.259397" lon="10.386046">
        <ele>568.075534</ele>
        <time>2025-05-18T15:47:29.899Z</time>
      </trkpt>
      <trkpt lat="48.258861" lon="10.385132">
        <ele>568.914599</ele>
        <time>2025-05-18T15:47:46.811Z</time>
      </trkpt>
      <trkpt lat="48.257769" lon="10.383234">
        <ele>568.268603</ele>
        <time>2025-05-18T15:48:20.214Z</time>
      </trkpt>
      <trkpt lat="48.257201" lon="10.382245">
        <ele>568.311984</ele>
        <time>2025-05-18T15:48:38.615Z</time>
      </trkpt>
      <trkpt lat="48.256937" lon="10.381819">
        <ele>568.381798</ele>
        <time>2025-05-18T15:48:47.035Z</time>
      </trkpt>
      <trkpt lat="48.256898" lon="10.381873">
        <ele>568.391355</ele>
        <time>2025-05-18T15:48:48.865Z</time>
      </trkpt>
      <trkpt lat="48.255139" lon="10.378723">
        <ele>567.678520</ele>
        <time>2025-05-18T15:49:48.230Z</time>
      </trkpt>
      <trkpt lat="48.254981" lon="10.378499">
        <ele>566.757527</ele>
        <time>2025-05-18T15:49:52.037Z</time>
      </trkpt>
      <trkpt lat="48.254758" lon="10.378402">
        <ele>565.773412</ele>
        <time>2025-05-18T15:49:55.921Z</time>
      </trkpt>
      <trkpt lat="48.254533" lon="10.378203">
        <ele>564.666579</ele>
        <time>2025-05-18T15:50:00.059Z</time>
      </trkpt>
      <trkpt lat="48.254053" lon="10.377287">
        <ele>561.376671</ele>
        <time>2025-05-18T15:50:11.318Z</time>
      </trkpt>
      <trkpt lat="48.253890" lon="10.377063">
        <ele>559.422428</ele>
        <time>2025-05-18T15:50:14.396Z</time>
      </trkpt>
      <trkpt lat="48.253828" lon="10.376912">
        <ele>558.235152</ele>
        <time>2025-05-18T15:50:16.022Z</time>
      </trkpt>
      <trkpt lat="48.253763" lon="10.376576">
        <ele>555.893465</ele>
        <time>2025-05-18T15:50:19.206Z</time>
      </trkpt>
      <trkpt lat="48.253694" lon="10.376364">
        <ele>554.314203</ele>
        <time>2025-05-18T15:50:21.342Z</time>
      </trkpt>
      <trkpt lat="48.253175" lon="10.375558">
        <ele>546.810097</ele>
        <time>2025-05-18T15:50:31.378Z</time>
      </trkpt>
      <trkpt lat="48.252980" lon="10.375349">
        <ele>544.402143</ele>
        <time>2025-05-18T15:50:34.583Z</time>
      </trkpt>
      <trkpt lat="48.252598" lon="10.375076">
        <ele>540.112215</ele>
        <time>2025-05-18T15:50:40.244Z</time>
      </trkpt>
      <trkpt lat="48.251261" lon="10.373682">
        <ele>524.137485</ele>
        <time>2025-05-18T15:51:02.291Z</time>
      </trkpt>
      <trkpt lat="48.251041" lon="10.373421">
        <ele>522.639791</ele>
        <time>2025-05-18T15:51:06.294Z</time>
      </trkpt>
      <trkpt lat="48.251062" lon="10.373365">
        <ele>522.411179</ele>
        <time>2025-05-18T15:51:06.923Z</time>
      </trkpt>
      <trkpt lat="48.250982" lon="10.373156">
        <ele>521.553673</ele>
        <time>2025-05-18T15:51:09.269Z</time>
      </trkpt>
      <trkpt lat="48.250850" lon="10.372735">
        <ele>519.898438</ele>
        <time>2025-05-18T15:51:13.884Z</time>
      </trkpt>
      <trkpt lat="48.250742" lon="10.372391">
        <ele>518.545615</ele>
        <time>2025-05-18T15:51:17.773Z</time>
      </trkpt>
      <trkpt lat="48.250595" lon="10.371746">
        <ele>516.120632</ele>
        <time>2025-05-18T15:51:25.230Z</time>
      </trkpt>
      <trkpt lat="48.250473" lon="10.371141">
        <ele>514.735013</ele>
        <time>2025-05-18T15:51:32.489Z</time>
      </trkpt>
      <trkpt lat="48.250423" lon="10.370756">
        <ele>514.256657</ele>
        <time>2025-05-18T15:51:37.007Z</time>
      </trkpt>
      <trkpt lat="48.250415" lon="10.370536">
        <ele>513.987965</ele>
        <time>2025-05-18T15:51:39.541Z</time>
      </trkpt>
      <trkpt lat="48.250414" lon="10.370275">
        <ele>513.669669</ele>
        <time>2025-05-18T15:51:42.565Z</time>
      </trkpt>
      <trkpt lat="48.250415" lon="10.369975">
        <ele>513.303812</ele>
        <time>2025-05-18T15:51:46.106Z</time>
      </trkpt>
      <trkpt lat="48.250401" lon="10.369427">
        <ele>512.635030</ele>
        <time>2025-05-18T15:51:52.809Z</time>
      </trkpt>
      <trkpt lat="48.250379" lon="10.369098">
        <ele>512.231794</ele>
        <time>2025-05-18T15:51:57.048Z</time>
      </trkpt>
      <trkpt lat="48.250350" lon="10.368927">
        <ele>512.016601</ele>
        <time>2025-05-18T15:51:59.331Z</time>
      </trkpt>
      <trkpt lat="48.250327" lon="10.368819">
        <ele>511.881812</ele>
        <time>2025-05-18T15:52:00.812Z</time>
      </trkpt>
      <trkpt lat="48.250292" lon="10.368657">
        <ele>511.730803</ele>
        <time>2025-05-18T15:52:03.016Z</time>
      </trkpt>
      <trkpt lat="48.250240" lon="10.368410">
        <ele>511.501114</ele>
        <time>2025-05-18T15:52:06.383Z</time>
      </trkpt>
      <trkpt lat="48.250216" lon="10.368302">
        <ele>511.400164</ele>
        <time>2025-05-18T15:52:07.852Z</time>
      </trkpt>
      <trkpt lat="48.250306" lon="10.368253">
        <ele>511.272692</ele>
        <time>2025-05-18T15:52:09.713Z</time>
      </trkpt>
      <trkpt lat="48.250282" lon="10.367924">
        <ele>510.979238</ele>
        <time>2025-05-18T15:52:14.103Z</time>
      </trkpt>
      <trkpt lat="48.250269" lon="10.367756">
        <ele>510.829277</ele>
        <time>2025-05-18T15:52:16.350Z</time>
      </trkpt>
      <trkpt lat="48.250252" lon="10.367556">
        <ele>510.650508</ele>
        <time>2025-05-18T15:52:18.994Z</time>
      </trkpt>
      <trkpt lat="48.250171" lon="10.367222">
        <ele>510.335336</ele>
        <time>2025-05-18T15:52:23.606Z</time>
      </trkpt>
      <trkpt lat="48.250108" lon="10.366980">
        <ele>510.104950</ele>
        <time>2025-05-18T15:52:27.024Z</time>
      </trkpt>
      <trkpt lat="48.250092" lon="10.366927">
        <ele>510.053353</ele>
        <time>2025-05-18T15:52:27.767Z</time>
      </trkpt>
      <trkpt lat="48.250066" lon="10.366836">
        <ele>509.965553</ele>
        <time>2025-05-18T15:52:29.040Z</time>
      </trkpt>
      <trkpt lat="48.250047" lon="10.366769">
        <ele>509.900985</ele>
        <time>2025-05-18T15:52:29.982Z</time>
      </trkpt>
      <trkpt lat="48.249973" lon="10.366513">
        <ele>509.653535</ele>
        <time>2025-05-18T15:52:33.530Z</time>
      </trkpt>
      <trkpt lat="48.249563" lon="10.366737">
        <ele>508.998961</ele>
        <time>2025-05-18T15:52:41.314Z</time>
      </trkpt>
      <trkpt lat="48.249388" lon="10.366832">
        <ele>508.708105</ele>
        <time>2025-05-18T15:52:44.543Z</time>
      </trkpt>
      <trkpt lat="48.249303" lon="10.366879">
        <ele>508.566526</ele>
        <time>2025-05-18T15:52:46.153Z</time>
      </trkpt>
      <trkpt lat="48.249094" lon="10.366527">
        <ele>508.075665</ele>
        <time>2025-05-18T15:52:51.779Z</time>
      </trkpt>
      <trkpt lat="48.248971" lon="10.366516">
        <ele>507.883069</ele>
        <time>2025-05-18T15:52:54.009Z</time>
      </trkpt>
      <trkpt lat="48.248919" lon="10.365980">
        <ele>507.319296</ele>
        <time>2025-05-18T15:53:00.936Z</time>
      </trkpt>
      <trkpt lat="48.248874" lon="10.365588">
        <ele>506.905273</ele>
        <time>2025-05-18T15:53:05.832Z</time>
      </trkpt>
      <trkpt lat="48.248829" lon="10.365171">
        <ele>506.619735</ele>
        <time>2025-05-18T15:53:11.110Z</time>
      </trkpt>
      <trkpt lat="48.248679" lon="10.363955">
        <ele>506.237895</ele>
        <time>2025-05-18T15:53:27.471Z</time>
      </trkpt>
      <trkpt lat="48.248636" lon="10.363660">
        <ele>506.144655</ele>
        <time>2025-05-18T15:53:31.681Z</time>
      </trkpt>
      <trkpt lat="48.248534" lon="10.363054">
        <ele>505.951661</ele>
        <time>2025-05-18T15:53:40.554Z</time>
      </trkpt>
      <trkpt lat="48.248427" lon="10.362416">
        <ele>505.865116</ele>
        <time>2025-05-18T15:53:49.839Z</time>
      </trkpt>
      <trkpt lat="48.248366" lon="10.362076">
        <ele>505.880376</ele>
        <time>2025-05-18T15:53:54.771Z</time>
      </trkpt>
      <trkpt lat="48.248361" lon="10.362046">
        <ele>505.881716</ele>
        <time>2025-05-18T15:53:55.203Z</time>
      </trkpt>
      <trkpt lat="48.248171" lon="10.362108">
        <ele>505.894370</ele>
        <time>2025-05-18T15:53:59.320Z</time>
      </trkpt>
      <trkpt lat="48.248154" lon="10.362150">
        <ele>505.896500</ele>
        <time>2025-05-18T15:54:00.003Z</time>
      </trkpt>
      <trkpt lat="48.247521" lon="10.362356">
        <ele>505.938651</ele>
        <time>2025-05-18T15:54:13.743Z</time>
      </trkpt>
      <trkpt lat="48.247071" lon="10.362215">
        <ele>505.975035</ele>
        <time>2025-05-18T15:54:23.487Z</time>
      </trkpt>
      <trkpt lat="48.246394" lon="10.362321">
        <ele>506.402408</ele>
        <time>2025-05-18T15:54:38.195Z</time>
      </trkpt>
      <trkpt lat="48.246050" lon="10.362329">
        <ele>506.618422</ele>
        <time>2025-05-18T15:54:45.725Z</time>
      </trkpt>
      <trkpt lat="48.245673" lon="10.362146">
        <ele>506.867190</ele>
        <time>2025-05-18T15:54:54.500Z</time>
      </trkpt>
      <trkpt lat="48.245311" lon="10.361919">
        <ele>507.141999</ele>
        <time>2025-05-18T15:55:03.311Z</time>
      </trkpt>
      <trkpt lat="48.245315" lon="10.361879">
        <ele>507.188365</ele>
        <time>2025-05-18T15:55:04.228Z</time>
      </trkpt>
      <trkpt lat="48.245315" lon="10.361790">
        <ele>507.290386</ele>
        <time>2025-05-18T15:55:05.602Z</time>
      </trkpt>
      <trkpt lat="48.244532" lon="10.361775">
        <ele>508.638292</ele>
        <time>2025-05-18T15:55:24.331Z</time>
      </trkpt>
      <trkpt lat="48.244392" lon="10.362101">
        <ele>509.082956</ele>
        <time>2025-05-18T15:55:30.580Z</time>
      </trkpt>
      <trkpt lat="48.244382" lon="10.362123">
        <ele>509.113489</ele>
        <time>2025-05-18T15:55:31.019Z</time>
      </trkpt>
      <trkpt lat="48.244341" lon="10.362211">
        <ele>509.236602</ele>
        <time>2025-05-18T15:55:32.756Z</time>
      </trkpt>
      <trkpt lat="48.244329" lon="10.362237">
        <ele>509.272865</ele>
        <time>2025-05-18T15:55:33.265Z</time>
      </trkpt>
      <trkpt lat="48.244143" lon="10.362733">
        <ele>509.925389</ele>
        <time>2025-05-18T15:55:42.457Z</time>
      </trkpt>
      <trkpt lat="48.243943" lon="10.362762">
        <ele>510.195055</ele>
        <time>2025-05-18T15:55:47.282Z</time>
      </trkpt>
      <trkpt lat="48.243771" lon="10.362787">
        <ele>510.202177</ele>
        <time>2025-05-18T15:55:51.354Z</time>
      </trkpt>
      <trkpt lat="48.243476" lon="10.362846">
        <ele>510.214444</ele>
        <time>2025-05-18T15:55:58.118Z</time>
      </trkpt>
      <trkpt lat="48.243129" lon="10.362914">
        <ele>510.228868</ele>
        <time>2025-05-18T15:56:05.504Z</time>
      </trkpt>
      <trkpt lat="48.243074" lon="10.362691">
        <ele>510.235396</ele>
        <time>2025-05-18T15:56:08.627Z</time>
      </trkpt>
      <trkpt lat="48.243000" lon="10.362639">
        <ele>510.238764</ele>
        <time>2025-05-18T15:56:10.280Z</time>
      </trkpt>
      <trkpt lat="48.242977" lon="10.362418">
        <ele>510.244904</ele>
        <time>2025-05-18T15:56:13.221Z</time>
      </trkpt>
      <trkpt lat="48.242957" lon="10.362194">
        <ele>510.251108</ele>
        <time>2025-05-18T15:56:16.182Z</time>
      </trkpt>
      <trkpt lat="48.242970" lon="10.361980">
        <ele>510.257007</ele>
        <time>2025-05-18T15:56:18.988Z</time>
      </trkpt>
      <trkpt lat="48.242998" lon="10.361876">
        <ele>510.260086</ele>
        <time>2025-05-18T15:56:20.461Z</time>
      </trkpt>
      <trkpt lat="48.243003" lon="10.361859">
        <ele>510.260596</ele>
        <time>2025-05-18T15:56:20.691Z</time>
      </trkpt>
      <trkpt lat="48.243047" lon="10.361629">
        <ele>510.267165</ele>
        <time>2025-05-18T15:56:23.845Z</time>
      </trkpt>
      <trkpt lat="48.243034" lon="10.361368">
        <ele>510.526136</ele>
        <time>2025-05-18T15:56:27.317Z</time>
      </trkpt>
      <trkpt lat="48.242973" lon="10.360950">
        <ele>510.958784</ele>
        <time>2025-05-18T15:56:33.232Z</time>
      </trkpt>
      <trkpt lat="48.242597" lon="10.360742">
        <ele>511.567118</ele>
        <time>2025-05-18T15:56:42.102Z</time>
      </trkpt>
      <trkpt lat="48.242376" lon="10.360620">
        <ele>511.924588</ele>
        <time>2025-05-18T15:56:47.685Z</time>
      </trkpt>
      <trkpt lat="48.242252" lon="10.360552">
        <ele>512.125001</ele>
        <time>2025-05-18T15:56:50.945Z</time>
      </trkpt>
      <trkpt lat="48.242261" lon="10.360341">
        <ele>512.338774</ele>
        <time>2025-05-18T15:56:54.414Z</time>
      </trkpt>
      <trkpt lat="48.242197" lon="10.359761">
        <ele>512.933188</ele>
        <time>2025-05-18T15:57:03.889Z</time>
      </trkpt>
      <trkpt lat="48.242159" lon="10.359471">
        <ele>513.495020</ele>
        <time>2025-05-18T15:57:08.671Z</time>
      </trkpt>
      <trkpt lat="48.242120" lon="10.359207">
        <ele>514.075635</ele>
        <time>2025-05-18T15:57:13.040Z</time>
      </trkpt>
      <trkpt lat="48.242096" lon="10.359094">
        <ele>514.330297</ele>
        <time>2025-05-18T15:57:14.950Z</time>
      </trkpt>
      <trkpt lat="48.242073" lon="10.358971">
        <ele>514.604604</ele>
        <time>2025-05-18T15:57:17.027Z</time>
      </trkpt>
      <trkpt lat="48.242001" lon="10.358691">
        <ele>515.249053</ele>
        <time>2025-05-18T15:57:21.887Z</time>
      </trkpt>
      <trkpt lat="48.241783" lon="10.357962">
        <ele>516.964852</ele>
        <time>2025-05-18T15:57:34.844Z</time>
      </trkpt>
      <trkpt lat="48.241558" lon="10.356981">
        <ele>519.387415</ele>
        <time>2025-05-18T15:57:51.845Z</time>
      </trkpt>
      <trkpt lat="48.241532" lon="10.356618">
        <ele>520.557093</ele>
        <time>2025-05-18T15:57:57.884Z</time>
      </trkpt>
      <trkpt lat="48.241516" lon="10.356358">
        <ele>521.393624</ele>
        <time>2025-05-18T15:58:02.262Z</time>
      </trkpt>
      <trkpt lat="48.241485" lon="10.354998">
        <ele>525.753317</ele>
        <time>2025-05-18T15:58:27.124Z</time>
      </trkpt>
      <trkpt lat="48.241469" lon="10.354586">
        <ele>527.075517</ele>
        <time>2025-05-18T15:58:34.706Z</time>
      </trkpt>
      <trkpt lat="48.241448" lon="10.354108">
        <ele>528.664123</ele>
        <time>2025-05-18T15:58:43.218Z</time>
      </trkpt>
      <trkpt lat="48.241417" lon="10.353661">
        <ele>530.170760</ele>
        <time>2025-05-18T15:58:51.430Z</time>
      </trkpt>
      <trkpt lat="48.241371" lon="10.353195">
        <ele>531.750057</ele>
        <time>2025-05-18T15:59:00.565Z</time>
      </trkpt>
      <trkpt lat="48.241299" lon="10.352721">
        <ele>533.379916</ele>
        <time>2025-05-18T15:59:09.824Z</time>
      </trkpt>
      <trkpt lat="48.241215" lon="10.352239">
        <ele>535.050196</ele>
        <time>2025-05-18T15:59:18.337Z</time>
      </trkpt>
      <trkpt lat="48.241144" lon="10.351902">
        <ele>536.235151</ele>
        <time>2025-05-18T15:59:24.243Z</time>
      </trkpt>
      <trkpt lat="48.241081" lon="10.351611">
        <ele>536.793544</ele>
        <time>2025-05-18T15:59:29.228Z</time>
      </trkpt>
      <trkpt lat="48.241018" lon="10.351326">
        <ele>537.179419</ele>
        <time>2025-05-18T15:59:34.082Z</time>
      </trkpt>
      <trkpt lat="48.240944" lon="10.350988">
        <ele>537.636621</ele>
        <time>2025-05-18T15:59:39.781Z</time>
      </trkpt>
      <trkpt lat="48.240854" lon="10.350578">
        <ele>538.191359</ele>
        <time>2025-05-18T15:59:46.503Z</time>
      </trkpt>
      <trkpt lat="48.240801" lon="10.350336">
        <ele>538.518717</ele>
        <time>2025-05-18T15:59:50.316Z</time>
      </trkpt>
      <trkpt lat="48.240501" lon="10.349070">
        <ele>540.513678</ele>
        <time>2025-05-18T16:00:09.980Z</time>
      </trkpt>
      <trkpt lat="48.240534" lon="10.348976">
        <ele>540.784849</ele>
        <time>2025-05-18T16:00:11.586Z</time>
      </trkpt>
      <trkpt lat="48.240254" lon="10.348002">
        <ele>543.492130</ele>
        <time>2025-05-18T16:00:28.609Z</time>
      </trkpt>
      <trkpt lat="48.239992" lon="10.347333">
        <ele>545.472694</ele>
        <time>2025-05-18T16:00:42.679Z</time>
      </trkpt>
      <trkpt lat="48.239638" lon="10.346627">
        <ele>548.212947</ele>
        <time>2025-05-18T16:00:59.477Z</time>
      </trkpt>
      <trkpt lat="48.238307" lon="10.344424">
        <ele>559.791099</ele>
        <time>2025-05-18T16:01:55.599Z</time>
      </trkpt>
      <trkpt lat="48.237863" lon="10.343512">
        <ele>563.776643</ele>
        <time>2025-05-18T16:02:16.605Z</time>
      </trkpt>
      <trkpt lat="48.237646" lon="10.342968">
        <ele>566.013822</ele>
        <time>2025-05-18T16:02:27.932Z</time>
      </trkpt>
      <trkpt lat="48.237307" lon="10.341958">
        <ele>567.586846</ele>
        <time>2025-05-18T16:02:46.921Z</time>
      </trkpt>
      <trkpt lat="48.237064" lon="10.340999">
        <ele>568.129829</ele>
        <time>2025-05-18T16:03:02.608Z</time>
      </trkpt>
      <trkpt lat="48.236873" lon="10.339951">
        <ele>567.705889</ele>
        <time>2025-05-18T16:03:15.389Z</time>
      </trkpt>
      <trkpt lat="48.236712" lon="10.338284">
        <ele>560.884308</ele>
        <time>2025-05-18T16:03:31.699Z</time>
      </trkpt>
      <trkpt lat="48.236652" lon="10.336972">
        <ele>555.470017</ele>
        <time>2025-05-18T16:03:43.935Z</time>
      </trkpt>
      <trkpt lat="48.236554" lon="10.335872">
        <ele>550.785758</ele>
        <time>2025-05-18T16:03:54.633Z</time>
      </trkpt>
      <trkpt lat="48.236414" lon="10.334775">
        <ele>546.127558</ele>
        <time>2025-05-18T16:04:05.768Z</time>
      </trkpt>
      <trkpt lat="48.236297" lon="10.334192">
        <ele>544.344536</ele>
        <time>2025-05-18T16:04:11.930Z</time>
      </trkpt>
      <trkpt lat="48.235911" lon="10.332700">
        <ele>539.657450</ele>
        <time>2025-05-18T16:04:28.321Z</time>
      </trkpt>
      <trkpt lat="48.235687" lon="10.331953">
        <ele>537.763809</ele>
        <time>2025-05-18T16:04:36.964Z</time>
      </trkpt>
      <trkpt lat="48.235337" lon="10.330858">
        <ele>535.857665</ele>
        <time>2025-05-18T16:04:50.886Z</time>
      </trkpt>
      <trkpt lat="48.234934" lon="10.329345">
        <ele>533.711794</ele>
        <time>2025-05-18T16:05:10.475Z</time>
      </trkpt>
      <trkpt lat="48.234772" lon="10.328415">
        <ele>532.970466</ele>
        <time>2025-05-18T16:05:22.591Z</time>
      </trkpt>
      <trkpt lat="48.234657" lon="10.327561">
        <ele>532.298544</ele>
        <time>2025-05-18T16:05:33.717Z</time>
      </trkpt>
      <trkpt lat="48.234502" lon="10.324918">
        <ele>531.310360</ele>
        <time>2025-05-18T16:06:09.736Z</time>
      </trkpt>
      <trkpt lat="48.234424" lon="10.324384">
        <ele>530.968581</ele>
        <time>2025-05-18T16:06:17.222Z</time>
      </trkpt>
      <trkpt lat="48.234278" lon="10.323689">
        <ele>529.892960</ele>
        <time>2025-05-18T16:06:26.771Z</time>
      </trkpt>
      <trkpt lat="48.234080" lon="10.322991">
        <ele>528.773179</ele>
        <time>2025-05-18T16:06:35.814Z</time>
      </trkpt>
      <trkpt lat="48.233827" lon="10.322345">
        <ele>527.667078</ele>
        <time>2025-05-18T16:06:44.081Z</time>
      </trkpt>
      <trkpt lat="48.233297" lon="10.321210">
        <ele>523.084727</ele>
        <time>2025-05-18T16:06:58.104Z</time>
      </trkpt>
      <trkpt lat="48.233130" lon="10.320783">
        <ele>521.179974</ele>
        <time>2025-05-18T16:07:02.897Z</time>
      </trkpt>
      <trkpt lat="48.233027" lon="10.320355">
        <ele>519.429417</ele>
        <time>2025-05-18T16:07:07.238Z</time>
      </trkpt>
      <trkpt lat="48.232995" lon="10.320107">
        <ele>518.457692</ele>
        <time>2025-05-18T16:07:09.647Z</time>
      </trkpt>
      <trkpt lat="48.232895" lon="10.319963">
        <ele>517.657476</ele>
        <time>2025-05-18T16:07:11.632Z</time>
      </trkpt>
      <trkpt lat="48.232884" lon="10.319525">
        <ele>516.087354</ele>
        <time>2025-05-18T16:07:15.842Z</time>
      </trkpt>
      <trkpt lat="48.232913" lon="10.319255">
        <ele>515.180225</ele>
        <time>2025-05-18T16:07:18.487Z</time>
      </trkpt>
      <trkpt lat="48.232940" lon="10.319084">
        <ele>514.597320</ele>
        <time>2025-05-18T16:07:20.197Z</time>
      </trkpt>
      <trkpt lat="48.232949" lon="10.319032">
        <ele>514.419115</ele>
        <time>2025-05-18T16:07:20.710Z</time>
      </trkpt>
      <trkpt lat="48.232952" lon="10.319014">
        <ele>514.357570</ele>
        <time>2025-05-18T16:07:20.896Z</time>
      </trkpt>
      <trkpt lat="48.233035" lon="10.318696">
        <ele>513.224716</ele>
        <time>2025-05-18T16:07:24.232Z</time>
      </trkpt>
      <trkpt lat="48.233150" lon="10.318307">
        <ele>511.813082</ele>
        <time>2025-05-18T16:07:28.480Z</time>
      </trkpt>
      <trkpt lat="48.233216" lon="10.318021">
        <ele>510.809139</ele>
        <time>2025-05-18T16:07:31.550Z</time>
      </trkpt>
      <trkpt lat="48.233228" lon="10.317791">
        <ele>510.043922</ele>
        <time>2025-05-18T16:07:33.915Z</time>
      </trkpt>
      <trkpt lat="48.233201" lon="10.317574">
        <ele>509.311712</ele>
        <time>2025-05-18T16:07:36.237Z</time>
      </trkpt>
      <trkpt lat="48.233186" lon="10.317308">
        <ele>508.426268</ele>
        <time>2025-05-18T16:07:39.126Z</time>
      </trkpt>
      <trkpt lat="48.233209" lon="10.317043">
        <ele>507.746534</ele>
        <time>2025-05-18T16:07:42.112Z</time>
      </trkpt>
      <trkpt lat="48.233282" lon="10.316817">
        <ele>507.456709</ele>
        <time>2025-05-18T16:07:44.964Z</time>
      </trkpt>
      <trkpt lat="48.233479" lon="10.316362">
        <ele>506.830522</ele>
        <time>2025-05-18T16:07:51.179Z</time>
      </trkpt>
      <trkpt lat="48.233588" lon="10.316111">
        <ele>506.484780</ele>
        <time>2025-05-18T16:07:54.633Z</time>
      </trkpt>
      <trkpt lat="48.233795" lon="10.315454">
        <ele>505.646146</ele>
        <time>2025-05-18T16:08:03.531Z</time>
      </trkpt>
      <trkpt lat="48.233863" lon="10.315326">
        <ele>505.457226</ele>
        <time>2025-05-18T16:08:05.685Z</time>
      </trkpt>
      <trkpt lat="48.233899" lon="10.315353">
        <ele>505.387514</ele>
        <time>2025-05-18T16:08:06.464Z</time>
      </trkpt>
      <trkpt lat="48.233977" lon="10.315276">
        <ele>505.225799</ele>
        <time>2025-05-18T16:08:08.317Z</time>
      </trkpt>
      <trkpt lat="48.234046" lon="10.315282">
        <ele>505.106068</ele>
        <time>2025-05-18T16:08:09.666Z</time>
      </trkpt>
      <trkpt lat="48.234086" lon="10.315196">
        <ele>504.985036</ele>
        <time>2025-05-18T16:08:11.069Z</time>
      </trkpt>
      <trkpt lat="48.234123" lon="10.315136">
        <ele>504.890689</ele>
        <time>2025-05-18T16:08:12.151Z</time>
      </trkpt>
      <trkpt lat="48.234167" lon="10.315061">
        <ele>504.775367</ele>
        <time>2025-05-18T16:08:13.482Z</time>
      </trkpt>
      <trkpt lat="48.234118" lon="10.314878">
        <ele>504.728459</ele>
        <time>2025-05-18T16:08:16.116Z</time>
      </trkpt>
      <trkpt lat="48.234116" lon="10.314782">
        <ele>504.721284</ele>
        <time>2025-05-18T16:08:17.422Z</time>
      </trkpt>
      <trkpt lat="48.234247" lon="10.314242">
        <ele>504.678353</ele>
        <time>2025-05-18T16:08:25.241Z</time>
      </trkpt>
      <trkpt lat="48.234279" lon="10.314110">
        <ele>504.667860</ele>
        <time>2025-05-18T16:08:27.195Z</time>
      </trkpt>
      <trkpt lat="48.234430" lon="10.313725">
        <ele>504.634484</ele>
        <time>2025-05-18T16:08:33.411Z</time>
      </trkpt>
      <trkpt lat="48.234469" lon="10.313637">
        <ele>504.626588</ele>
        <time>2025-05-18T16:08:34.883Z</time>
      </trkpt>
      <trkpt lat="48.234595" lon="10.313459">
        <ele>504.607185</ele>
        <time>2025-05-18T16:08:38.608Z</time>
      </trkpt>
      <trkpt lat="48.235352" lon="10.311798">
        <ele>504.640903</ele>
        <time>2025-05-18T16:09:07.408Z</time>
      </trkpt>
      <trkpt lat="48.235447" lon="10.311398">
        <ele>504.680037</ele>
        <time>2025-05-18T16:09:13.445Z</time>
      </trkpt>
      <trkpt lat="48.235606" lon="10.311004">
        <ele>504.722488</ele>
        <time>2025-05-18T16:09:19.935Z</time>
      </trkpt>
      <trkpt lat="48.235799" lon="10.310556">
        <ele>504.771653</ele>
        <time>2025-05-18T16:09:27.474Z</time>
      </trkpt>
      <trkpt lat="48.236037" lon="10.309654">
        <ele>504.853506</ele>
        <time>2025-05-18T16:09:41.184Z</time>
      </trkpt>
      <trkpt lat="48.236300" lon="10.307888">
        <ele>505.003005</ele>
        <time>2025-05-18T16:10:06.735Z</time>
      </trkpt>
      <trkpt lat="48.236656" lon="10.305189">
        <ele>505.819477</ele>
        <time>2025-05-18T16:10:46.925Z</time>
      </trkpt>
      <trkpt lat="48.236892" lon="10.303371">
        <ele>506.190673</ele>
        <time>2025-05-18T16:11:14.029Z</time>
      </trkpt>
      <trkpt lat="48.237045" lon="10.302966">
        <ele>506.282693</ele>
        <time>2025-05-18T16:11:20.547Z</time>
      </trkpt>
      <trkpt lat="48.237062" lon="10.302830">
        <ele>506.310040</ele>
        <time>2025-05-18T16:11:22.489Z</time>
      </trkpt>
      <trkpt lat="48.236990" lon="10.302807">
        <ele>506.331882</ele>
        <time>2025-05-18T16:11:24.008Z</time>
      </trkpt>
      <trkpt lat="48.236887" lon="10.302773">
        <ele>506.363175</ele>
        <time>2025-05-18T16:11:26.198Z</time>
      </trkpt>
      <trkpt lat="48.236781" lon="10.302767">
        <ele>506.320725</ele>
        <time>2025-05-18T16:11:28.404Z</time>
      </trkpt>
      <trkpt lat="48.236764" lon="10.302883">
        <ele>506.279578</ele>
        <time>2025-05-18T16:11:30.020Z</time>
      </trkpt>
      <trkpt lat="48.236726" lon="10.302918">
        <ele>506.256391</ele>
        <time>2025-05-18T16:11:30.935Z</time>
      </trkpt>
      <trkpt lat="48.236501" lon="10.302934">
        <ele>506.139233</ele>
        <time>2025-05-18T16:11:35.537Z</time>
      </trkpt>
      <trkpt lat="48.236306" lon="10.302822">
        <ele>506.030642</ele>
        <time>2025-05-18T16:11:39.772Z</time>
      </trkpt>
      <trkpt lat="48.235034" lon="10.302765">
        <ele>505.384399</ele>
        <time>2025-05-18T16:12:05.009Z</time>
      </trkpt>
      <trkpt lat="48.234803" lon="10.302817">
        <ele>505.292819</ele>
        <time>2025-05-18T16:12:09.724Z</time>
      </trkpt>
      <trkpt lat="48.234737" lon="10.302820">
        <ele>505.266931</ele>
        <time>2025-05-18T16:12:11.067Z</time>
      </trkpt>
      <trkpt lat="48.234541" lon="10.302813">
        <ele>505.190064</ele>
        <time>2025-05-18T16:12:15.234Z</time>
      </trkpt>
      <trkpt lat="48.234439" lon="10.302772">
        <ele>505.148664</ele>
        <time>2025-05-18T16:12:17.387Z</time>
      </trkpt>
      <trkpt lat="48.233698" lon="10.302712">
        <ele>504.857719</ele>
        <time>2025-05-18T16:12:32.528Z</time>
      </trkpt>
      <trkpt lat="48.233285" lon="10.302690">
        <ele>504.753956</ele>
        <time>2025-05-18T16:12:41.015Z</time>
      </trkpt>
      <trkpt lat="48.233158" lon="10.302629">
        <ele>504.798662</ele>
        <time>2025-05-18T16:12:43.780Z</time>
      </trkpt>
      <trkpt lat="48.233055" lon="10.302518">
        <ele>504.841171</ele>
        <time>2025-05-18T16:12:46.449Z</time>
      </trkpt>
      <trkpt lat="48.232694" lon="10.301967">
        <ele>505.013774</ele>
        <time>2025-05-18T16:12:57.541Z</time>
      </trkpt>
      <trkpt lat="48.231779" lon="10.300555">
        <ele>505.509129</ele>
        <time>2025-05-18T16:13:26.573Z</time>
      </trkpt>
      <trkpt lat="48.231031" lon="10.299410">
        <ele>506.027884</ele>
        <time>2025-05-18T16:13:49.873Z</time>
      </trkpt>
      <trkpt lat="48.230504" lon="10.298596">
        <ele>506.388231</ele>
        <time>2025-05-18T16:14:06.274Z</time>
      </trkpt>
      <trkpt lat="48.230041" lon="10.297890">
        <ele>506.697274</ele>
        <time>2025-05-18T16:14:20.749Z</time>
      </trkpt>
      <trkpt lat="48.229687" lon="10.297326">
        <ele>506.939001</ele>
        <time>2025-05-18T16:14:32.039Z</time>
      </trkpt>
      <trkpt lat="48.229702" lon="10.297256">
        <ele>506.961939</ele>
        <time>2025-05-18T16:14:33.105Z</time>
      </trkpt>
      <trkpt lat="48.229613" lon="10.297111">
        <ele>507.023443</ele>
        <time>2025-05-18T16:14:35.984Z</time>
      </trkpt>
      <trkpt lat="48.229602" lon="10.297090">
        <ele>507.031777</ele>
        <time>2025-05-18T16:14:36.380Z</time>
      </trkpt>
      <trkpt lat="48.229505" lon="10.296940">
        <ele>507.116503</ele>
        <time>2025-05-18T16:14:39.438Z</time>
      </trkpt>
      <trkpt lat="48.229428" lon="10.296819">
        <ele>507.188609</ele>
        <time>2025-05-18T16:14:41.883Z</time>
      </trkpt>
      <trkpt lat="48.229384" lon="10.296751">
        <ele>507.229457</ele>
        <time>2025-05-18T16:14:43.274Z</time>
      </trkpt>
      <trkpt lat="48.229339" lon="10.296682">
        <ele>507.271065</ele>
        <time>2025-05-18T16:14:44.688Z</time>
      </trkpt>
      <trkpt lat="48.228812" lon="10.295865">
        <ele>507.761105</ele>
        <time>2025-05-18T16:15:01.384Z</time>
      </trkpt>
      <trkpt lat="48.228464" lon="10.294976">
        <ele>508.205419</ele>
        <time>2025-05-18T16:15:16.726Z</time>
      </trkpt>
      <trkpt lat="48.228239" lon="10.294410">
        <ele>508.397680</ele>
        <time>2025-05-18T16:15:26.494Z</time>
      </trkpt>
      <trkpt lat="48.227261" lon="10.291660">
        <ele>509.069584</ele>
        <time>2025-05-18T16:16:11.349Z</time>
      </trkpt>
      <trkpt lat="48.227150" lon="10.291379">
        <ele>509.093422</ele>
        <time>2025-05-18T16:16:16.017Z</time>
      </trkpt>
      <trkpt lat="48.227095" lon="10.291241">
        <ele>509.105156</ele>
        <time>2025-05-18T16:16:18.314Z</time>
      </trkpt>
      <trkpt lat="48.226938" lon="10.291051">
        <ele>509.127245</ele>
        <time>2025-05-18T16:16:22.609Z</time>
      </trkpt>
      <trkpt lat="48.226891" lon="10.290993">
        <ele>509.133909</ele>
        <time>2025-05-18T16:16:23.899Z</time>
      </trkpt>
      <trkpt lat="48.226694" lon="10.291189">
        <ele>509.159797</ele>
        <time>2025-05-18T16:16:28.889Z</time>
      </trkpt>
      <trkpt lat="48.226520" lon="10.291288">
        <ele>509.180179</ele>
        <time>2025-05-18T16:16:32.799Z</time>
      </trkpt>
      <trkpt lat="48.226479" lon="10.291311">
        <ele>509.184973</ele>
        <time>2025-05-18T16:16:33.700Z</time>
      </trkpt>
      <trkpt lat="48.226210" lon="10.291350">
        <ele>509.117320</ele>
        <time>2025-05-18T16:16:39.341Z</time>
      </trkpt>
      <trkpt lat="48.226012" lon="10.291320">
        <ele>509.057198</ele>
        <time>2025-05-18T16:16:43.426Z</time>
      </trkpt>
      <trkpt lat="48.225866" lon="10.291226">
        <ele>509.009203</ele>
        <time>2025-05-18T16:16:46.681Z</time>
      </trkpt>
      <trkpt lat="48.225625" lon="10.291071">
        <ele>508.929991</ele>
        <time>2025-05-18T16:16:52.019Z</time>
      </trkpt>
      <trkpt lat="48.225178" lon="10.290432">
        <ele>508.743502</ele>
        <time>2025-05-18T16:17:04.538Z</time>
      </trkpt>
      <trkpt lat="48.224308" lon="10.289065">
        <ele>508.604290</ele>
        <time>2025-05-18T16:17:30.487Z</time>
      </trkpt>
      <trkpt lat="48.223917" lon="10.288553">
        <ele>508.581518</ele>
        <time>2025-05-18T16:17:41.489Z</time>
      </trkpt>
      <trkpt lat="48.223197" lon="10.287888">
        <ele>508.818786</ele>
        <time>2025-05-18T16:17:59.792Z</time>
      </trkpt>
      <trkpt lat="48.222655" lon="10.287476">
        <ele>509.125470</ele>
        <time>2025-05-18T16:18:13.250Z</time>
      </trkpt>
      <trkpt lat="48.222389" lon="10.287311">
        <ele>509.270760</ele>
        <time>2025-05-18T16:18:19.605Z</time>
      </trkpt>
      <trkpt lat="48.221841" lon="10.286993">
        <ele>509.546507</ele>
        <time>2025-05-18T16:18:32.518Z</time>
      </trkpt>
      <trkpt lat="48.221346" lon="10.286686">
        <ele>509.756327</ele>
        <time>2025-05-18T16:18:44.149Z</time>
      </trkpt>
      <trkpt lat="48.220893" lon="10.286290">
        <ele>509.961697</ele>
        <time>2025-05-18T16:18:55.538Z</time>
      </trkpt>
      <trkpt lat="48.220315" lon="10.285667">
        <ele>510.244305</ele>
        <time>2025-05-18T16:19:10.892Z</time>
      </trkpt>
      <trkpt lat="48.219804" lon="10.285038">
        <ele>510.519343</ele>
        <time>2025-05-18T16:19:25.310Z</time>
      </trkpt>
      <trkpt lat="48.219408" lon="10.284605">
        <ele>510.723246</ele>
        <time>2025-05-18T16:19:36.029Z</time>
      </trkpt>
      <trkpt lat="48.219224" lon="10.284421">
        <ele>510.815262</ele>
        <time>2025-05-18T16:19:40.872Z</time>
      </trkpt>
      <trkpt lat="48.218949" lon="10.284222">
        <ele>510.938443</ele>
        <time>2025-05-18T16:19:47.534Z</time>
      </trkpt>
      <trkpt lat="48.218687" lon="10.284106">
        <ele>511.022444</ele>
        <time>2025-05-18T16:19:53.518Z</time>
      </trkpt>
      <trkpt lat="48.218241" lon="10.284001">
        <ele>511.161271</ele>
        <time>2025-05-18T16:20:03.314Z</time>
      </trkpt>
      <trkpt lat="48.217898" lon="10.284026">
        <ele>511.266872</ele>
        <time>2025-05-18T16:20:10.709Z</time>
      </trkpt>
      <trkpt lat="48.217648" lon="10.284091">
        <ele>511.344895</ele>
        <time>2025-05-18T16:20:16.168Z</time>
      </trkpt>
      <trkpt lat="48.217201" lon="10.284284">
        <ele>511.485437</ele>
        <time>2025-05-18T16:20:26.159Z</time>
      </trkpt>
      <trkpt lat="48.216860" lon="10.284570">
        <ele>511.564835</ele>
        <time>2025-05-18T16:20:34.574Z</time>
      </trkpt>
      <trkpt lat="48.216642" lon="10.284828">
        <ele>511.621264</ele>
        <time>2025-05-18T16:20:40.537Z</time>
      </trkpt>
      <trkpt lat="48.215798" lon="10.286131">
        <ele>511.865560</ele>
        <time>2025-05-18T16:21:06.510Z</time>
      </trkpt>
      <trkpt lat="48.215043" lon="10.284868">
        <ele>512.075718</ele>
        <time>2025-05-18T16:21:30.613Z</time>
      </trkpt>
      <trkpt lat="48.214696" lon="10.284434">
        <ele>512.159681</ele>
        <time>2025-05-18T16:21:40.234Z</time>
      </trkpt>
      <trkpt lat="48.214056" lon="10.283782">
        <ele>512.611961</ele>
        <time>2025-05-18T16:21:57.039Z</time>
      </trkpt>
      <trkpt lat="48.213524" lon="10.283335">
        <ele>513.009610</ele>
        <time>2025-05-18T16:22:10.587Z</time>
      </trkpt>
      <trkpt lat="48.212652" lon="10.282718">
        <ele>513.662573</ele>
        <time>2025-05-18T16:22:32.269Z</time>
      </trkpt>
      <trkpt lat="48.212266" lon="10.282389">
        <ele>513.976695</ele>
        <time>2025-05-18T16:22:42.299Z</time>
      </trkpt>
      <trkpt lat="48.211545" lon="10.281560">
        <ele>514.619429</ele>
        <time>2025-05-18T16:23:02.236Z</time>
      </trkpt>
      <trkpt lat="48.211441" lon="10.281495">
        <ele>514.638714</ele>
        <time>2025-05-18T16:23:04.658Z</time>
      </trkpt>
      <trkpt lat="48.211182" lon="10.279881">
        <ele>514.771974</ele>
        <time>2025-05-18T16:23:28.091Z</time>
      </trkpt>
      <trkpt lat="48.210847" lon="10.277792">
        <ele>514.802010</ele>
        <time>2025-05-18T16:23:58.503Z</time>
      </trkpt>
      <trkpt lat="48.210811" lon="10.277226">
        <ele>514.783585</ele>
        <time>2025-05-18T16:24:06.414Z</time>
      </trkpt>
      <trkpt lat="48.210813" lon="10.277002">
        <ele>514.776326</ele>
        <time>2025-05-18T16:24:09.515Z</time>
      </trkpt>
      <trkpt lat="48.210874" lon="10.276456">
        <ele>514.758386</ele>
        <time>2025-05-18T16:24:17.126Z</time>
      </trkpt>
      <trkpt lat="48.210967" lon="10.276050">
        <ele>514.708879</ele>
        <time>2025-05-18T16:24:22.971Z</time>
      </trkpt>
      <trkpt lat="48.211108" lon="10.275637">
        <ele>514.645342</ele>
        <time>2025-05-18T16:24:29.289Z</time>
      </trkpt>
      <trkpt lat="48.211697" lon="10.274291">
        <ele>514.424867</ele>
        <time>2025-05-18T16:24:51.588Z</time>
      </trkpt>
      <trkpt lat="48.212104" lon="10.273382">
        <ele>514.410616</ele>
        <time>2025-05-18T16:25:06.829Z</time>
      </trkpt>
      <trkpt lat="48.212169" lon="10.273166">
        <ele>514.417825</ele>
        <time>2025-05-18T16:25:10.130Z</time>
      </trkpt>
      <trkpt lat="48.212016" lon="10.273167">
        <ele>514.424808</ele>
        <time>2025-05-18T16:25:13.349Z</time>
      </trkpt>
      <trkpt lat="48.211202" lon="10.272874">
        <ele>514.463015</ele>
        <time>2025-05-18T16:25:31.130Z</time>
      </trkpt>
      <trkpt lat="48.209328" lon="10.272274">
        <ele>514.930113</ele>
        <time>2025-05-18T16:26:12.686Z</time>
      </trkpt>
      <trkpt lat="48.208738" lon="10.271912">
        <ele>515.074574</ele>
        <time>2025-05-18T16:26:26.123Z</time>
      </trkpt>
      <trkpt lat="48.208450" lon="10.271840">
        <ele>515.140744</ele>
        <time>2025-05-18T16:26:32.283Z</time>
      </trkpt>
      <trkpt lat="48.208159" lon="10.271813">
        <ele>515.206821</ele>
        <time>2025-05-18T16:26:38.469Z</time>
      </trkpt>
      <trkpt lat="48.207924" lon="10.271838">
        <ele>515.260214</ele>
        <time>2025-05-18T16:26:43.509Z</time>
      </trkpt>
      <trkpt lat="48.207677" lon="10.271759">
        <ele>515.317450</ele>
        <time>2025-05-18T16:26:49.009Z</time>
      </trkpt>
      <trkpt lat="48.207147" lon="10.271468">
        <ele>515.628957</ele>
        <time>2025-05-18T16:27:01.478Z</time>
      </trkpt>
      <trkpt lat="48.206961" lon="10.271433">
        <ele>515.742833</ele>
        <time>2025-05-18T16:27:05.691Z</time>
      </trkpt>
      <trkpt lat="48.205689" lon="10.271941">
        <ele>516.391178</ele>
        <time>2025-05-18T16:27:34.950Z</time>
      </trkpt>
      <trkpt lat="48.205629" lon="10.271670">
        <ele>516.353000</ele>
        <time>2025-05-18T16:27:38.922Z</time>
      </trkpt>
      <trkpt lat="48.205559" lon="10.271574">
        <ele>516.333976</ele>
        <time>2025-05-18T16:27:40.895Z</time>
      </trkpt>
      <trkpt lat="48.205119" lon="10.271365">
        <ele>516.241392</ele>
        <time>2025-05-18T16:27:50.198Z</time>
      </trkpt>
      <trkpt lat="48.204920" lon="10.271235">
        <ele>516.197851</ele>
        <time>2025-05-18T16:27:54.462Z</time>
      </trkpt>
      <trkpt lat="48.203993" lon="10.270514">
        <ele>516.201522</ele>
        <time>2025-05-18T16:28:15.599Z</time>
      </trkpt>
      <trkpt lat="48.203452" lon="10.270229">
        <ele>516.394780</ele>
        <time>2025-05-18T16:28:28.122Z</time>
      </trkpt>
      <trkpt lat="48.202694" lon="10.269921">
        <ele>516.659470</ele>
        <time>2025-05-18T16:28:45.597Z</time>
      </trkpt>
      <trkpt lat="48.201391" lon="10.269469">
        <ele>517.309879</ele>
        <time>2025-05-18T16:29:15.064Z</time>
      </trkpt>
      <trkpt lat="48.200831" lon="10.269250">
        <ele>517.587435</ele>
        <time>2025-05-18T16:29:27.599Z</time>
      </trkpt>
      <trkpt lat="48.200199" lon="10.268883">
        <ele>517.858073</ele>
        <time>2025-05-18T16:29:42.187Z</time>
      </trkpt>
      <trkpt lat="48.199133" lon="10.268014">
        <ele>518.361449</ele>
        <time>2025-05-18T16:30:08.688Z</time>
      </trkpt>
      <trkpt lat="48.198619" lon="10.267678">
        <ele>518.649076</ele>
        <time>2025-05-18T16:30:21.075Z</time>
      </trkpt>
      <trkpt lat="48.198192" lon="10.267484">
        <ele>518.877953</ele>
        <time>2025-05-18T16:30:30.915Z</time>
      </trkpt>
      <trkpt lat="48.197749" lon="10.267353">
        <ele>519.109586</ele>
        <time>2025-05-18T16:30:40.829Z</time>
      </trkpt>
      <trkpt lat="48.196837" lon="10.267229">
        <ele>519.343702</ele>
        <time>2025-05-18T16:31:00.416Z</time>
      </trkpt>
      <trkpt lat="48.196188" lon="10.267015">
        <ele>519.473423</ele>
        <time>2025-05-18T16:31:14.562Z</time>
      </trkpt>
      <trkpt lat="48.195033" lon="10.266344">
        <ele>519.899407</ele>
        <time>2025-05-18T16:31:41.410Z</time>
      </trkpt>
      <trkpt lat="48.194560" lon="10.266100">
        <ele>520.105951</ele>
        <time>2025-05-18T16:31:52.338Z</time>
      </trkpt>
      <trkpt lat="48.193934" lon="10.265704">
        <ele>520.390352</ele>
        <time>2025-05-18T16:32:07.245Z</time>
      </trkpt>
      <trkpt lat="48.192695" lon="10.265035">
        <ele>520.956510</ele>
        <time>2025-05-18T16:32:35.986Z</time>
      </trkpt>
      <trkpt lat="48.191520" lon="10.264404">
        <ele>521.359408</ele>
        <time>2025-05-18T16:33:02.982Z</time>
      </trkpt>
      <trkpt lat="48.189969" lon="10.263641">
        <ele>521.805133</ele>
        <time>2025-05-18T16:33:38.222Z</time>
      </trkpt>
      <trkpt lat="48.189352" lon="10.263304">
        <ele>521.970194</ele>
        <time>2025-05-18T16:33:52.305Z</time>
      </trkpt>
      <trkpt lat="48.188870" lon="10.262931">
        <ele>522.113878</ele>
        <time>2025-05-18T16:34:03.947Z</time>
      </trkpt>
      <trkpt lat="48.188442" lon="10.262505">
        <ele>522.259613</ele>
        <time>2025-05-18T16:34:15.043Z</time>
      </trkpt>
      <trkpt lat="48.187892" lon="10.261728">
        <ele>522.473976</ele>
        <time>2025-05-18T16:34:31.419Z</time>
      </trkpt>
      <trkpt lat="48.187662" lon="10.261296">
        <ele>522.582401</ele>
        <time>2025-05-18T16:34:39.391Z</time>
      </trkpt>
      <trkpt lat="48.187494" lon="10.260990">
        <ele>522.672749</ele>
        <time>2025-05-18T16:34:45.090Z</time>
      </trkpt>
      <trkpt lat="48.187210" lon="10.260565">
        <ele>522.809896</ele>
        <time>2025-05-18T16:34:53.683Z</time>
      </trkpt>
      <trkpt lat="48.186875" lon="10.260138">
        <ele>522.960188</ele>
        <time>2025-05-18T16:35:03.217Z</time>
      </trkpt>
      <trkpt lat="48.186486" lon="10.259734">
        <ele>523.121941</ele>
        <time>2025-05-18T16:35:13.512Z</time>
      </trkpt>
      <trkpt lat="48.186009" lon="10.259386">
        <ele>523.440898</ele>
        <time>2025-05-18T16:35:25.106Z</time>
      </trkpt>
      <trkpt lat="48.185737" lon="10.259227">
        <ele>523.647473</ele>
        <time>2025-05-18T16:35:31.583Z</time>
      </trkpt>
      <trkpt lat="48.185343" lon="10.259078">
        <ele>523.935002</ele>
        <time>2025-05-18T16:35:40.578Z</time>
      </trkpt>
      <trkpt lat="48.184999" lon="10.258982">
        <ele>524.182602</ele>
        <time>2025-05-18T16:35:48.366Z</time>
      </trkpt>
      <trkpt lat="48.184835" lon="10.258946">
        <ele>524.299889</ele>
        <time>2025-05-18T16:35:52.073Z</time>
      </trkpt>
      <trkpt lat="48.184607" lon="10.258896">
        <ele>524.458567</ele>
        <time>2025-05-18T16:35:57.290Z</time>
      </trkpt>
      <trkpt lat="48.184385" lon="10.258847">
        <ele>524.572636</ele>
        <time>2025-05-18T16:36:02.346Z</time>
      </trkpt>
      <trkpt lat="48.184114" lon="10.258894">
        <ele>524.711317</ele>
        <time>2025-05-18T16:36:08.464Z</time>
      </trkpt>
      <trkpt lat="48.183980" lon="10.259027">
        <ele>524.793001</ele>
        <time>2025-05-18T16:36:12.050Z</time>
      </trkpt>
      <trkpt lat="48.183936" lon="10.259070">
        <ele>524.819697</ele>
        <time>2025-05-18T16:36:13.239Z</time>
      </trkpt>
      <trkpt lat="48.183792" lon="10.259213">
        <ele>524.907491</ele>
        <time>2025-05-18T16:36:17.063Z</time>
      </trkpt>
      <trkpt lat="48.183642" lon="10.259240">
        <ele>524.984290</ele>
        <time>2025-05-18T16:36:20.378Z</time>
      </trkpt>
      <trkpt lat="48.183738" lon="10.258783">
        <ele>525.146691</ele>
        <time>2025-05-18T16:36:27.353Z</time>
      </trkpt>
      <trkpt lat="48.183807" lon="10.258429">
        <ele>525.271697</ele>
        <time>2025-05-18T16:36:32.672Z</time>
      </trkpt>
      <trkpt lat="48.183817" lon="10.258351">
        <ele>525.298619</ele>
        <time>2025-05-18T16:36:33.817Z</time>
      </trkpt>
      <trkpt lat="48.183864" lon="10.258052">
        <ele>525.319212</ele>
        <time>2025-05-18T16:36:38.109Z</time>
      </trkpt>
      <trkpt lat="48.183905" lon="10.257801">
        <ele>525.228332</ele>
        <time>2025-05-18T16:36:41.601Z</time>
      </trkpt>
      <trkpt lat="48.183927" lon="10.257662">
        <ele>525.178092</ele>
        <time>2025-05-18T16:36:43.499Z</time>
      </trkpt>
      <trkpt lat="48.183948" lon="10.257552">
        <ele>525.137853</ele>
        <time>2025-05-18T16:36:45.008Z</time>
      </trkpt>
      <trkpt lat="48.183976" lon="10.257406">
        <ele>525.084427</ele>
        <time>2025-05-18T16:36:46.992Z</time>
      </trkpt>
      <trkpt lat="48.183982" lon="10.257373">
        <ele>525.072398</ele>
        <time>2025-05-18T16:36:47.434Z</time>
      </trkpt>
      <trkpt lat="48.184004" lon="10.257257">
        <ele>525.029986</ele>
        <time>2025-05-18T16:36:49.006Z</time>
      </trkpt>
      <trkpt lat="48.184055" lon="10.257033">
        <ele>524.946746</ele>
        <time>2025-05-18T16:36:52.113Z</time>
      </trkpt>
      <trkpt lat="48.184111" lon="10.256837">
        <ele>524.871756</ele>
        <time>2025-05-18T16:36:54.902Z</time>
      </trkpt>
      <trkpt lat="48.184296" lon="10.256455">
        <ele>524.705720</ele>
        <time>2025-05-18T16:37:01.147Z</time>
      </trkpt>
      <trkpt lat="48.184380" lon="10.256316">
        <ele>524.639747</ele>
        <time>2025-05-18T16:37:03.644Z</time>
      </trkpt>
      <trkpt lat="48.184233" lon="10.255688">
        <ele>524.411327</ele>
        <time>2025-05-18T16:37:12.511Z</time>
      </trkpt>
      <trkpt lat="48.184116" lon="10.254973">
        <ele>524.350625</ele>
        <time>2025-05-18T16:37:22.543Z</time>
      </trkpt>
      <trkpt lat="48.184090" lon="10.254344">
        <ele>524.298663</ele>
        <time>2025-05-18T16:37:31.387Z</time>
      </trkpt>
      <trkpt lat="48.184115" lon="10.253993">
        <ele>524.269557</ele>
        <time>2025-05-18T16:37:36.391Z</time>
      </trkpt>
      <trkpt lat="48.184160" lon="10.253604">
        <ele>524.237004</ele>
        <time>2025-05-18T16:37:42.001Z</time>
      </trkpt>
      <trkpt lat="48.184322" lon="10.252788">
        <ele>524.192453</ele>
        <time>2025-05-18T16:37:54.003Z</time>
      </trkpt>
      <trkpt lat="48.184432" lon="10.251962">
        <ele>524.197777</ele>
        <time>2025-05-18T16:38:05.727Z</time>
      </trkpt>
      <trkpt lat="48.184470" lon="10.251360">
        <ele>524.201599</ele>
        <time>2025-05-18T16:38:14.135Z</time>
      </trkpt>
      <trkpt lat="48.184242" lon="10.251158">
        <ele>524.204109</ele>
        <time>2025-05-18T16:38:19.916Z</time>
      </trkpt>
      <trkpt lat="48.183032" lon="10.250379">
        <ele>524.573456</ele>
        <time>2025-05-18T16:38:49.249Z</time>
      </trkpt>
      <trkpt lat="48.182380" lon="10.250035">
        <ele>524.842311</ele>
        <time>2025-05-18T16:39:05.008Z</time>
      </trkpt>
      <trkpt lat="48.181752" lon="10.249772">
        <ele>525.158662</ele>
        <time>2025-05-18T16:39:19.964Z</time>
      </trkpt>
      <trkpt lat="48.180772" lon="10.249497">
        <ele>525.675452</ele>
        <time>2025-05-18T16:39:42.711Z</time>
      </trkpt>
      <trkpt lat="48.179497" lon="10.249341">
        <ele>525.978826</ele>
        <time>2025-05-18T16:40:11.331Z</time>
      </trkpt>
      <trkpt lat="48.179233" lon="10.250736">
        <ele>526.159522</ele>
        <time>2025-05-18T16:40:32.577Z</time>
      </trkpt>
      <trkpt lat="48.179132" lon="10.251129">
        <ele>526.287897</ele>
        <time>2025-05-18T16:40:38.691Z</time>
      </trkpt>
      <trkpt lat="48.179032" lon="10.251354">
        <ele>526.370315</ele>
        <time>2025-05-18T16:40:42.635Z</time>
      </trkpt>
      <trkpt lat="48.178916" lon="10.251543">
        <ele>526.448610</ele>
        <time>2025-05-18T16:40:46.378Z</time>
      </trkpt>
      <trkpt lat="48.178674" lon="10.251754">
        <ele>526.576567</ele>
        <time>2025-05-18T16:40:52.548Z</time>
      </trkpt>
      <trkpt lat="48.178305" lon="10.252062">
        <ele>526.769605</ele>
        <time>2025-05-18T16:41:02.122Z</time>
      </trkpt>
      <trkpt lat="48.177793" lon="10.252520">
        <ele>527.639583</ele>
        <time>2025-05-18T16:41:15.571Z</time>
      </trkpt>
      <trkpt lat="48.176878" lon="10.253421">
        <ele>530.627033</ele>
        <time>2025-05-18T16:41:42.236Z</time>
      </trkpt>
      <trkpt lat="48.176732" lon="10.253628">
        <ele>531.175390</ele>
        <time>2025-05-18T16:41:47.236Z</time>
      </trkpt>
      <trkpt lat="48.176517" lon="10.254049">
        <ele>532.021430</ele>
        <time>2025-05-18T16:41:56.001Z</time>
      </trkpt>
      <trkpt lat="48.176412" lon="10.253741">
        <ele>532.408997</ele>
        <time>2025-05-18T16:42:01.821Z</time>
      </trkpt>
      <trkpt lat="48.176333" lon="10.253507">
        <ele>532.702860</ele>
        <time>2025-05-18T16:42:06.171Z</time>
      </trkpt>
      <trkpt lat="48.176165" lon="10.253241">
        <ele>533.113346</ele>
        <time>2025-05-18T16:42:12.096Z</time>
      </trkpt>
      <trkpt lat="48.175747" lon="10.252789">
        <ele>533.979210</ele>
        <time>2025-05-18T16:42:23.964Z</time>
      </trkpt>
      <trkpt lat="48.175691" lon="10.252740">
        <ele>534.088146</ele>
        <time>2025-05-18T16:42:25.399Z</time>
      </trkpt>
      <trkpt lat="48.175522" lon="10.252590">
        <ele>534.418106</ele>
        <time>2025-05-18T16:42:29.694Z</time>
      </trkpt>
      <trkpt lat="48.175065" lon="10.252183">
        <ele>535.146733</ele>
        <time>2025-05-18T16:42:41.935Z</time>
      </trkpt>
      <trkpt lat="48.174842" lon="10.252021">
        <ele>535.413706</ele>
        <time>2025-05-18T16:42:47.669Z</time>
      </trkpt>
      <trkpt lat="48.174568" lon="10.251966">
        <ele>535.711552</ele>
        <time>2025-05-18T16:42:54.017Z</time>
      </trkpt>
      <trkpt lat="48.174361" lon="10.251944">
        <ele>535.935138</ele>
        <time>2025-05-18T16:42:58.839Z</time>
      </trkpt>
      <trkpt lat="48.174145" lon="10.251900">
        <ele>536.169998</ele>
        <time>2025-05-18T16:43:04.047Z</time>
      </trkpt>
      <trkpt lat="48.173998" lon="10.251808">
        <ele>536.341620</ele>
        <time>2025-05-18T16:43:07.913Z</time>
      </trkpt>
      <trkpt lat="48.173926" lon="10.251757">
        <ele>536.427413</ele>
        <time>2025-05-18T16:43:09.847Z</time>
      </trkpt>
      <trkpt lat="48.173791" lon="10.251659">
        <ele>536.589012</ele>
        <time>2025-05-18T16:43:13.449Z</time>
      </trkpt>
      <trkpt lat="48.173736" lon="10.251619">
        <ele>536.654872</ele>
        <time>2025-05-18T16:43:14.918Z</time>
      </trkpt>
      <trkpt lat="48.173534" lon="10.251474">
        <ele>536.761950</ele>
        <time>2025-05-18T16:43:20.188Z</time>
      </trkpt>
      <trkpt lat="48.173461" lon="10.251421">
        <ele>536.738099</ele>
        <time>2025-05-18T16:43:22.044Z</time>
      </trkpt>
      <trkpt lat="48.173422" lon="10.251388">
        <ele>536.724931</ele>
        <time>2025-05-18T16:43:23.049Z</time>
      </trkpt>
      <trkpt lat="48.173323" lon="10.251303">
        <ele>536.691383</ele>
        <time>2025-05-18T16:43:25.555Z</time>
      </trkpt>
      <trkpt lat="48.173164" lon="10.251167">
        <ele>536.637554</ele>
        <time>2025-05-18T16:43:29.407Z</time>
      </trkpt>
      <trkpt lat="48.173051" lon="10.251069">
        <ele>536.599166</ele>
        <time>2025-05-18T16:43:32.093Z</time>
      </trkpt>
      <trkpt lat="48.172029" lon="10.250208">
        <ele>536.256172</ele>
        <time>2025-05-18T16:43:56.142Z</time>
      </trkpt>
      <trkpt lat="48.171673" lon="10.249770">
        <ele>536.152657</ele>
        <time>2025-05-18T16:44:05.621Z</time>
      </trkpt>
      <trkpt lat="48.171577" lon="10.249606">
        <ele>536.119944</ele>
        <time>2025-05-18T16:44:08.732Z</time>
      </trkpt>
      <trkpt lat="48.171101" lon="10.248584">
        <ele>535.933068</ele>
        <time>2025-05-18T16:44:27.182Z</time>
      </trkpt>
      <trkpt lat="48.170933" lon="10.248128">
        <ele>535.855799</ele>
        <time>2025-05-18T16:44:34.780Z</time>
      </trkpt>
      <trkpt lat="48.170685" lon="10.247263">
        <ele>535.761250</ele>
        <time>2025-05-18T16:44:48.492Z</time>
      </trkpt>
      <trkpt lat="48.170504" lon="10.246564">
        <ele>535.685952</ele>
        <time>2025-05-18T16:44:59.301Z</time>
      </trkpt>
      <trkpt lat="48.170320" lon="10.244602">
        <ele>534.979344</ele>
        <time>2025-05-18T16:45:27.734Z</time>
      </trkpt>
      <trkpt lat="48.170150" lon="10.243599">
        <ele>534.346084</ele>
        <time>2025-05-18T16:45:41.812Z</time>
      </trkpt>
      <trkpt lat="48.170029" lon="10.243155">
        <ele>534.052586</ele>
        <time>2025-05-18T16:45:47.925Z</time>
      </trkpt>
      <trkpt lat="48.169578" lon="10.242423">
        <ele>533.041502</ele>
        <time>2025-05-18T16:46:00.240Z</time>
      </trkpt>
      <trkpt lat="48.169549" lon="10.242288">
        <ele>532.884155</ele>
        <time>2025-05-18T16:46:01.946Z</time>
      </trkpt>
      <trkpt lat="48.169551" lon="10.242108">
        <ele>532.684435</ele>
        <time>2025-05-18T16:46:04.127Z</time>
      </trkpt>
      <trkpt lat="48.169595" lon="10.241834">
        <ele>532.371772</ele>
        <time>2025-05-18T16:46:07.551Z</time>
      </trkpt>
      <trkpt lat="48.170028" lon="10.240575">
        <ele>530.917836</ele>
        <time>2025-05-18T16:46:25.472Z</time>
      </trkpt>
      <trkpt lat="48.170163" lon="10.240127">
        <ele>530.817304</ele>
        <time>2025-05-18T16:46:32.358Z</time>
      </trkpt>
      <trkpt lat="48.170233" lon="10.239369">
        <ele>530.660817</ele>
        <time>2025-05-18T16:46:43.367Z</time>
      </trkpt>
      <trkpt lat="48.170218" lon="10.238972">
        <ele>530.579503</ele>
        <time>2025-05-18T16:46:49.214Z</time>
      </trkpt>
      <trkpt lat="48.170149" lon="10.238755">
        <ele>530.530342</ele>
        <time>2025-05-18T16:46:52.779Z</time>
      </trkpt>
      <trkpt lat="48.170046" lon="10.238280">
        <ele>530.428201</ele>
        <time>2025-05-18T16:47:00.194Z</time>
      </trkpt>
      <trkpt lat="48.169981" lon="10.237794">
        <ele>530.414707</ele>
        <time>2025-05-18T16:47:07.515Z</time>
      </trkpt>
      <trkpt lat="48.169956" lon="10.237211">
        <ele>530.454156</ele>
        <time>2025-05-18T16:47:16.081Z</time>
      </trkpt>
      <trkpt lat="48.169969" lon="10.236596">
        <ele>530.495704</ele>
        <time>2025-05-18T16:47:25.082Z</time>
      </trkpt>
      <trkpt lat="48.169612" lon="10.236790">
        <ele>530.534150</ele>
        <time>2025-05-18T16:47:33.453Z</time>
      </trkpt>
      <trkpt lat="48.167725" lon="10.236731">
        <ele>530.856616</ele>
        <time>2025-05-18T16:48:15.434Z</time>
      </trkpt>
      <trkpt lat="48.167371" lon="10.236778">
        <ele>530.930278</ele>
        <time>2025-05-18T16:48:23.406Z</time>
      </trkpt>
      <trkpt lat="48.164899" lon="10.237326">
        <ele>531.795398</ele>
        <time>2025-05-18T16:49:19.626Z</time>
      </trkpt>
      <trkpt lat="48.164247" lon="10.237417">
        <ele>532.027504</ele>
        <time>2025-05-18T16:49:34.368Z</time>
      </trkpt>
      <trkpt lat="48.164065" lon="10.237625">
        <ele>532.108621</ele>
        <time>2025-05-18T16:49:39.522Z</time>
      </trkpt>
      <trkpt lat="48.163847" lon="10.237809">
        <ele>532.196203</ele>
        <time>2025-05-18T16:49:45.160Z</time>
      </trkpt>
      <trkpt lat="48.163605" lon="10.237948">
        <ele>532.284335</ele>
        <time>2025-05-18T16:49:51.015Z</time>
      </trkpt>
      <trkpt lat="48.163414" lon="10.238010">
        <ele>532.350795</ele>
        <time>2025-05-18T16:49:55.434Z</time>
      </trkpt>
      <trkpt lat="48.162941" lon="10.238036">
        <ele>532.511762</ele>
        <time>2025-05-18T16:50:06.140Z</time>
      </trkpt>
      <trkpt lat="48.160402" lon="10.238145">
        <ele>533.413538</ele>
        <time>2025-05-18T16:51:03.325Z</time>
      </trkpt>
      <trkpt lat="48.159958" lon="10.238270">
        <ele>533.631579</ele>
        <time>2025-05-18T16:51:13.455Z</time>
      </trkpt>
      <trkpt lat="48.159361" lon="10.238519">
        <ele>533.940671</ele>
        <time>2025-05-18T16:51:27.349Z</time>
      </trkpt>
      <trkpt lat="48.157851" lon="10.239423">
        <ele>535.259114</ele>
        <time>2025-05-18T16:52:04.660Z</time>
      </trkpt>
      <trkpt lat="48.157375" lon="10.239688">
        <ele>535.817122</ele>
        <time>2025-05-18T16:52:16.602Z</time>
      </trkpt>
      <trkpt lat="48.156623" lon="10.239883">
        <ele>536.770071</ele>
        <time>2025-05-18T16:52:34.703Z</time>
      </trkpt>
      <trkpt lat="48.155658" lon="10.240189">
        <ele>538.208704</ele>
        <time>2025-05-18T16:52:58.022Z</time>
      </trkpt>
      <trkpt lat="48.155571" lon="10.240277">
        <ele>538.361784</ele>
        <time>2025-05-18T16:53:00.498Z</time>
      </trkpt>
      <trkpt lat="48.155430" lon="10.240351">
        <ele>538.579677</ele>
        <time>2025-05-18T16:53:04.017Z</time>
      </trkpt>
      <trkpt lat="48.155223" lon="10.240613">
        <ele>538.962806</ele>
        <time>2025-05-18T16:53:10.415Z</time>
      </trkpt>
      <trkpt lat="48.154397" lon="10.241519">
        <ele>540.055574</ele>
        <time>2025-05-18T16:53:34.379Z</time>
      </trkpt>
      <trkpt lat="48.154225" lon="10.242049">
        <ele>540.475370</ele>
        <time>2025-05-18T16:53:43.501Z</time>
      </trkpt>
      <trkpt lat="48.153896" lon="10.242425">
        <ele>540.898247</ele>
        <time>2025-05-18T16:53:53.023Z</time>
      </trkpt>
      <trkpt lat="48.153600" lon="10.242873">
        <ele>541.220676</ele>
        <time>2025-05-18T16:54:02.635Z</time>
      </trkpt>
      <trkpt lat="48.153484" lon="10.243178">
        <ele>541.400208</ele>
        <time>2025-05-18T16:54:07.990Z</time>
      </trkpt>
      <trkpt lat="48.153357" lon="10.243891">
        <ele>541.777585</ele>
        <time>2025-05-18T16:54:19.305Z</time>
      </trkpt>
      <trkpt lat="48.153205" lon="10.244249">
        <ele>541.994585</ele>
        <time>2025-05-18T16:54:25.863Z</time>
      </trkpt>
      <trkpt lat="48.152801" lon="10.244987">
        <ele>542.256000</ele>
        <time>2025-05-18T16:54:40.615Z</time>
      </trkpt>
      <trkpt lat="48.152613" lon="10.245212">
        <ele>542.275625</ele>
        <time>2025-05-18T16:54:46.137Z</time>
      </trkpt>
      <trkpt lat="48.152141" lon="10.245569">
        <ele>542.318755</ele>
        <time>2025-05-18T16:54:57.696Z</time>
      </trkpt>
      <trkpt lat="48.152007" lon="10.245649">
        <ele>542.330522</ele>
        <time>2025-05-18T16:55:00.788Z</time>
      </trkpt>
      <trkpt lat="48.151846" lon="10.245633">
        <ele>542.343685</ele>
        <time>2025-05-18T16:55:04.216Z</time>
      </trkpt>
      <trkpt lat="48.151081" lon="10.245556">
        <ele>542.386641</ele>
        <time>2025-05-18T16:55:20.398Z</time>
      </trkpt>
      <trkpt lat="48.150772" lon="10.245696">
        <ele>542.396066</ele>
        <time>2025-05-18T16:55:27.098Z</time>
      </trkpt>
      <trkpt lat="48.150575" lon="10.245806">
        <ele>542.402203</ele>
        <time>2025-05-18T16:55:31.525Z</time>
      </trkpt>
      <trkpt lat="48.150343" lon="10.245962">
        <ele>542.409627</ele>
        <time>2025-05-18T16:55:37.070Z</time>
      </trkpt>
      <trkpt lat="48.150294" lon="10.245993">
        <ele>542.411180</ele>
        <time>2025-05-18T16:55:38.288Z</time>
      </trkpt>
      <trkpt lat="48.149961" lon="10.246212">
        <ele>542.421796</ele>
        <time>2025-05-18T16:55:46.639Z</time>
      </trkpt>
      <trkpt lat="48.149907" lon="10.246247">
        <ele>542.423514</ele>
        <time>2025-05-18T16:55:47.997Z</time>
      </trkpt>
      <trkpt lat="48.149647" lon="10.246415">
        <ele>542.620290</ele>
        <time>2025-05-18T16:55:54.551Z</time>
      </trkpt>
      <trkpt lat="48.149187" lon="10.246733">
        <ele>543.421179</ele>
        <time>2025-05-18T16:56:06.252Z</time>
      </trkpt>
      <trkpt lat="48.149173" lon="10.246743">
        <ele>543.445698</ele>
        <time>2025-05-18T16:56:06.614Z</time>
      </trkpt>
      <trkpt lat="48.149101" lon="10.246793">
        <ele>543.571154</ele>
        <time>2025-05-18T16:56:08.505Z</time>
      </trkpt>
      <trkpt lat="48.148917" lon="10.246920">
        <ele>543.891422</ele>
        <time>2025-05-18T16:56:13.383Z</time>
      </trkpt>
      <trkpt lat="48.148877" lon="10.246948">
        <ele>543.961219</ele>
        <time>2025-05-18T16:56:14.460Z</time>
      </trkpt>
      <trkpt lat="48.148430" lon="10.247257">
        <ele>544.739470</ele>
        <time>2025-05-18T16:56:26.525Z</time>
      </trkpt>
      <trkpt lat="48.148367" lon="10.247300">
        <ele>544.848915</ele>
        <time>2025-05-18T16:56:28.187Z</time>
      </trkpt>
      <trkpt lat="48.148342" lon="10.247320">
        <ele>544.893718</ele>
        <time>2025-05-18T16:56:28.875Z</time>
      </trkpt>
      <trkpt lat="48.148134" lon="10.247487">
        <ele>545.266777</ele>
        <time>2025-05-18T16:56:34.378Z</time>
      </trkpt>
      <trkpt lat="48.147780" lon="10.247785">
        <ele>545.735692</ele>
        <time>2025-05-18T16:56:43.915Z</time>
      </trkpt>
      <trkpt lat="48.147551" lon="10.247991">
        <ele>546.043236</ele>
        <time>2025-05-18T16:56:50.240Z</time>
      </trkpt>
      <trkpt lat="48.147375" lon="10.248293">
        <ele>546.351309</ele>
        <time>2025-05-18T16:56:56.623Z</time>
      </trkpt>
      <trkpt lat="48.147338" lon="10.248357">
        <ele>546.416371</ele>
        <time>2025-05-18T16:56:57.963Z</time>
      </trkpt>
      <trkpt lat="48.147233" lon="10.248538">
        <ele>546.600645</ele>
        <time>2025-05-18T16:57:01.706Z</time>
      </trkpt>
      <trkpt lat="48.147045" lon="10.248845">
        <ele>546.920799</ele>
        <time>2025-05-18T16:57:08.055Z</time>
      </trkpt>
      <trkpt lat="48.146965" lon="10.248964">
        <ele>547.050588</ele>
        <time>2025-05-18T16:57:10.529Z</time>
      </trkpt>
      <trkpt lat="48.146904" lon="10.249056">
        <ele>547.150238</ele>
        <time>2025-05-18T16:57:12.390Z</time>
      </trkpt>
      <trkpt lat="48.146812" lon="10.249194">
        <ele>547.300120</ele>
        <time>2025-05-18T16:57:15.275Z</time>
      </trkpt>
      <trkpt lat="48.146676" lon="10.249400">
        <ele>547.484499</ele>
        <time>2025-05-18T16:57:19.652Z</time>
      </trkpt>
      <trkpt lat="48.146545" lon="10.249709">
        <ele>547.705884</ele>
        <time>2025-05-18T16:57:25.354Z</time>
      </trkpt>
      <trkpt lat="48.146459" lon="10.249928">
        <ele>547.859551</ele>
        <time>2025-05-18T16:57:29.305Z</time>
      </trkpt>
      <trkpt lat="48.146401" lon="10.250172">
        <ele>548.016186</ele>
        <time>2025-05-18T16:57:33.199Z</time>
      </trkpt>
      <trkpt lat="48.146251" lon="10.250800">
        <ele>548.419548</ele>
        <time>2025-05-18T16:57:43.335Z</time>
      </trkpt>
      <trkpt lat="48.146237" lon="10.250845">
        <ele>548.449573</ele>
        <time>2025-05-18T16:57:44.112Z</time>
      </trkpt>
      <trkpt lat="48.146173" lon="10.251062">
        <ele>548.593044</ele>
        <time>2025-05-18T16:57:47.777Z</time>
      </trkpt>
      <trkpt lat="48.146124" lon="10.251223">
        <ele>548.700054</ele>
        <time>2025-05-18T16:57:50.530Z</time>
      </trkpt>
      <trkpt lat="48.145883" lon="10.251462">
        <ele>548.961963</ele>
        <time>2025-05-18T16:57:57.339Z</time>
      </trkpt>
      <trkpt lat="48.145821" lon="10.251525">
        <ele>549.054374</ele>
        <time>2025-05-18T16:57:59.145Z</time>
      </trkpt>
      <trkpt lat="48.145753" lon="10.251592">
        <ele>549.160028</ele>
        <time>2025-05-18T16:58:01.094Z</time>
      </trkpt>
      <trkpt lat="48.145661" lon="10.251743">
        <ele>549.337163</ele>
        <time>2025-05-18T16:58:04.426Z</time>
      </trkpt>
      <trkpt lat="48.145454" lon="10.252085">
        <ele>549.737159</ele>
        <time>2025-05-18T16:58:11.804Z</time>
      </trkpt>
      <trkpt lat="48.145176" lon="10.252459">
        <ele>550.222169</ele>
        <time>2025-05-18T16:58:20.422Z</time>
      </trkpt>
      <trkpt lat="48.145006" lon="10.252816">
        <ele>550.602110</ele>
        <time>2025-05-18T16:58:27.340Z</time>
      </trkpt>
      <trkpt lat="48.144954" lon="10.253007">
        <ele>550.780812</ele>
        <time>2025-05-18T16:58:30.610Z</time>
      </trkpt>
      <trkpt lat="48.144902" lon="10.253038">
        <ele>550.853468</ele>
        <time>2025-05-18T16:58:31.958Z</time>
      </trkpt>
      <trkpt lat="48.144513" lon="10.253253">
        <ele>551.252025</ele>
        <time>2025-05-18T16:58:41.736Z</time>
      </trkpt>
      <trkpt lat="48.144487" lon="10.253266">
        <ele>551.228023</ele>
        <time>2025-05-18T16:58:42.386Z</time>
      </trkpt>
      <trkpt lat="48.144389" lon="10.253335">
        <ele>551.133204</ele>
        <time>2025-05-18T16:58:44.866Z</time>
      </trkpt>
      <trkpt lat="48.144199" lon="10.253500">
        <ele>550.940902</ele>
        <time>2025-05-18T16:58:49.810Z</time>
      </trkpt>
      <trkpt lat="48.144100" lon="10.253661">
        <ele>550.812970</ele>
        <time>2025-05-18T16:58:52.777Z</time>
      </trkpt>
      <trkpt lat="48.144003" lon="10.253683">
        <ele>550.727059</ele>
        <time>2025-05-18T16:58:54.699Z</time>
      </trkpt>
      <trkpt lat="48.143719" lon="10.253878">
        <ele>550.453496</ele>
        <time>2025-05-18T16:59:00.587Z</time>
      </trkpt>
      <trkpt lat="48.143761" lon="10.253960">
        <ele>550.393092</ele>
        <time>2025-05-18T16:59:01.972Z</time>
      </trkpt>
      <trkpt lat="48.143685" lon="10.254036">
        <ele>550.313082</ele>
        <time>2025-05-18T16:59:03.728Z</time>
      </trkpt>
      <trkpt lat="48.143369" lon="10.254077">
        <ele>550.035321</ele>
        <time>2025-05-18T16:59:09.852Z</time>
      </trkpt>
      <trkpt lat="48.143321" lon="10.254039">
        <ele>549.987782</ele>
        <time>2025-05-18T16:59:10.890Z</time>
      </trkpt>
      <trkpt lat="48.143266" lon="10.253890">
        <ele>549.888281</ele>
        <time>2025-05-18T16:59:12.987Z</time>
      </trkpt>
      <trkpt lat="48.142921" lon="10.253960">
        <ele>549.301667</ele>
        <time>2025-05-18T16:59:19.471Z</time>
      </trkpt>
      <trkpt lat="48.142776" lon="10.253985">
        <ele>548.933471</ele>
        <time>2025-05-18T16:59:22.035Z</time>
      </trkpt>
      <trkpt lat="48.142581" lon="10.254034">
        <ele>548.434690</ele>
        <time>2025-05-18T16:59:25.417Z</time>
      </trkpt>
      <trkpt lat="48.142450" lon="10.254081">
        <ele>548.094886</ele>
        <time>2025-05-18T16:59:27.722Z</time>
      </trkpt>
      <trkpt lat="48.142375" lon="10.254131">
        <ele>547.887812</ele>
        <time>2025-05-18T16:59:29.139Z</time>
      </trkpt>
      <trkpt lat="48.142017" lon="10.254395">
        <ele>546.881291</ele>
        <time>2025-05-18T16:59:36.245Z</time>
      </trkpt>
      <trkpt lat="48.141961" lon="10.254231">
        <ele>546.571181</ele>
        <time>2025-05-18T16:59:38.301Z</time>
      </trkpt>
      <trkpt lat="48.141893" lon="10.254033">
        <ele>546.196329</ele>
        <time>2025-05-18T16:59:40.747Z</time>
      </trkpt>
      <trkpt lat="48.141887" lon="10.254014">
        <ele>546.160946</ele>
        <time>2025-05-18T16:59:40.981Z</time>
      </trkpt>
      <trkpt lat="48.141754" lon="10.253601">
        <ele>545.389006</ele>
        <time>2025-05-18T16:59:46.088Z</time>
      </trkpt>
      <trkpt lat="48.141743" lon="10.253565">
        <ele>545.322355</ele>
        <time>2025-05-18T16:59:46.545Z</time>
      </trkpt>
      <trkpt lat="48.141698" lon="10.253430">
        <ele>545.112829</ele>
        <time>2025-05-18T16:59:48.232Z</time>
      </trkpt>
      <trkpt lat="48.141548" lon="10.253012">
        <ele>544.592617</ele>
        <time>2025-05-18T16:59:53.627Z</time>
      </trkpt>
      <trkpt lat="48.141470" lon="10.252798">
        <ele>544.325344</ele>
        <time>2025-05-18T16:59:56.409Z</time>
      </trkpt>
      <trkpt lat="48.141437" lon="10.252660">
        <ele>544.164665</ele>
        <time>2025-05-18T16:59:58.131Z</time>
      </trkpt>
      <trkpt lat="48.141427" lon="10.252624">
        <ele>544.121923</ele>
        <time>2025-05-18T16:59:58.598Z</time>
      </trkpt>
      <trkpt lat="48.141336" lon="10.252250">
        <ele>543.685585</ele>
        <time>2025-05-18T17:00:03.421Z</time>
      </trkpt>
      <trkpt lat="48.141219" lon="10.252051">
        <ele>543.394876</ele>
        <time>2025-05-18T17:00:06.742Z</time>
      </trkpt>
      <trkpt lat="48.141204" lon="10.252012">
        <ele>543.345536</ele>
        <time>2025-05-18T17:00:07.317Z</time>
      </trkpt>
      <trkpt lat="48.141148" lon="10.251871">
        <ele>543.165685</ele>
        <time>2025-05-18T17:00:09.339Z</time>
      </trkpt>
      <trkpt lat="48.140953" lon="10.251368">
        <ele>542.528059</ele>
        <time>2025-05-18T17:00:16.720Z</time>
      </trkpt>
      <trkpt lat="48.140933" lon="10.251315">
        <ele>542.461320</ele>
        <time>2025-05-18T17:00:17.503Z</time>
      </trkpt>
      <trkpt lat="48.140861" lon="10.251125">
        <ele>542.239183</ele>
        <time>2025-05-18T17:00:20.385Z</time>
      </trkpt>
      <trkpt lat="48.140812" lon="10.250989">
        <ele>542.219543</ele>
        <time>2025-05-18T17:00:22.457Z</time>
      </trkpt>
      <trkpt lat="48.140785" lon="10.250916">
        <ele>542.208937</ele>
        <time>2025-05-18T17:00:23.573Z</time>
      </trkpt>
      <trkpt lat="48.140725" lon="10.250779">
        <ele>542.188114</ele>
        <time>2025-05-18T17:00:25.807Z</time>
      </trkpt>
      <trkpt lat="48.140632" lon="10.250582">
        <ele>542.157450</ele>
        <time>2025-05-18T17:00:29.105Z</time>
      </trkpt>
      <trkpt lat="48.140578" lon="10.250516">
        <ele>542.144180</ele>
        <time>2025-05-18T17:00:30.532Z</time>
      </trkpt>
      <trkpt lat="48.140307" lon="10.250232">
        <ele>542.081208</ele>
        <time>2025-05-18T17:00:37.406Z</time>
      </trkpt>
      <trkpt lat="48.140119" lon="10.250038">
        <ele>542.037741</ele>
        <time>2025-05-18T17:00:42.163Z</time>
      </trkpt>
      <trkpt lat="48.140015" lon="10.249853">
        <ele>542.007002</ele>
        <time>2025-05-18T17:00:45.529Z</time>
      </trkpt>
      <trkpt lat="48.139879" lon="10.249545">
        <ele>541.960070</ele>
        <time>2025-05-18T17:00:50.684Z</time>
      </trkpt>
      <trkpt lat="48.139851" lon="10.249443">
        <ele>541.946055</ele>
        <time>2025-05-18T17:00:52.233Z</time>
      </trkpt>
      <trkpt lat="48.139806" lon="10.249279">
        <ele>541.923522</ele>
        <time>2025-05-18T17:00:54.746Z</time>
      </trkpt>
      <trkpt lat="48.139756" lon="10.249030">
        <ele>541.920865</ele>
        <time>2025-05-18T17:00:58.485Z</time>
      </trkpt>
      <trkpt lat="48.139736" lon="10.248921">
        <ele>541.958027</ele>
        <time>2025-05-18T17:01:00.115Z</time>
      </trkpt>
      <trkpt lat="48.139695" lon="10.248708">
        <ele>542.030902</ele>
        <time>2025-05-18T17:01:03.338Z</time>
      </trkpt>
      <trkpt lat="48.139690" lon="10.248680">
        <ele>542.040430</ele>
        <time>2025-05-18T17:01:03.758Z</time>
      </trkpt>
      <trkpt lat="48.139642" lon="10.248422">
        <ele>542.128478</ele>
        <time>2025-05-18T17:01:07.678Z</time>
      </trkpt>
      <trkpt lat="48.139511" lon="10.247682">
        <ele>542.380156</ele>
        <time>2025-05-18T17:01:18.935Z</time>
      </trkpt>
      <trkpt lat="48.139579" lon="10.246928">
        <ele>542.630275</ele>
        <time>2025-05-18T17:01:30.505Z</time>
      </trkpt>
      <trkpt lat="48.139145" lon="10.246803">
        <ele>542.801243</ele>
        <time>2025-05-18T17:01:40.688Z</time>
      </trkpt>
      <trkpt lat="48.138964" lon="10.246396">
        <ele>542.842712</ele>
        <time>2025-05-18T17:01:48.111Z</time>
      </trkpt>
      <trkpt lat="48.138914" lon="10.246251">
        <ele>542.856550</ele>
        <time>2025-05-18T17:01:50.564Z</time>
      </trkpt>
      <trkpt lat="48.138721" lon="10.245745">
        <ele>542.905966</ele>
        <time>2025-05-18T17:01:59.161Z</time>
      </trkpt>
      <trkpt lat="48.138688" lon="10.245657">
        <ele>542.914525</ele>
        <time>2025-05-18T17:02:00.678Z</time>
      </trkpt>
      <trkpt lat="48.138628" lon="10.245500">
        <ele>542.929864</ele>
        <time>2025-05-18T17:02:03.310Z</time>
      </trkpt>
      <trkpt lat="48.138568" lon="10.245342">
        <ele>542.945278</ele>
        <time>2025-05-18T17:02:05.965Z</time>
      </trkpt>
      <trkpt lat="48.138442" lon="10.245045">
        <ele>542.975118</ele>
        <time>2025-05-18T17:02:11.054Z</time>
      </trkpt>
      <trkpt lat="48.138365" lon="10.244944">
        <ele>542.988119</ele>
        <time>2025-05-18T17:02:13.232Z</time>
      </trkpt>
      <trkpt lat="48.137828" lon="10.244637">
        <ele>543.121081</ele>
        <time>2025-05-18T17:02:25.427Z</time>
      </trkpt>
      <trkpt lat="48.137642" lon="10.244489">
        <ele>543.181514</ele>
        <time>2025-05-18T17:02:29.858Z</time>
      </trkpt>
      <trkpt lat="48.137377" lon="10.244238">
        <ele>543.271478</ele>
        <time>2025-05-18T17:02:36.636Z</time>
      </trkpt>
      <trkpt lat="48.137290" lon="10.244164">
        <ele>543.300186</ele>
        <time>2025-05-18T17:02:38.847Z</time>
      </trkpt>
      <trkpt lat="48.137159" lon="10.243997">
        <ele>543.349542</ele>
        <time>2025-05-18T17:02:42.708Z</time>
      </trkpt>
      <trkpt lat="48.137065" lon="10.243794">
        <ele>543.396859</ele>
        <time>2025-05-18T17:02:46.448Z</time>
      </trkpt>
      <trkpt lat="48.136943" lon="10.243521">
        <ele>543.459780</ele>
        <time>2025-05-18T17:02:51.508Z</time>
      </trkpt>
      <trkpt lat="48.136864" lon="10.243342">
        <ele>543.500878</ele>
        <time>2025-05-18T17:02:54.798Z</time>
      </trkpt>
      <trkpt lat="48.136748" lon="10.243079">
        <ele>543.745657</ele>
        <time>2025-05-18T17:02:59.715Z</time>
      </trkpt>
      <trkpt lat="48.136666" lon="10.242895">
        <ele>544.035456</ele>
        <time>2025-05-18T17:03:03.240Z</time>
      </trkpt>
      <trkpt lat="48.136451" lon="10.242435">
        <ele>544.771036</ele>
        <time>2025-05-18T17:03:12.370Z</time>
      </trkpt>
      <trkpt lat="48.136400" lon="10.242380">
        <ele>544.894360</ele>
        <time>2025-05-18T17:03:14.483Z</time>
      </trkpt>
      <trkpt lat="48.136227" lon="10.242255">
        <ele>545.271314</ele>
        <time>2025-05-18T17:03:19.104Z</time>
      </trkpt>
      <trkpt lat="48.136041" lon="10.242063">
        <ele>545.714608</ele>
        <time>2025-05-18T17:03:24.468Z</time>
      </trkpt>
      <trkpt lat="48.135790" lon="10.241911">
        <ele>546.245947</ele>
        <time>2025-05-18T17:03:30.843Z</time>
      </trkpt>
      <trkpt lat="48.135494" lon="10.241377">
        <ele>547.086745</ele>
        <time>2025-05-18T17:03:41.640Z</time>
      </trkpt>
      <trkpt lat="48.135041" lon="10.240653">
        <ele>547.453860</ele>
        <time>2025-05-18T17:03:56.766Z</time>
      </trkpt>
      <trkpt lat="48.131629" lon="10.237364">
        <ele>549.597669</ele>
        <time>2025-05-18T17:05:24.498Z</time>
      </trkpt>
      <trkpt lat="48.130672" lon="10.236274">
        <ele>550.336548</ele>
        <time>2025-05-18T17:05:51.227Z</time>
      </trkpt>
      <trkpt lat="48.130523" lon="10.236160">
        <ele>550.466827</ele>
        <time>2025-05-18T17:05:54.945Z</time>
      </trkpt>
      <trkpt lat="48.128336" lon="10.234648">
        <ele>552.251540</ele>
        <time>2025-05-18T17:06:48.547Z</time>
      </trkpt>
      <trkpt lat="48.126069" lon="10.232792">
        <ele>553.958953</ele>
        <time>2025-05-18T17:07:45.500Z</time>
      </trkpt>
      <trkpt lat="48.125524" lon="10.232278">
        <ele>554.443971</ele>
        <time>2025-05-18T17:07:59.821Z</time>
      </trkpt>
      <trkpt lat="48.124560" lon="10.231216">
        <ele>555.533561</ele>
        <time>2025-05-18T17:08:26.541Z</time>
      </trkpt>
      <trkpt lat="48.124161" lon="10.230719">
        <ele>556.181929</ele>
        <time>2025-05-18T17:08:38.310Z</time>
      </trkpt>
      <trkpt lat="48.123794" lon="10.230170">
        <ele>556.829966</ele>
        <time>2025-05-18T17:08:50.186Z</time>
      </trkpt>
      <trkpt lat="48.123570" lon="10.229522">
        <ele>557.494721</ele>
        <time>2025-05-18T17:09:01.324Z</time>
      </trkpt>
      <trkpt lat="48.123518" lon="10.229289">
        <ele>557.786783</ele>
        <time>2025-05-18T17:09:05.108Z</time>
      </trkpt>
      <trkpt lat="48.122916" lon="10.228791">
        <ele>559.011492</ele>
        <time>2025-05-18T17:09:21.193Z</time>
      </trkpt>
      <trkpt lat="48.122277" lon="10.228242">
        <ele>560.323368</ele>
        <time>2025-05-18T17:09:38.250Z</time>
      </trkpt>
      <trkpt lat="48.122136" lon="10.228125">
        <ele>560.578221</ele>
        <time>2025-05-18T17:09:42.017Z</time>
      </trkpt>
      <trkpt lat="48.122068" lon="10.228068">
        <ele>560.672534</ele>
        <time>2025-05-18T17:09:43.844Z</time>
      </trkpt>
      <trkpt lat="48.121759" lon="10.227812">
        <ele>561.099921</ele>
        <time>2025-05-18T17:09:52.044Z</time>
      </trkpt>
      <trkpt lat="48.121561" lon="10.227647">
        <ele>561.374157</ele>
        <time>2025-05-18T17:09:57.291Z</time>
      </trkpt>
      <trkpt lat="48.121311" lon="10.227469">
        <ele>561.709186</ele>
        <time>2025-05-18T17:10:03.599Z</time>
      </trkpt>
      <trkpt lat="48.121301" lon="10.227462">
        <ele>561.722546</ele>
        <time>2025-05-18T17:10:03.848Z</time>
      </trkpt>
      <trkpt lat="48.121144" lon="10.227352">
        <ele>561.932329</ele>
        <time>2025-05-18T17:10:07.730Z</time>
      </trkpt>
      <trkpt lat="48.120906" lon="10.227201">
        <ele>562.245166</ele>
        <time>2025-05-18T17:10:13.449Z</time>
      </trkpt>
      <trkpt lat="48.120825" lon="10.227149">
        <ele>562.351829</ele>
        <time>2025-05-18T17:10:15.416Z</time>
      </trkpt>
      <trkpt lat="48.120538" lon="10.226971">
        <ele>562.712874</ele>
        <time>2025-05-18T17:10:22.295Z</time>
      </trkpt>
      <trkpt lat="48.120532" lon="10.227266">
        <ele>562.864325</ele>
        <time>2025-05-18T17:10:26.614Z</time>
      </trkpt>
      <trkpt lat="48.120518" lon="10.227585">
        <ele>563.028374</ele>
        <time>2025-05-18T17:10:31.199Z</time>
      </trkpt>
      <trkpt lat="48.119991" lon="10.227618">
        <ele>563.433828</ele>
        <time>2025-05-18T17:10:42.601Z</time>
      </trkpt>
      <trkpt lat="48.119958" lon="10.227587">
        <ele>563.463770</ele>
        <time>2025-05-18T17:10:43.429Z</time>
      </trkpt>
      <trkpt lat="48.119902" lon="10.227535">
        <ele>563.514417</ele>
        <time>2025-05-18T17:10:44.838Z</time>
      </trkpt>
      <trkpt lat="48.119666" lon="10.227312">
        <ele>563.728906</ele>
        <time>2025-05-18T17:10:50.922Z</time>
      </trkpt>
      <trkpt lat="48.119586" lon="10.227237">
        <ele>563.801452</ele>
        <time>2025-05-18T17:10:53.027Z</time>
      </trkpt>
      <trkpt lat="48.119354" lon="10.227018">
        <ele>564.012245</ele>
        <time>2025-05-18T17:10:59.315Z</time>
      </trkpt>
      <trkpt lat="48.119305" lon="10.226983">
        <ele>564.053974</ele>
        <time>2025-05-18T17:11:00.581Z</time>
      </trkpt>
      <trkpt lat="48.118960" lon="10.226712">
        <ele>564.594368</ele>
        <time>2025-05-18T17:11:09.750Z</time>
      </trkpt>
      <trkpt lat="48.118699" lon="10.226506">
        <ele>565.013593</ele>
        <time>2025-05-18T17:11:16.682Z</time>
      </trkpt>
      <trkpt lat="48.118433" lon="10.226304">
        <ele>565.437388</ele>
        <time>2025-05-18T17:11:23.567Z</time>
      </trkpt>
      <trkpt lat="48.118346" lon="10.226238">
        <ele>565.575969</ele>
        <time>2025-05-18T17:11:25.789Z</time>
      </trkpt>
      <trkpt lat="48.118344" lon="10.226204">
        <ele>565.608349</ele>
        <time>2025-05-18T17:11:26.326Z</time>
      </trkpt>
      <trkpt lat="48.118313" lon="10.225741">
        <ele>566.049788</ele>
        <time>2025-05-18T17:11:33.418Z</time>
      </trkpt>
      <trkpt lat="48.118128" lon="10.225764">
        <ele>566.313583</ele>
        <time>2025-05-18T17:11:37.625Z</time>
      </trkpt>
      <trkpt lat="48.118054" lon="10.225773">
        <ele>566.419085</ele>
        <time>2025-05-18T17:11:39.313Z</time>
      </trkpt>
      <trkpt lat="48.117991" lon="10.225781">
        <ele>566.508931</ele>
        <time>2025-05-18T17:11:40.736Z</time>
      </trkpt>
      <trkpt lat="48.117517" lon="10.225801">
        <ele>566.694702</ele>
        <time>2025-05-18T17:11:51.134Z</time>
      </trkpt>
      <trkpt lat="48.117339" lon="10.225790">
        <ele>566.726165</ele>
        <time>2025-05-18T17:11:54.806Z</time>
      </trkpt>
      <trkpt lat="48.116561" lon="10.225762">
        <ele>566.863609</ele>
        <time>2025-05-18T17:12:10.576Z</time>
      </trkpt>
      <trkpt lat="48.116277" lon="10.225764">
        <ele>566.913767</ele>
        <time>2025-05-18T17:12:16.732Z</time>
      </trkpt>
      <trkpt lat="48.115724" lon="10.225846">
        <ele>567.226012</ele>
        <time>2025-05-18T17:12:29.003Z</time>
      </trkpt>
      <trkpt lat="48.114723" lon="10.225747">
        <ele>567.954412</ele>
        <time>2025-05-18T17:12:51.585Z</time>
      </trkpt>
      <trkpt lat="48.114359" lon="10.225670">
        <ele>568.221332</ele>
        <time>2025-05-18T17:12:59.761Z</time>
      </trkpt>
      <trkpt lat="48.114058" lon="10.225605">
        <ele>568.238851</ele>
        <time>2025-05-18T17:13:06.365Z</time>
      </trkpt>
      <trkpt lat="48.113856" lon="10.225535">
        <ele>568.230879</ele>
        <time>2025-05-18T17:13:10.743Z</time>
      </trkpt>
      <trkpt lat="48.113528" lon="10.225319">
        <ele>568.217103</ele>
        <time>2025-05-18T17:13:18.229Z</time>
      </trkpt>
      <trkpt lat="48.112932" lon="10.225098">
        <ele>568.193495</ele>
        <time>2025-05-18T17:13:30.731Z</time>
      </trkpt>
      <trkpt lat="48.112092" lon="10.224801">
        <ele>568.598145</ele>
        <time>2025-05-18T17:13:48.559Z</time>
      </trkpt>
      <trkpt lat="48.111817" lon="10.224673">
        <ele>568.834306</ele>
        <time>2025-05-18T17:13:55.030Z</time>
      </trkpt>
      <trkpt lat="48.111660" lon="10.224555">
        <ele>568.978360</ele>
        <time>2025-05-18T17:13:59.021Z</time>
      </trkpt>
      <trkpt lat="48.111365" lon="10.224206">
        <ele>569.286653</ele>
        <time>2025-05-18T17:14:07.624Z</time>
      </trkpt>
      <trkpt lat="48.111125" lon="10.223866">
        <ele>569.557571</ele>
        <time>2025-05-18T17:14:15.160Z</time>
      </trkpt>
      <trkpt lat="48.110920" lon="10.223655">
        <ele>569.854093</ele>
        <time>2025-05-18T17:14:20.874Z</time>
      </trkpt>
      <trkpt lat="48.110706" lon="10.223445">
        <ele>570.246012</ele>
        <time>2025-05-18T17:14:26.781Z</time>
      </trkpt>
      <trkpt lat="48.110099" lon="10.223011">
        <ele>571.276381</ele>
        <time>2025-05-18T17:14:42.182Z</time>
      </trkpt>
      <trkpt lat="48.109445" lon="10.222448">
        <ele>572.445463</ele>
        <time>2025-05-18T17:14:59.360Z</time>
      </trkpt>
      <trkpt lat="48.109066" lon="10.222030">
        <ele>573.616054</ele>
        <time>2025-05-18T17:15:10.447Z</time>
      </trkpt>
      <trkpt lat="48.108901" lon="10.221713">
        <ele>574.283518</ele>
        <time>2025-05-18T17:15:17.011Z</time>
      </trkpt>
      <trkpt lat="48.108824" lon="10.221428">
        <ele>574.794072</ele>
        <time>2025-05-18T17:15:22.043Z</time>
      </trkpt>
      <trkpt lat="48.108690" lon="10.220679">
        <ele>576.081756</ele>
        <time>2025-05-18T17:15:34.627Z</time>
      </trkpt>
      <trkpt lat="48.108530" lon="10.220478">
        <ele>576.601137</ele>
        <time>2025-05-18T17:15:39.643Z</time>
      </trkpt>
      <trkpt lat="48.108334" lon="10.220447">
        <ele>576.939027</ele>
        <time>2025-05-18T17:15:44.296Z</time>
      </trkpt>
      <trkpt lat="48.108019" lon="10.220500">
        <ele>577.149708</ele>
        <time>2025-05-18T17:15:51.652Z</time>
      </trkpt>
      <trkpt lat="48.107762" lon="10.220499">
        <ele>577.320523</ele>
        <time>2025-05-18T17:15:57.495Z</time>
      </trkpt>
      <trkpt lat="48.106255" lon="10.219829">
        <ele>578.145865</ele>
        <time>2025-05-18T17:16:30.213Z</time>
      </trkpt>
      <trkpt lat="48.105927" lon="10.219582">
        <ele>578.202875</ele>
        <time>2025-05-18T17:16:38.060Z</time>
      </trkpt>
      <trkpt lat="48.105468" lon="10.219153">
        <ele>578.286892</ele>
        <time>2025-05-18T17:16:49.664Z</time>
      </trkpt>
      <trkpt lat="48.104725" lon="10.218798">
        <ele>578.411217</ele>
        <time>2025-05-18T17:17:06.597Z</time>
      </trkpt>
      <trkpt lat="48.103358" lon="10.218238">
        <ele>578.645527</ele>
        <time>2025-05-18T17:17:36.767Z</time>
      </trkpt>
      <trkpt lat="48.102278" lon="10.217865">
        <ele>578.984242</ele>
        <time>2025-05-18T17:18:00.714Z</time>
      </trkpt>
      <trkpt lat="48.101197" lon="10.217431">
        <ele>579.645037</ele>
        <time>2025-05-18T17:18:25.012Z</time>
      </trkpt>
      <trkpt lat="48.100832" lon="10.217186">
        <ele>580.107242</ele>
        <time>2025-05-18T17:18:33.940Z</time>
      </trkpt>
      <trkpt lat="48.100352" lon="10.216794">
        <ele>580.739024</ele>
        <time>2025-05-18T17:18:46.311Z</time>
      </trkpt>
      <trkpt lat="48.099367" lon="10.216393">
        <ele>582.352775</ele>
        <time>2025-05-18T17:19:10.167Z</time>
      </trkpt>
      <trkpt lat="48.097809" lon="10.215883">
        <ele>584.887346</ele>
        <time>2025-05-18T17:19:47.639Z</time>
      </trkpt>
      <trkpt lat="48.097533" lon="10.215793">
        <ele>584.934250</ele>
        <time>2025-05-18T17:19:53.580Z</time>
      </trkpt>
      <trkpt lat="48.097292" lon="10.215707">
        <ele>584.975389</ele>
        <time>2025-05-18T17:19:58.387Z</time>
      </trkpt>
      <trkpt lat="48.096105" lon="10.215551">
        <ele>585.620661</ele>
        <time>2025-05-18T17:20:22.079Z</time>
      </trkpt>
      <trkpt lat="48.095499" lon="10.215828">
        <ele>586.833344</ele>
        <time>2025-05-18T17:20:36.682Z</time>
      </trkpt>
      <trkpt lat="48.095151" lon="10.215792">
        <ele>587.500978</ele>
        <time>2025-05-18T17:20:45.192Z</time>
      </trkpt>
      <trkpt lat="48.094785" lon="10.215676">
        <ele>588.216997</ele>
        <time>2025-05-18T17:20:54.562Z</time>
      </trkpt>
      <trkpt lat="48.094414" lon="10.215668">
        <ele>588.941499</ele>
        <time>2025-05-18T17:21:03.604Z</time>
      </trkpt>
      <trkpt lat="48.093671" lon="10.215950">
        <ele>590.468057</ele>
        <time>2025-05-18T17:21:21.651Z</time>
      </trkpt>
      <trkpt lat="48.093161" lon="10.215810">
        <ele>591.500700</ele>
        <time>2025-05-18T17:21:33.531Z</time>
      </trkpt>
      <trkpt lat="48.093063" lon="10.215753">
        <ele>591.710087</ele>
        <time>2025-05-18T17:21:35.923Z</time>
      </trkpt>
      <trkpt lat="48.092778" lon="10.215834">
        <ele>592.184893</ele>
        <time>2025-05-18T17:21:42.544Z</time>
      </trkpt>
      <trkpt lat="48.092606" lon="10.215959">
        <ele>592.269757</ele>
        <time>2025-05-18T17:21:46.882Z</time>
      </trkpt>
      <trkpt lat="48.092349" lon="10.216327">
        <ele>592.427606</ele>
        <time>2025-05-18T17:21:54.858Z</time>
      </trkpt>
      <trkpt lat="48.092188" lon="10.216502">
        <ele>592.515916</ele>
        <time>2025-05-18T17:21:59.217Z</time>
      </trkpt>
      <trkpt lat="48.091911" lon="10.216627">
        <ele>592.644332</ele>
        <time>2025-05-18T17:22:05.354Z</time>
      </trkpt>
      <trkpt lat="48.091505" lon="10.216741">
        <ele>592.827684</ele>
        <time>2025-05-18T17:22:13.688Z</time>
      </trkpt>
      <trkpt lat="48.090606" lon="10.217088">
        <ele>594.871588</ele>
        <time>2025-05-18T17:22:33.613Z</time>
      </trkpt>
      <trkpt lat="48.090470" lon="10.217122">
        <ele>595.281942</ele>
        <time>2025-05-18T17:22:36.788Z</time>
      </trkpt>
      <trkpt lat="48.090370" lon="10.217102">
        <ele>595.582196</ele>
        <time>2025-05-18T17:22:39.173Z</time>
      </trkpt>
      <trkpt lat="48.090178" lon="10.216855">
        <ele>596.335592</ele>
        <time>2025-05-18T17:22:45.300Z</time>
      </trkpt>
      <trkpt lat="48.089743" lon="10.216249">
        <ele>598.103997</ele>
        <time>2025-05-18T17:23:01.548Z</time>
      </trkpt>
      <trkpt lat="48.089595" lon="10.215827">
        <ele>600.261216</ele>
        <time>2025-05-18T17:23:11.468Z</time>
      </trkpt>
      <trkpt lat="48.089177" lon="10.213902">
        <ele>610.820522</ele>
        <time>2025-05-18T17:23:57.060Z</time>
      </trkpt>
      <trkpt lat="48.088934" lon="10.213415">
        <ele>613.467568</ele>
        <time>2025-05-18T17:24:10.026Z</time>
      </trkpt>
      <trkpt lat="48.088410" lon="10.212499">
        <ele>617.746290</ele>
        <time>2025-05-18T17:24:33.388Z</time>
      </trkpt>
      <trkpt lat="48.088060" lon="10.211789">
        <ele>620.876978</ele>
        <time>2025-05-18T17:24:48.720Z</time>
      </trkpt>
      <trkpt lat="48.087648" lon="10.211202">
        <ele>622.820741</ele>
        <time>2025-05-18T17:25:02.704Z</time>
      </trkpt>
      <trkpt lat="48.087289" lon="10.210429">
        <ele>624.354040</ele>
        <time>2025-05-18T17:25:17.843Z</time>
      </trkpt>
      <trkpt lat="48.086952" lon="10.209921">
        <ele>625.520054</ele>
        <time>2025-05-18T17:25:29.391Z</time>
      </trkpt>
      <trkpt lat="48.086292" lon="10.209272">
        <ele>626.748504</ele>
        <time>2025-05-18T17:25:48.638Z</time>
      </trkpt>
      <trkpt lat="48.085835" lon="10.208870">
        <ele>627.260058</ele>
        <time>2025-05-18T17:26:01.194Z</time>
      </trkpt>
      <trkpt lat="48.085691" lon="10.208662">
        <ele>627.453177</ele>
        <time>2025-05-18T17:26:05.828Z</time>
      </trkpt>
      <trkpt lat="48.085396" lon="10.208322">
        <ele>627.812484</ele>
        <time>2025-05-18T17:26:14.149Z</time>
      </trkpt>
      <trkpt lat="48.084918" lon="10.207730">
        <ele>626.700821</ele>
        <time>2025-05-18T17:26:26.463Z</time>
      </trkpt>
      <trkpt lat="48.084477" lon="10.207063">
        <ele>624.606693</ele>
        <time>2025-05-18T17:26:37.743Z</time>
      </trkpt>
      <trkpt lat="48.083959" lon="10.206030">
        <ele>621.180408</ele>
        <time>2025-05-18T17:26:51.587Z</time>
      </trkpt>
      <trkpt lat="48.083570" lon="10.205007">
        <ele>613.714441</ele>
        <time>2025-05-18T17:27:03.023Z</time>
      </trkpt>
      <trkpt lat="48.083200" lon="10.203922">
        <ele>605.987920</ele>
        <time>2025-05-18T17:27:14.401Z</time>
      </trkpt>
      <trkpt lat="48.082878" lon="10.203308">
        <ele>601.192604</ele>
        <time>2025-05-18T17:27:21.714Z</time>
      </trkpt>
      <trkpt lat="48.082715" lon="10.203116">
        <ele>599.301843</ele>
        <time>2025-05-18T17:27:24.644Z</time>
      </trkpt>
      <trkpt lat="48.082277" lon="10.202647">
        <ele>594.392721</ele>
        <time>2025-05-18T17:27:32.340Z</time>
      </trkpt>
      <trkpt lat="48.081843" lon="10.202279">
        <ele>589.845799</ele>
        <time>2025-05-18T17:27:39.422Z</time>
      </trkpt>
      <trkpt lat="48.081600" lon="10.202131">
        <ele>588.092489</ele>
        <time>2025-05-18T17:27:43.327Z</time>
      </trkpt>
      <trkpt lat="48.081457" lon="10.202043">
        <ele>587.506411</ele>
        <time>2025-05-18T17:27:45.600Z</time>
      </trkpt>
      <trkpt lat="48.081311" lon="10.201937">
        <ele>586.891317</ele>
        <time>2025-05-18T17:27:47.980Z</time>
      </trkpt>
      <trkpt lat="48.081276" lon="10.201875">
        <ele>586.685761</ele>
        <time>2025-05-18T17:27:48.786Z</time>
      </trkpt>
      <trkpt lat="48.081254" lon="10.201918">
        <ele>586.548603</ele>
        <time>2025-05-18T17:27:49.323Z</time>
      </trkpt>
      <trkpt lat="48.080744" lon="10.201536">
        <ele>584.386861</ele>
        <time>2025-05-18T17:27:58.077Z</time>
      </trkpt>
      <trkpt lat="48.080541" lon="10.201052">
        <ele>582.939636</ele>
        <time>2025-05-18T17:28:04.608Z</time>
      </trkpt>
      <trkpt lat="48.079947" lon="10.200666">
        <ele>582.083010</ele>
        <time>2025-05-18T17:28:17.745Z</time>
      </trkpt>
      <trkpt lat="48.079656" lon="10.200789">
        <ele>582.409400</ele>
        <time>2025-05-18T17:28:24.103Z</time>
      </trkpt>
      <trkpt lat="48.079358" lon="10.200791">
        <ele>582.731065</ele>
        <time>2025-05-18T17:28:30.924Z</time>
      </trkpt>
      <trkpt lat="48.078992" lon="10.200605">
        <ele>583.148277</ele>
        <time>2025-05-18T17:28:40.035Z</time>
      </trkpt>
      <trkpt lat="48.078691" lon="10.200461">
        <ele>583.489370</ele>
        <time>2025-05-18T17:28:47.630Z</time>
      </trkpt>
      <trkpt lat="48.078310" lon="10.200359">
        <ele>583.946978</ele>
        <time>2025-05-18T17:28:56.675Z</time>
      </trkpt>
      <trkpt lat="48.078068" lon="10.200351">
        <ele>584.252191</ele>
        <time>2025-05-18T17:29:02.233Z</time>
      </trkpt>
      <trkpt lat="48.077802" lon="10.200420">
        <ele>584.592591</ele>
        <time>2025-05-18T17:29:08.390Z</time>
      </trkpt>
      <trkpt lat="48.077394" lon="10.200382">
        <ele>585.108034</ele>
        <time>2025-05-18T17:29:17.585Z</time>
      </trkpt>
      <trkpt lat="48.077200" lon="10.200354">
        <ele>585.353784</ele>
        <time>2025-05-18T17:29:21.969Z</time>
      </trkpt>
      <trkpt lat="48.076816" lon="10.200315">
        <ele>585.839084</ele>
        <time>2025-05-18T17:29:30.723Z</time>
      </trkpt>
      <trkpt lat="48.076549" lon="10.200239">
        <ele>585.653780</ele>
        <time>2025-05-18T17:29:36.837Z</time>
      </trkpt>
      <trkpt lat="48.076169" lon="10.199989">
        <ele>585.042674</ele>
        <time>2025-05-18T17:29:45.536Z</time>
      </trkpt>
      <trkpt lat="48.075698" lon="10.199673">
        <ele>584.282777</ele>
        <time>2025-05-18T17:29:55.438Z</time>
      </trkpt>
      <trkpt lat="48.075280" lon="10.199283">
        <ele>583.557605</ele>
        <time>2025-05-18T17:30:03.766Z</time>
      </trkpt>
      <trkpt lat="48.075029" lon="10.199005">
        <ele>582.759845</ele>
        <time>2025-05-18T17:30:08.675Z</time>
      </trkpt>
      <trkpt lat="48.074711" lon="10.198517">
        <ele>580.910526</ele>
        <time>2025-05-18T17:30:15.507Z</time>
      </trkpt>
      <trkpt lat="48.074619" lon="10.198317">
        <ele>580.251775</ele>
        <time>2025-05-18T17:30:17.901Z</time>
      </trkpt>
      <trkpt lat="48.074537" lon="10.198100">
        <ele>579.575428</ele>
        <time>2025-05-18T17:30:20.377Z</time>
      </trkpt>
      <trkpt lat="48.074501" lon="10.197908">
        <ele>579.034413</ele>
        <time>2025-05-18T17:30:22.389Z</time>
      </trkpt>
      <trkpt lat="48.074511" lon="10.197537">
        <ele>578.027075</ele>
        <time>2025-05-18T17:30:26.214Z</time>
      </trkpt>
      <trkpt lat="48.074644" lon="10.196796">
        <ele>575.984029</ele>
        <time>2025-05-18T17:30:34.437Z</time>
      </trkpt>
      <trkpt lat="48.074758" lon="10.196540">
        <ele>575.923561</ele>
        <time>2025-05-18T17:30:38.064Z</time>
      </trkpt>
      <trkpt lat="48.074521" lon="10.196421">
        <ele>575.850024</ele>
        <time>2025-05-18T17:30:42.913Z</time>
      </trkpt>
      <trkpt lat="48.074264" lon="10.196154">
        <ele>575.757993</ele>
        <time>2025-05-18T17:30:49.272Z</time>
      </trkpt>
      <trkpt lat="48.074075" lon="10.196002">
        <ele>575.694877</ele>
        <time>2025-05-18T17:30:53.868Z</time>
      </trkpt>
      <trkpt lat="48.074016" lon="10.195955">
        <ele>575.675215</ele>
        <time>2025-05-18T17:30:55.341Z</time>
      </trkpt>
      <trkpt lat="48.073825" lon="10.195801">
        <ele>575.611394</ele>
        <time>2025-05-18T17:31:00.179Z</time>
      </trkpt>
      <trkpt lat="48.073544" lon="10.195575">
        <ele>575.517553</ele>
        <time>2025-05-18T17:31:07.390Z</time>
      </trkpt>
      <trkpt lat="48.073261" lon="10.195352">
        <ele>575.560655</ele>
        <time>2025-05-18T17:31:14.587Z</time>
      </trkpt>
      <trkpt lat="48.072438" lon="10.194788">
        <ele>576.354213</ele>
        <time>2025-05-18T17:31:34.990Z</time>
      </trkpt>
      <trkpt lat="48.072446" lon="10.194692">
        <ele>576.410885</ele>
        <time>2025-05-18T17:31:36.416Z</time>
      </trkpt>
      <trkpt lat="48.072196" lon="10.194591">
        <ele>576.637902</ele>
        <time>2025-05-18T17:31:42.095Z</time>
      </trkpt>
      <trkpt lat="48.071805" lon="10.194507">
        <ele>576.984200</ele>
        <time>2025-05-18T17:31:50.794Z</time>
      </trkpt>
      <trkpt lat="48.071697" lon="10.194435">
        <ele>577.070722</ele>
        <time>2025-05-18T17:31:53.416Z</time>
      </trkpt>
      <trkpt lat="48.071549" lon="10.194267">
        <ele>577.181010</ele>
        <time>2025-05-18T17:31:57.575Z</time>
      </trkpt>
      <trkpt lat="48.071377" lon="10.194009">
        <ele>577.325595</ele>
        <time>2025-05-18T17:32:03.072Z</time>
      </trkpt>
      <trkpt lat="48.071235" lon="10.193864">
        <ele>577.427659</ele>
        <time>2025-05-18T17:32:06.953Z</time>
      </trkpt>
      <trkpt lat="48.071072" lon="10.193783">
        <ele>577.529631</ele>
        <time>2025-05-18T17:32:10.857Z</time>
      </trkpt>
      <trkpt lat="48.070619" lon="10.193735">
        <ele>577.799259</ele>
        <time>2025-05-18T17:32:20.979Z</time>
      </trkpt>
      <trkpt lat="48.069867" lon="10.193699">
        <ele>577.942278</ele>
        <time>2025-05-18T17:32:37.043Z</time>
      </trkpt>
      <trkpt lat="48.070279" lon="10.191973">
        <ele>577.128376</ele>
        <time>2025-05-18T17:33:00.824Z</time>
      </trkpt>
      <trkpt lat="48.069609" lon="10.191705">
        <ele>576.911069</ele>
        <time>2025-05-18T17:33:14.485Z</time>
      </trkpt>
      <trkpt lat="48.069096" lon="10.191492">
        <ele>576.916529</ele>
        <time>2025-05-18T17:33:25.752Z</time>
      </trkpt>
      <trkpt lat="48.067694" lon="10.190905">
        <ele>577.272882</ele>
        <time>2025-05-18T17:33:57.414Z</time>
      </trkpt>
      <trkpt lat="48.066830" lon="10.190565">
        <ele>577.836089</ele>
        <time>2025-05-18T17:34:17.278Z</time>
      </trkpt>
      <trkpt lat="48.064618" lon="10.189669">
        <ele>579.546024</ele>
        <time>2025-05-18T17:35:08.270Z</time>
      </trkpt>
      <trkpt lat="48.062688" lon="10.189478">
        <ele>581.028788</ele>
        <time>2025-05-18T17:35:51.622Z</time>
      </trkpt>
      <trkpt lat="48.062672" lon="10.189275">
        <ele>581.060413</ele>
        <time>2025-05-18T17:35:54.590Z</time>
      </trkpt>
      <trkpt lat="48.062697" lon="10.188858">
        <ele>581.125189</ele>
        <time>2025-05-18T17:36:00.632Z</time>
      </trkpt>
      <trkpt lat="48.062683" lon="10.188690">
        <ele>581.151382</ele>
        <time>2025-05-18T17:36:03.065Z</time>
      </trkpt>
      <trkpt lat="48.062566" lon="10.188617">
        <ele>581.180728</ele>
        <time>2025-05-18T17:36:05.760Z</time>
      </trkpt>
      <trkpt lat="48.061368" lon="10.188450">
        <ele>581.474665</ele>
        <time>2025-05-18T17:36:30.808Z</time>
      </trkpt>
      <trkpt lat="48.060613" lon="10.188327">
        <ele>581.685426</ele>
        <time>2025-05-18T17:36:46.949Z</time>
      </trkpt>
      <trkpt lat="48.060213" lon="10.188247">
        <ele>581.797419</ele>
        <time>2025-05-18T17:36:55.714Z</time>
      </trkpt>
      <trkpt lat="48.058339" lon="10.187992">
        <ele>583.198401</ele>
        <time>2025-05-18T17:37:38.046Z</time>
      </trkpt>
      <trkpt lat="48.057589" lon="10.188022">
        <ele>583.240175</ele>
        <time>2025-05-18T17:37:55.034Z</time>
      </trkpt>
      <trkpt lat="48.057658" lon="10.186778">
        <ele>583.021111</ele>
        <time>2025-05-18T17:38:12.801Z</time>
      </trkpt>
      <trkpt lat="48.057783" lon="10.185808">
        <ele>582.675525</ele>
        <time>2025-05-18T17:38:26.199Z</time>
      </trkpt>
      <trkpt lat="48.057607" lon="10.185729">
        <ele>582.488703</ele>
        <time>2025-05-18T17:38:29.903Z</time>
      </trkpt>
      <trkpt lat="48.057034" lon="10.185244">
        <ele>581.819354</ele>
        <time>2025-05-18T17:38:43.231Z</time>
      </trkpt>
      <trkpt lat="48.056948" lon="10.185187">
        <ele>581.723721</ele>
        <time>2025-05-18T17:38:45.108Z</time>
      </trkpt>
      <trkpt lat="48.056343" lon="10.184817">
        <ele>581.051172</ele>
        <time>2025-05-18T17:38:58.336Z</time>
      </trkpt>
      <trkpt lat="48.056149" lon="10.184776">
        <ele>580.771199</ele>
        <time>2025-05-18T17:39:02.261Z</time>
      </trkpt>
      <trkpt lat="48.055798" lon="10.184701">
        <ele>580.264539</ele>
        <time>2025-05-18T17:39:09.242Z</time>
      </trkpt>
      <trkpt lat="48.055853" lon="10.184185">
        <ele>579.765462</ele>
        <time>2025-05-18T17:39:15.690Z</time>
      </trkpt>
      <trkpt lat="48.055849" lon="10.183737">
        <ele>579.337523</ele>
        <time>2025-05-18T17:39:21.125Z</time>
      </trkpt>
      <trkpt lat="48.055774" lon="10.182501">
        <ele>578.322943</ele>
        <time>2025-05-18T17:39:36.158Z</time>
      </trkpt>
      <trkpt lat="48.055750" lon="10.182202">
        <ele>578.173072</ele>
        <time>2025-05-18T17:39:39.810Z</time>
      </trkpt>
      <trkpt lat="48.055691" lon="10.181562">
        <ele>577.851549</ele>
        <time>2025-05-18T17:39:47.980Z</time>
      </trkpt>
      <trkpt lat="48.055685" lon="10.181503">
        <ele>577.821849</ele>
        <time>2025-05-18T17:39:48.755Z</time>
      </trkpt>
      <trkpt lat="48.055674" lon="10.181403">
        <ele>577.771413</ele>
        <time>2025-05-18T17:39:50.067Z</time>
      </trkpt>
      <trkpt lat="48.055597" lon="10.180800">
        <ele>577.465892</ele>
        <time>2025-05-18T17:39:58.397Z</time>
      </trkpt>
      <trkpt lat="48.055625" lon="10.180500">
        <ele>577.315143</ele>
        <time>2025-05-18T17:40:02.664Z</time>
      </trkpt>
      <trkpt lat="48.055502" lon="10.180447">
        <ele>577.219839</ele>
        <time>2025-05-18T17:40:05.513Z</time>
      </trkpt>
      <trkpt lat="48.055325" lon="10.180495">
        <ele>577.285068</ele>
        <time>2025-05-18T17:40:09.548Z</time>
      </trkpt>
      <trkpt lat="48.055046" lon="10.180513">
        <ele>577.572018</ele>
        <time>2025-05-18T17:40:15.984Z</time>
      </trkpt>
      <trkpt lat="48.054846" lon="10.180458">
        <ele>577.780968</ele>
        <time>2025-05-18T17:40:20.757Z</time>
      </trkpt>
      <trkpt lat="48.054441" lon="10.180272">
        <ele>578.216288</ele>
        <time>2025-05-18T17:40:30.739Z</time>
      </trkpt>
      <trkpt lat="48.054257" lon="10.180128">
        <ele>578.429662</ele>
        <time>2025-05-18T17:40:35.600Z</time>
      </trkpt>
      <trkpt lat="48.054028" lon="10.179913">
        <ele>578.707467</ele>
        <time>2025-05-18T17:40:41.948Z</time>
      </trkpt>
      <trkpt lat="48.053881" lon="10.179774">
        <ele>578.886157</ele>
        <time>2025-05-18T17:40:46.017Z</time>
      </trkpt>
      <trkpt lat="48.053616" lon="10.179619">
        <ele>579.132055</ele>
        <time>2025-05-18T17:40:52.657Z</time>
      </trkpt>
      <trkpt lat="48.053328" lon="10.179502">
        <ele>579.350064</ele>
        <time>2025-05-18T17:40:59.647Z</time>
      </trkpt>
      <trkpt lat="48.052990" lon="10.179456">
        <ele>579.597999</ele>
        <time>2025-05-18T17:41:07.554Z</time>
      </trkpt>
      <trkpt lat="48.052849" lon="10.177416">
        <ele>580.256874</ele>
        <time>2025-05-18T17:41:38.602Z</time>
      </trkpt>
      <trkpt lat="48.052732" lon="10.175691">
        <ele>580.020261</ele>
        <time>2025-05-18T17:42:02.995Z</time>
      </trkpt>
      <trkpt lat="48.052753" lon="10.175657">
        <ele>580.013943</ele>
        <time>2025-05-18T17:42:03.617Z</time>
      </trkpt>
      <trkpt lat="48.052553" lon="10.175349">
        <ele>579.991599</ele>
        <time>2025-05-18T17:42:09.416Z</time>
      </trkpt>
      <trkpt lat="48.052251" lon="10.175121">
        <ele>580.195940</ele>
        <time>2025-05-18T17:42:16.473Z</time>
      </trkpt>
      <trkpt lat="48.052069" lon="10.175054">
        <ele>580.309159</ele>
        <time>2025-05-18T17:42:20.541Z</time>
      </trkpt>
      <trkpt lat="48.051427" lon="10.174937">
        <ele>580.699834</ele>
        <time>2025-05-18T17:42:34.995Z</time>
      </trkpt>
      <trkpt lat="48.050888" lon="10.174646">
        <ele>581.045978</ele>
        <time>2025-05-18T17:42:48.049Z</time>
      </trkpt>
      <trkpt lat="48.050424" lon="10.174102">
        <ele>581.363533</ele>
        <time>2025-05-18T17:43:01.358Z</time>
      </trkpt>
      <trkpt lat="48.049351" lon="10.172695">
        <ele>582.099849</ele>
        <time>2025-05-18T17:43:32.126Z</time>
      </trkpt>
      <trkpt lat="48.049251" lon="10.172605">
        <ele>582.145354</ele>
        <time>2025-05-18T17:43:34.599Z</time>
      </trkpt>
      <trkpt lat="48.048641" lon="10.172255">
        <ele>582.400100</ele>
        <time>2025-05-18T17:43:48.520Z</time>
      </trkpt>
      <trkpt lat="48.047221" lon="10.171910">
        <ele>583.177230</ele>
        <time>2025-05-18T17:44:20.309Z</time>
      </trkpt>
      <trkpt lat="48.046085" lon="10.170907">
        <ele>584.083490</ele>
        <time>2025-05-18T17:44:49.854Z</time>
      </trkpt>
      <trkpt lat="48.043873" lon="10.170664">
        <ele>584.110528</ele>
        <time>2025-05-18T17:45:37.238Z</time>
      </trkpt>
      <trkpt lat="48.043816" lon="10.170606">
        <ele>584.062823</ele>
        <time>2025-05-18T17:45:38.586Z</time>
      </trkpt>
      <trkpt lat="48.043406" lon="10.169879">
        <ele>583.622812</ele>
        <time>2025-05-18T17:45:50.910Z</time>
      </trkpt>
      <trkpt lat="48.043561" lon="10.168902">
        <ele>583.066927</ele>
        <time>2025-05-18T17:46:03.674Z</time>
      </trkpt>
      <trkpt lat="48.043635" lon="10.168416">
        <ele>582.613753</ele>
        <time>2025-05-18T17:46:09.944Z</time>
      </trkpt>
      <trkpt lat="48.043633" lon="10.167269">
        <ele>581.570924</ele>
        <time>2025-05-18T17:46:24.342Z</time>
      </trkpt>
      <trkpt lat="48.043611" lon="10.165287">
        <ele>580.195935</ele>
        <time>2025-05-18T17:46:48.531Z</time>
      </trkpt>
      <trkpt lat="48.043484" lon="10.163839">
        <ele>579.414550</ele>
        <time>2025-05-18T17:47:08.330Z</time>
      </trkpt>
      <trkpt lat="48.043450" lon="10.163027">
        <ele>579.442976</ele>
        <time>2025-05-18T17:47:20.145Z</time>
      </trkpt>
      <trkpt lat="48.042931" lon="10.161193">
        <ele>579.647920</ele>
        <time>2025-05-18T17:47:48.869Z</time>
      </trkpt>
      <trkpt lat="48.042890" lon="10.161017">
        <ele>579.652197</ele>
        <time>2025-05-18T17:47:51.489Z</time>
      </trkpt>
      <trkpt lat="48.042881" lon="10.160863">
        <ele>579.655744</ele>
        <time>2025-05-18T17:47:53.668Z</time>
      </trkpt>
      <trkpt lat="48.042888" lon="10.160405">
        <ele>579.666258</ele>
        <time>2025-05-18T17:48:00.109Z</time>
      </trkpt>
      <trkpt lat="48.042789" lon="10.160406">
        <ele>579.669656</ele>
        <time>2025-05-18T17:48:02.189Z</time>
      </trkpt>
      <trkpt lat="48.042753" lon="10.160345">
        <ele>579.671523</ele>
        <time>2025-05-18T17:48:03.331Z</time>
      </trkpt>
      <trkpt lat="48.042657" lon="10.159539">
        <ele>579.690311</ele>
        <time>2025-05-18T17:48:14.798Z</time>
      </trkpt>
      <trkpt lat="48.042620" lon="10.159465">
        <ele>579.692432</ele>
        <time>2025-05-18T17:48:16.084Z</time>
      </trkpt>
      <trkpt lat="48.042568" lon="10.159432">
        <ele>579.694371</ele>
        <time>2025-05-18T17:48:17.257Z</time>
      </trkpt>
      <trkpt lat="48.041854" lon="10.159455">
        <ele>579.741251</ele>
        <time>2025-05-18T17:48:32.381Z</time>
      </trkpt>
      <trkpt lat="48.040703" lon="10.159588">
        <ele>579.870911</ele>
        <time>2025-05-18T17:48:56.998Z</time>
      </trkpt>
      <trkpt lat="48.039925" lon="10.159719">
        <ele>579.906605</ele>
        <time>2025-05-18T17:49:13.829Z</time>
      </trkpt>
      <trkpt lat="48.039364" lon="10.159869">
        <ele>579.900643</ele>
        <time>2025-05-18T17:49:26.076Z</time>
      </trkpt>
      <trkpt lat="48.039318" lon="10.159516">
        <ele>579.898128</ele>
        <time>2025-05-18T17:49:31.183Z</time>
      </trkpt>
      <trkpt lat="48.039316" lon="10.159336">
        <ele>579.896868</ele>
        <time>2025-05-18T17:49:33.714Z</time>
      </trkpt>
      <trkpt lat="48.039226" lon="10.159422">
        <ele>579.895751</ele>
        <time>2025-05-18T17:49:35.931Z</time>
      </trkpt>
      <trkpt lat="48.038351" lon="10.159731">
        <ele>579.075322</ele>
        <time>2025-05-18T17:49:54.006Z</time>
      </trkpt>
      <trkpt lat="48.037514" lon="10.160139">
        <ele>577.798917</ele>
        <time>2025-05-18T17:50:09.649Z</time>
      </trkpt>
      <trkpt lat="48.037500" lon="10.159679">
        <ele>577.352498</ele>
        <time>2025-05-18T17:50:15.009Z</time>
      </trkpt>
      <trkpt lat="48.037589" lon="10.158763">
        <ele>576.321062</ele>
        <time>2025-05-18T17:50:26.011Z</time>
      </trkpt>
      <trkpt lat="48.037031" lon="10.159189">
        <ele>575.265832</ele>
        <time>2025-05-18T17:50:37.609Z</time>
      </trkpt>
      <trkpt lat="48.036816" lon="10.159524">
        <ele>574.742874</ele>
        <time>2025-05-18T17:50:43.640Z</time>
      </trkpt>
      <trkpt lat="48.036365" lon="10.159611">
        <ele>574.031405</ele>
        <time>2025-05-18T17:50:52.905Z</time>
      </trkpt>
      <trkpt lat="48.036223" lon="10.159705">
        <ele>573.821100</ele>
        <time>2025-05-18T17:50:55.968Z</time>
      </trkpt>
      <trkpt lat="48.035967" lon="10.160092">
        <ele>573.328135</ele>
        <time>2025-05-18T17:51:02.946Z</time>
      </trkpt>
      <trkpt lat="48.035725" lon="10.160343">
        <ele>572.929294</ele>
        <time>2025-05-18T17:51:08.515Z</time>
      </trkpt>
      <trkpt lat="48.035540" lon="10.160354">
        <ele>572.678553</ele>
        <time>2025-05-18T17:51:12.065Z</time>
      </trkpt>
      <trkpt lat="48.035452" lon="10.160075">
        <ele>572.399203</ele>
        <time>2025-05-18T17:51:15.946Z</time>
      </trkpt>
      <trkpt lat="48.035478" lon="10.159977">
        <ele>572.303727</ele>
        <time>2025-05-18T17:51:17.288Z</time>
      </trkpt>
      <trkpt lat="48.035466" lon="10.159895">
        <ele>572.227712</ele>
        <time>2025-05-18T17:51:18.333Z</time>
      </trkpt>
      <trkpt lat="48.035385" lon="10.159717">
        <ele>572.032735</ele>
        <time>2025-05-18T17:51:21.056Z</time>
      </trkpt>
      <trkpt lat="48.035126" lon="10.158873">
        <ele>571.566606</ele>
        <time>2025-05-18T17:51:32.813Z</time>
      </trkpt>
      <trkpt lat="48.034955" lon="10.158102">
        <ele>571.270602</ele>
        <time>2025-05-18T17:51:43.648Z</time>
      </trkpt>
      <trkpt lat="48.034755" lon="10.158322">
        <ele>571.135301</ele>
        <time>2025-05-18T17:51:48.788Z</time>
      </trkpt>
      <trkpt lat="48.034416" lon="10.158671">
        <ele>570.911017</ele>
        <time>2025-05-18T17:51:57.405Z</time>
      </trkpt>
      <trkpt lat="48.034155" lon="10.158963">
        <ele>570.880430</ele>
        <time>2025-05-18T17:52:04.337Z</time>
      </trkpt>
      <trkpt lat="48.033985" lon="10.159155">
        <ele>570.926273</ele>
        <time>2025-05-18T17:52:08.932Z</time>
      </trkpt>
      <trkpt lat="48.033857" lon="10.159122">
        <ele>570.954223</ele>
        <time>2025-05-18T17:52:11.728Z</time>
      </trkpt>
      <trkpt lat="48.033720" lon="10.159411">
        <ele>571.005199</ele>
        <time>2025-05-18T17:52:16.833Z</time>
      </trkpt>
      <trkpt lat="48.033611" lon="10.159545">
        <ele>571.035563</ele>
        <time>2025-05-18T17:52:19.869Z</time>
      </trkpt>
      <trkpt lat="48.033525" lon="10.159605">
        <ele>571.055985</ele>
        <time>2025-05-18T17:52:21.918Z</time>
      </trkpt>
      <trkpt lat="48.033241" lon="10.159926">
        <ele>571.132591</ele>
        <time>2025-05-18T17:52:29.583Z</time>
      </trkpt>
      <trkpt lat="48.032643" lon="10.160596">
        <ele>571.334627</ele>
        <time>2025-05-18T17:52:45.733Z</time>
      </trkpt>
      <trkpt lat="48.030455" lon="10.162970">
        <ele>572.332750</ele>
        <time>2025-05-18T17:53:44.461Z</time>
      </trkpt>
      <trkpt lat="48.028833" lon="10.164727">
        <ele>573.199208</ele>
        <time>2025-05-18T17:54:28.246Z</time>
      </trkpt>
      <trkpt lat="48.028625" lon="10.164923">
        <ele>573.309158</ele>
        <time>2025-05-18T17:54:33.625Z</time>
      </trkpt>
      <trkpt lat="48.026955" lon="10.166365">
        <ele>574.210104</ele>
        <time>2025-05-18T17:55:15.731Z</time>
      </trkpt>
      <trkpt lat="48.022381" lon="10.170302">
        <ele>576.889459</ele>
        <time>2025-05-18T17:57:11.478Z</time>
      </trkpt>
      <trkpt lat="48.021079" lon="10.171360">
        <ele>577.641290</ele>
        <time>2025-05-18T17:57:43.874Z</time>
      </trkpt>
      <trkpt lat="48.020350" lon="10.172009">
        <ele>578.073578</ele>
        <time>2025-05-18T17:58:02.570Z</time>
      </trkpt>
      <trkpt lat="48.019110" lon="10.172997">
        <ele>578.784467</ele>
        <time>2025-05-18T17:58:33.506Z</time>
      </trkpt>
      <trkpt lat="48.018852" lon="10.173163">
        <ele>578.814844</ele>
        <time>2025-05-18T17:58:39.539Z</time>
      </trkpt>
      <trkpt lat="48.018245" lon="10.173372">
        <ele>578.882207</ele>
        <time>2025-05-18T17:58:52.789Z</time>
      </trkpt>
      <trkpt lat="48.018149" lon="10.173440">
        <ele>578.893696</ele>
        <time>2025-05-18T17:58:55.021Z</time>
      </trkpt>
      <trkpt lat="48.018065" lon="10.173348">
        <ele>578.904957</ele>
        <time>2025-05-18T17:58:57.152Z</time>
      </trkpt>
      <trkpt lat="48.017833" lon="10.173798">
        <ele>578.946057</ele>
        <time>2025-05-18T17:59:05.086Z</time>
      </trkpt>
      <trkpt lat="48.017689" lon="10.174010">
        <ele>578.967914</ele>
        <time>2025-05-18T17:59:09.313Z</time>
      </trkpt>
      <trkpt lat="48.017426" lon="10.174349">
        <ele>579.058592</ele>
        <time>2025-05-18T17:59:16.686Z</time>
      </trkpt>
      <trkpt lat="48.017085" lon="10.174687">
        <ele>579.184999</ele>
        <time>2025-05-18T17:59:25.512Z</time>
      </trkpt>
      <trkpt lat="48.014222" lon="10.176544">
        <ele>580.330934</ele>
        <time>2025-05-18T18:00:33.468Z</time>
      </trkpt>
      <trkpt lat="48.012287" lon="10.177708">
        <ele>581.498346</ele>
        <time>2025-05-18T18:01:19.131Z</time>
      </trkpt>
      <trkpt lat="48.010019" lon="10.179373">
        <ele>583.757541</ele>
        <time>2025-05-18T18:02:15.924Z</time>
      </trkpt>
      <trkpt lat="48.009747" lon="10.179573">
        <ele>584.046842</ele>
        <time>2025-05-18T18:02:22.768Z</time>
      </trkpt>
      <trkpt lat="48.009257" lon="10.179942">
        <ele>584.476866</ele>
        <time>2025-05-18T18:02:35.067Z</time>
      </trkpt>
      <trkpt lat="48.009099" lon="10.180051">
        <ele>584.581628</ele>
        <time>2025-05-18T18:02:38.930Z</time>
      </trkpt>
      <trkpt lat="48.008866" lon="10.180237">
        <ele>584.740649</ele>
        <time>2025-05-18T18:02:44.722Z</time>
      </trkpt>
      <trkpt lat="48.008847" lon="10.180257">
        <ele>584.754639</ele>
        <time>2025-05-18T18:02:45.252Z</time>
      </trkpt>
      <trkpt lat="48.008507" lon="10.180494">
        <ele>584.980490</ele>
        <time>2025-05-18T18:02:53.448Z</time>
      </trkpt>
      <trkpt lat="48.007978" lon="10.180902">
        <ele>585.338856</ele>
        <time>2025-05-18T18:03:06.509Z</time>
      </trkpt>
      <trkpt lat="48.007500" lon="10.181310">
        <ele>585.634656</ele>
        <time>2025-05-18T18:03:18.526Z</time>
      </trkpt>
      <trkpt lat="48.007214" lon="10.181576">
        <ele>585.810771</ele>
        <time>2025-05-18T18:03:25.937Z</time>
      </trkpt>
      <trkpt lat="48.006784" lon="10.181948">
        <ele>586.070531</ele>
        <time>2025-05-18T18:03:36.926Z</time>
      </trkpt>
      <trkpt lat="48.006706" lon="10.182004">
        <ele>586.115772</ele>
        <time>2025-05-18T18:03:38.814Z</time>
      </trkpt>
      <trkpt lat="48.006513" lon="10.182166">
        <ele>586.231502</ele>
        <time>2025-05-18T18:03:43.716Z</time>
      </trkpt>
      <trkpt lat="48.006707" lon="10.182471">
        <ele>586.361747</ele>
        <time>2025-05-18T18:03:49.876Z</time>
      </trkpt>
      <trkpt lat="48.006884" lon="10.182843">
        <ele>586.451233</ele>
        <time>2025-05-18T18:03:56.480Z</time>
      </trkpt>
      <trkpt lat="48.006253" lon="10.183473">
        <ele>586.673574</ele>
        <time>2025-05-18T18:04:12.950Z</time>
      </trkpt>
      <trkpt lat="48.005961" lon="10.183802">
        <ele>586.780719</ele>
        <time>2025-05-18T18:04:20.782Z</time>
      </trkpt>
      <trkpt lat="48.005827" lon="10.183960">
        <ele>586.830728</ele>
        <time>2025-05-18T18:04:24.454Z</time>
      </trkpt>
      <trkpt lat="48.005434" lon="10.184111">
        <ele>586.816187</ele>
        <time>2025-05-18T18:04:33.054Z</time>
      </trkpt>
      <trkpt lat="48.005268" lon="10.184132">
        <ele>586.786039</ele>
        <time>2025-05-18T18:04:36.521Z</time>
      </trkpt>
      <trkpt lat="48.005062" lon="10.184159">
        <ele>586.748617</ele>
        <time>2025-05-18T18:04:40.796Z</time>
      </trkpt>
      <trkpt lat="48.004891" lon="10.184143">
        <ele>586.717611</ele>
        <time>2025-05-18T18:04:44.377Z</time>
      </trkpt>
      <trkpt lat="48.004859" lon="10.184140">
        <ele>586.711808</ele>
        <time>2025-05-18T18:04:45.038Z</time>
      </trkpt>
      <trkpt lat="48.004816" lon="10.184137">
        <ele>586.704018</ele>
        <time>2025-05-18T18:04:45.956Z</time>
      </trkpt>
      <trkpt lat="48.004686" lon="10.184125">
        <ele>586.680448</ele>
        <time>2025-05-18T18:04:48.656Z</time>
      </trkpt>
      <trkpt lat="48.004605" lon="10.184118">
        <ele>586.665765</ele>
        <time>2025-05-18T18:04:50.329Z</time>
      </trkpt>
      <trkpt lat="48.004266" lon="10.184183">
        <ele>586.603915</ele>
        <time>2025-05-18T18:04:57.282Z</time>
      </trkpt>
      <trkpt lat="48.004088" lon="10.184168">
        <ele>586.571651</ele>
        <time>2025-05-18T18:05:00.884Z</time>
      </trkpt>
      <trkpt lat="48.003995" lon="10.184492">
        <ele>586.553945</ele>
        <time>2025-05-18T18:05:05.698Z</time>
      </trkpt>
      <trkpt lat="48.003909" lon="10.184795">
        <ele>586.592633</ele>
        <time>2025-05-18T18:05:10.191Z</time>
      </trkpt>
      <trkpt lat="48.003780" lon="10.185085">
        <ele>586.633566</ele>
        <time>2025-05-18T18:05:15.005Z</time>
      </trkpt>
      <trkpt lat="48.003704" lon="10.185001">
        <ele>586.650172</ele>
        <time>2025-05-18T18:05:16.957Z</time>
      </trkpt>
      <trkpt lat="48.003639" lon="10.184913">
        <ele>586.665580</ele>
        <time>2025-05-18T18:05:18.839Z</time>
      </trkpt>
      <trkpt lat="48.003406" lon="10.184933">
        <ele>586.706581</ele>
        <time>2025-05-18T18:05:23.864Z</time>
      </trkpt>
      <trkpt lat="48.003210" lon="10.184798">
        <ele>586.744495</ele>
        <time>2025-05-18T18:05:28.572Z</time>
      </trkpt>
      <trkpt lat="48.003007" lon="10.184715">
        <ele>586.781468</ele>
        <time>2025-05-18T18:05:33.109Z</time>
      </trkpt>
      <trkpt lat="48.002829" lon="10.184641">
        <ele>586.813926</ele>
        <time>2025-05-18T18:05:37.109Z</time>
      </trkpt>
      <trkpt lat="48.002513" lon="10.184641">
        <ele>586.916474</ele>
        <time>2025-05-18T18:05:44.073Z</time>
      </trkpt>
      <trkpt lat="48.001860" lon="10.184758">
        <ele>587.491889</ele>
        <time>2025-05-18T18:05:58.824Z</time>
      </trkpt>
      <trkpt lat="48.001150" lon="10.185018">
        <ele>588.131460</ele>
        <time>2025-05-18T18:06:15.267Z</time>
      </trkpt>
      <trkpt lat="48.000875" lon="10.184919">
        <ele>588.378946</ele>
        <time>2025-05-18T18:06:21.593Z</time>
      </trkpt>
      <trkpt lat="48.000778" lon="10.184971">
        <ele>588.459285</ele>
        <time>2025-05-18T18:06:23.924Z</time>
      </trkpt>
      <trkpt lat="48.000648" lon="10.185040">
        <ele>588.548626</ele>
        <time>2025-05-18T18:06:27.005Z</time>
      </trkpt>
      <trkpt lat="48.000454" lon="10.185213">
        <ele>588.694928</ele>
        <time>2025-05-18T18:06:34.695Z</time>
      </trkpt>
      <trkpt lat="48.000000" lon="10.185490">
        <ele>589.012500</ele>
        <time>2025-05-18T18:06:51.399Z</time>
      </trkpt>
      <trkpt lat="47.999562" lon="10.185724">
        <ele>589.313732</ele>
        <time>2025-05-18T18:07:07.350Z</time>
      </trkpt>
      <trkpt lat="47.999347" lon="10.185788">
        <ele>589.455703</ele>
        <time>2025-05-18T18:07:14.915Z</time>
      </trkpt>
      <trkpt lat="47.999176" lon="10.185792">
        <ele>589.566457</ele>
        <time>2025-05-18T18:07:20.824Z</time>
      </trkpt>
      <trkpt lat="47.999005" lon="10.185771">
        <ele>589.594840</ele>
        <time>2025-05-18T18:07:26.754Z</time>
      </trkpt>
      <trkpt lat="47.998344" lon="10.184667">
        <ele>589.584805</ele>
        <time>2025-05-18T18:08:01.072Z</time>
      </trkpt>
      <trkpt lat="47.998198" lon="10.184486">
        <ele>589.582885</ele>
        <time>2025-05-18T18:08:07.646Z</time>
      </trkpt>
      <trkpt lat="47.997695" lon="10.183859">
        <ele>589.686287</ele>
        <time>2025-05-18T18:08:30.310Z</time>
      </trkpt>
      <trkpt lat="47.997212" lon="10.183288">
        <ele>590.095430</ele>
        <time>2025-05-18T18:08:51.415Z</time>
      </trkpt>
      <trkpt lat="47.996571" lon="10.182551">
        <ele>590.632731</ele>
        <time>2025-05-18T18:09:19.018Z</time>
      </trkpt>
      <trkpt lat="47.996270" lon="10.182167">
        <ele>590.889689</ele>
        <time>2025-05-18T18:09:32.509Z</time>
      </trkpt>
      <trkpt lat="47.996229" lon="10.182110">
        <ele>590.925084</ele>
        <time>2025-05-18T18:09:34.419Z</time>
      </trkpt>
      <trkpt lat="47.995638" lon="10.181805">
        <ele>591.320286</ele>
        <time>2025-05-18T18:09:55.792Z</time>
      </trkpt>
      <trkpt lat="47.995562" lon="10.181780">
        <ele>591.369473</ele>
        <time>2025-05-18T18:09:58.444Z</time>
      </trkpt>
      <trkpt lat="47.995469" lon="10.181823">
        <ele>591.431005</ele>
        <time>2025-05-18T18:10:01.793Z</time>
      </trkpt>
      <trkpt lat="47.995452" lon="10.181833">
        <ele>591.442553</ele>
        <time>2025-05-18T18:10:02.408Z</time>
      </trkpt>
      <trkpt lat="47.995206" lon="10.181964">
        <ele>591.607620</ele>
        <time>2025-05-18T18:10:11.382Z</time>
      </trkpt>
      <trkpt lat="47.995080" lon="10.181993">
        <ele>591.688200</ele>
        <time>2025-05-18T18:10:15.792Z</time>
      </trkpt>
      <trkpt lat="47.994925" lon="10.181979">
        <ele>591.786349</ele>
        <time>2025-05-18T18:10:21.133Z</time>
      </trkpt>
      <trkpt lat="47.994625" lon="10.181858">
        <ele>591.962815</ele>
        <time>2025-05-18T18:10:31.841Z</time>
      </trkpt>
      <trkpt lat="47.994233" lon="10.181694">
        <ele>592.149890</ele>
        <time>2025-05-18T18:10:45.869Z</time>
      </trkpt>
      <trkpt lat="47.993630" lon="10.181640">
        <ele>592.427502</ele>
        <time>2025-05-18T18:11:06.650Z</time>
      </trkpt>
      <trkpt lat="47.993365" lon="10.181568">
        <ele>592.551283</ele>
        <time>2025-05-18T18:11:15.919Z</time>
      </trkpt>
      <trkpt lat="47.993040" lon="10.181491">
        <ele>592.702506</ele>
        <time>2025-05-18T18:11:27.238Z</time>
      </trkpt>
      <trkpt lat="47.992636" lon="10.181468">
        <ele>593.048521</ele>
        <time>2025-05-18T18:11:41.078Z</time>
      </trkpt>
      <trkpt lat="47.991727" lon="10.181522">
        <ele>593.907195</ele>
        <time>2025-05-18T18:12:12.218Z</time>
      </trkpt>
      <trkpt lat="47.991440" lon="10.181561">
        <ele>594.179209</ele>
        <time>2025-05-18T18:12:21.971Z</time>
      </trkpt>
      <trkpt lat="47.991184" lon="10.181649">
        <ele>594.427157</ele>
        <time>2025-05-18T18:12:30.817Z</time>
      </trkpt>
      <trkpt lat="47.991088" lon="10.181660">
        <ele>594.538027</ele>
        <time>2025-05-18T18:12:33.510Z</time>
      </trkpt>
      <trkpt lat="47.991011" lon="10.181616">
        <ele>594.634350</ele>
        <time>2025-05-18T18:12:35.842Z</time>
      </trkpt>
      <trkpt lat="47.990773" lon="10.181242">
        <ele>595.037909</ele>
        <time>2025-05-18T18:12:45.558Z</time>
      </trkpt>
      <trkpt lat="47.990570" lon="10.181000">
        <ele>595.341338</ele>
        <time>2025-05-18T18:12:52.846Z</time>
      </trkpt>
      <trkpt lat="47.990472" lon="10.180927">
        <ele>595.469283</ele>
        <time>2025-05-18T18:12:55.918Z</time>
      </trkpt>
      <trkpt lat="47.990438" lon="10.180920">
        <ele>595.509385</ele>
        <time>2025-05-18T18:12:56.891Z</time>
      </trkpt>
      <trkpt lat="47.989847" lon="10.180807">
        <ele>596.205551</ele>
        <time>2025-05-18T18:13:13.597Z</time>
      </trkpt>
      <trkpt lat="47.989404" lon="10.180773">
        <ele>596.647447</ele>
        <time>2025-05-18T18:13:25.976Z</time>
      </trkpt>
      <trkpt lat="47.989336" lon="10.180749">
        <ele>596.695959</ele>
        <time>2025-05-18T18:13:27.873Z</time>
      </trkpt>
      <trkpt lat="47.989033" lon="10.180763">
        <ele>596.906434</ele>
        <time>2025-05-18T18:13:34.007Z</time>
      </trkpt>
      <trkpt lat="47.989025" lon="10.180761">
        <ele>596.912066</ele>
        <time>2025-05-18T18:13:34.244Z</time>
      </trkpt>
      <trkpt lat="47.988930" lon="10.180774">
        <ele>596.978301</ele>
        <time>2025-05-18T18:13:36.813Z</time>
      </trkpt>
      <trkpt lat="47.988052" lon="10.181166">
        <ele>597.614535</ele>
        <time>2025-05-18T18:14:02.454Z</time>
      </trkpt>
      <trkpt lat="47.987885" lon="10.181177">
        <ele>597.730597</ele>
        <time>2025-05-18T18:14:07.135Z</time>
      </trkpt>
      <trkpt lat="47.987504" lon="10.180901">
        <ele>598.418865</ele>
        <time>2025-05-18T18:14:19.022Z</time>
      </trkpt>
      <trkpt lat="47.987509" lon="10.180853">
        <ele>598.478493</ele>
        <time>2025-05-18T18:14:19.799Z</time>
      </trkpt>
      <trkpt lat="47.987514" lon="10.180771">
        <ele>598.579563</ele>
        <time>2025-05-18T18:14:21.344Z</time>
      </trkpt>
      <trkpt lat="47.987510" lon="10.180722">
        <ele>598.640155</ele>
        <time>2025-05-18T18:14:22.273Z</time>
      </trkpt>
      <trkpt lat="47.987493" lon="10.180304">
        <ele>599.154187</ele>
        <time>2025-05-18T18:14:28.751Z</time>
      </trkpt>
      <trkpt lat="47.987422" lon="10.180322">
        <ele>599.286262</ele>
        <time>2025-05-18T18:14:30.421Z</time>
      </trkpt>
      <trkpt lat="47.987377" lon="10.180333">
        <ele>599.369889</ele>
        <time>2025-05-18T18:14:31.484Z</time>
      </trkpt>
      <trkpt lat="47.987095" lon="10.180447">
        <ele>599.905671</ele>
        <time>2025-05-18T18:14:39.757Z</time>
      </trkpt>
      <trkpt lat="47.986920" lon="10.180458">
        <ele>600.226904</ele>
        <time>2025-05-18T18:14:44.713Z</time>
      </trkpt>
      <trkpt lat="47.986885" lon="10.180455">
        <ele>600.291199</ele>
        <time>2025-05-18T18:14:45.702Z</time>
      </trkpt>
      <trkpt lat="47.986806" lon="10.180446">
        <ele>600.436505</ele>
        <time>2025-05-18T18:14:47.936Z</time>
      </trkpt>
      <trkpt lat="47.986351" lon="10.180375">
        <ele>601.243006</ele>
        <time>2025-05-18T18:14:58.952Z</time>
      </trkpt>
      <trkpt lat="47.986221" lon="10.180383">
        <ele>601.441321</ele>
        <time>2025-05-18T18:15:02.111Z</time>
      </trkpt>
      <trkpt lat="47.986129" lon="10.179986">
        <ele>601.869917</ele>
        <time>2025-05-18T18:15:10.044Z</time>
      </trkpt>
      <trkpt lat="47.986074" lon="10.179797">
        <ele>602.080165</ele>
        <time>2025-05-18T18:15:13.938Z</time>
      </trkpt>
      <trkpt lat="47.986017" lon="10.179604">
        <ele>602.295374</ele>
        <time>2025-05-18T18:15:17.910Z</time>
      </trkpt>
      <trkpt lat="47.986084" lon="10.179365">
        <ele>602.559717</ele>
        <time>2025-05-18T18:15:21.905Z</time>
      </trkpt>
      <trkpt lat="47.986089" lon="10.179041">
        <ele>602.890340</ele>
        <time>2025-05-18T18:15:26.930Z</time>
      </trkpt>
      <trkpt lat="47.986061" lon="10.178619">
        <ele>603.322962</ele>
        <time>2025-05-18T18:15:33.516Z</time>
      </trkpt>
      <trkpt lat="47.986049" lon="10.178472">
        <ele>603.474039</ele>
        <time>2025-05-18T18:15:35.747Z</time>
      </trkpt>
      <trkpt lat="47.985996" lon="10.177782">
        <ele>603.699970</ele>
        <time>2025-05-18T18:15:45.895Z</time>
      </trkpt>
      <trkpt lat="47.985989" lon="10.177637">
        <ele>603.648344</ele>
        <time>2025-05-18T18:15:47.893Z</time>
      </trkpt>
      <trkpt lat="47.985973" lon="10.177414">
        <ele>603.568700</ele>
        <time>2025-05-18T18:15:50.933Z</time>
      </trkpt>
      <trkpt lat="47.985899" lon="10.176628">
        <ele>603.286831</ele>
        <time>2025-05-18T18:16:01.272Z</time>
      </trkpt>
      <trkpt lat="47.985883" lon="10.176476">
        <ele>603.232190</ele>
        <time>2025-05-18T18:16:03.277Z</time>
      </trkpt>
      <trkpt lat="47.985753" lon="10.176531">
        <ele>603.160504</ele>
        <time>2025-05-18T18:16:05.902Z</time>
      </trkpt>
      <trkpt lat="47.985636" lon="10.176600">
        <ele>603.093767</ele>
        <time>2025-05-18T18:16:08.346Z</time>
      </trkpt>
      <trkpt lat="47.985498" lon="10.176794">
        <ele>602.993233</ele>
        <time>2025-05-18T18:16:11.988Z</time>
      </trkpt>
      <trkpt lat="47.985350" lon="10.177003">
        <ele>602.885184</ele>
        <time>2025-05-18T18:16:15.943Z</time>
      </trkpt>
      <trkpt lat="47.985223" lon="10.177110">
        <ele>602.863753</ele>
        <time>2025-05-18T18:16:18.812Z</time>
      </trkpt>
      <trkpt lat="47.985075" lon="10.177176">
        <ele>602.855185</ele>
        <time>2025-05-18T18:16:21.852Z</time>
      </trkpt>
      <trkpt lat="47.984559" lon="10.177407">
        <ele>602.825302</ele>
        <time>2025-05-18T18:16:32.775Z</time>
      </trkpt>
      <trkpt lat="47.984439" lon="10.177454">
        <ele>602.818420</ele>
        <time>2025-05-18T18:16:35.324Z</time>
      </trkpt>
      <trkpt lat="47.984236" lon="10.177512">
        <ele>602.806954</ele>
        <time>2025-05-18T18:16:39.700Z</time>
      </trkpt>
      <trkpt lat="47.983911" lon="10.177630">
        <ele>602.788400</ele>
        <time>2025-05-18T18:16:47.035Z</time>
      </trkpt>
      <trkpt lat="47.983304" lon="10.177878">
        <ele>602.941043</ele>
        <time>2025-05-18T18:17:01.098Z</time>
      </trkpt>
      <trkpt lat="47.983201" lon="10.177895">
        <ele>602.998669</ele>
        <time>2025-05-18T18:17:03.380Z</time>
      </trkpt>
      <trkpt lat="47.983095" lon="10.177872">
        <ele>603.058233</ele>
        <time>2025-05-18T18:17:05.762Z</time>
      </trkpt>
      <trkpt lat="47.982862" lon="10.177730">
        <ele>603.198169</ele>
        <time>2025-05-18T18:17:11.340Z</time>
      </trkpt>
      <trkpt lat="47.982683" lon="10.177738">
        <ele>603.297755</ele>
        <time>2025-05-18T18:17:15.330Z</time>
      </trkpt>
      <trkpt lat="47.982550" lon="10.177872">
        <ele>603.386962</ele>
        <time>2025-05-18T18:17:18.893Z</time>
      </trkpt>
      <trkpt lat="47.982463" lon="10.178057">
        <ele>603.471121</ele>
        <time>2025-05-18T18:17:22.226Z</time>
      </trkpt>
      <trkpt lat="47.982385" lon="10.178233">
        <ele>603.549690</ele>
        <time>2025-05-18T18:17:25.346Z</time>
      </trkpt>
      <trkpt lat="47.982290" lon="10.178138">
        <ele>603.613262</ele>
        <time>2025-05-18T18:17:27.839Z</time>
      </trkpt>
      <trkpt lat="47.982122" lon="10.177874">
        <ele>603.748852</ele>
        <time>2025-05-18T18:17:33.123Z</time>
      </trkpt>
      <trkpt lat="47.982052" lon="10.177725">
        <ele>603.766482</ele>
        <time>2025-05-18T18:17:35.740Z</time>
      </trkpt>
      <trkpt lat="47.981751" lon="10.176995">
        <ele>603.737026</ele>
        <time>2025-05-18T18:17:47.629Z</time>
      </trkpt>
      <trkpt lat="47.981482" lon="10.176525">
        <ele>603.715781</ele>
        <time>2025-05-18T18:17:56.234Z</time>
      </trkpt>
      <trkpt lat="47.981056" lon="10.175940">
        <ele>603.686083</ele>
        <time>2025-05-18T18:18:08.102Z</time>
      </trkpt>
      <trkpt lat="47.980797" lon="10.175285">
        <ele>603.757927</ele>
        <time>2025-05-18T18:18:19.007Z</time>
      </trkpt>
      <trkpt lat="47.980809" lon="10.175149">
        <ele>603.778235</ele>
        <time>2025-05-18T18:18:21.018Z</time>
      </trkpt>
      <trkpt lat="47.980606" lon="10.174504">
        <ele>603.883750</ele>
        <time>2025-05-18T18:18:31.433Z</time>
      </trkpt>
      <trkpt lat="47.980543" lon="10.174307">
        <ele>603.916071</ele>
        <time>2025-05-18T18:18:34.621Z</time>
      </trkpt>
      <trkpt lat="47.980410" lon="10.173862">
        <ele>603.988219</ele>
        <time>2025-05-18T18:18:41.744Z</time>
      </trkpt>
      <trkpt lat="47.980363" lon="10.173657">
        <ele>604.020298</ele>
        <time>2025-05-18T18:18:44.916Z</time>
      </trkpt>
      <trkpt lat="47.980368" lon="10.173588">
        <ele>604.030573</ele>
        <time>2025-05-18T18:18:45.913Z</time>
      </trkpt>
      <trkpt lat="47.980395" lon="10.173550">
        <ele>604.038777</ele>
        <time>2025-05-18T18:18:46.722Z</time>
      </trkpt>
      <trkpt lat="47.980367" lon="10.173429">
        <ele>604.057730</ele>
        <time>2025-05-18T18:18:48.581Z</time>
      </trkpt>
      <trkpt lat="47.980347" lon="10.173327">
        <ele>604.073465</ele>
        <time>2025-05-18T18:18:50.083Z</time>
      </trkpt>
      <trkpt lat="47.980305" lon="10.173300">
        <ele>604.056678</ele>
        <time>2025-05-18T18:18:51.064Z</time>
      </trkpt>
      <trkpt lat="47.980280" lon="10.173238">
        <ele>604.028354</ele>
        <time>2025-05-18T18:18:52.092Z</time>
      </trkpt>
      <trkpt lat="47.980055" lon="10.172399">
        <ele>603.674662</ele>
        <time>2025-05-18T18:19:04.448Z</time>
      </trkpt>
      <trkpt lat="47.979760" lon="10.171368">
        <ele>603.235888</ele>
        <time>2025-05-18T18:19:19.170Z</time>
      </trkpt>
      <trkpt lat="47.979351" lon="10.170008">
        <ele>602.743516</ele>
        <time>2025-05-18T18:19:38.528Z</time>
      </trkpt>
      <trkpt lat="47.979352" lon="10.169840">
        <ele>602.693856</ele>
        <time>2025-05-18T18:19:40.688Z</time>
      </trkpt>
      <trkpt lat="47.979267" lon="10.169469">
        <ele>602.577948</ele>
        <time>2025-05-18T18:19:45.829Z</time>
      </trkpt>
      <trkpt lat="47.979255" lon="10.169422">
        <ele>602.563079</ele>
        <time>2025-05-18T18:19:46.495Z</time>
      </trkpt>
      <trkpt lat="47.979198" lon="10.169209">
        <ele>602.495275</ele>
        <time>2025-05-18T18:19:49.565Z</time>
      </trkpt>
      <trkpt lat="47.979160" lon="10.169118">
        <ele>602.463572</ele>
        <time>2025-05-18T18:19:51.029Z</time>
      </trkpt>
      <trkpt lat="47.979118" lon="10.169082">
        <ele>602.442190</ele>
        <time>2025-05-18T18:19:52.025Z</time>
      </trkpt>
      <trkpt lat="47.978971" lon="10.168620">
        <ele>602.290987</ele>
        <time>2025-05-18T18:19:59.159Z</time>
      </trkpt>
      <trkpt lat="47.978953" lon="10.168432">
        <ele>602.234851</ele>
        <time>2025-05-18T18:20:01.882Z</time>
      </trkpt>
      <trkpt lat="47.978897" lon="10.168222">
        <ele>602.704530</ele>
        <time>2025-05-18T18:20:05.161Z</time>
      </trkpt>
      <trkpt lat="47.978827" lon="10.168039">
        <ele>603.177528</ele>
        <time>2025-05-18T18:20:08.267Z</time>
      </trkpt>
      <trkpt lat="47.978752" lon="10.167918">
        <ele>603.547599</ele>
        <time>2025-05-18T18:20:10.719Z</time>
      </trkpt>
      <trkpt lat="47.978451" lon="10.166375">
        <ele>607.154358</ele>
        <time>2025-05-18T18:20:37.483Z</time>
      </trkpt>
      <trkpt lat="47.978161" lon="10.164600">
        <ele>612.167237</ele>
        <time>2025-05-18T18:21:12.889Z</time>
      </trkpt>
      <trkpt lat="47.978108" lon="10.164347">
        <ele>612.943475</ele>
        <time>2025-05-18T18:21:17.709Z</time>
      </trkpt>
      <trkpt lat="47.978000" lon="10.163825">
        <ele>614.543288</ele>
        <time>2025-05-18T18:21:26.928Z</time>
      </trkpt>
      <trkpt lat="47.977818" lon="10.163117">
        <ele>616.102961</ele>
        <time>2025-05-18T18:21:38.611Z</time>
      </trkpt>
      <trkpt lat="47.977460" lon="10.162048">
        <ele>615.966180</ele>
        <time>2025-05-18T18:21:54.703Z</time>
      </trkpt>
      <trkpt lat="47.977383" lon="10.161729">
        <ele>615.927375</ele>
        <time>2025-05-18T18:21:59.009Z</time>
      </trkpt>
      <trkpt lat="47.977353" lon="10.161561">
        <ele>615.907478</ele>
        <time>2025-05-18T18:22:01.205Z</time>
      </trkpt>
      <trkpt lat="47.977323" lon="10.161396">
        <ele>615.887913</ele>
        <time>2025-05-18T18:22:03.365Z</time>
      </trkpt>
      <trkpt lat="47.977225" lon="10.161405">
        <ele>615.871129</ele>
        <time>2025-05-18T18:22:05.253Z</time>
      </trkpt>
      <trkpt lat="47.976795" lon="10.160452">
        <ele>615.617531</ele>
        <time>2025-05-18T18:22:21.111Z</time>
      </trkpt>
      <trkpt lat="47.976665" lon="10.160158">
        <ele>615.516248</ele>
        <time>2025-05-18T18:22:26.198Z</time>
      </trkpt>
      <trkpt lat="47.976289" lon="10.159308">
        <ele>615.223386</ele>
        <time>2025-05-18T18:22:40.609Z</time>
      </trkpt>
      <trkpt lat="47.976042" lon="10.158665">
        <ele>614.713924</ele>
        <time>2025-05-18T18:22:50.704Z</time>
      </trkpt>
      <trkpt lat="47.976008" lon="10.158483">
        <ele>614.233080</ele>
        <time>2025-05-18T18:22:53.153Z</time>
      </trkpt>
      <trkpt lat="47.976018" lon="10.158347">
        <ele>613.884909</ele>
        <time>2025-05-18T18:22:54.856Z</time>
      </trkpt>
      <trkpt lat="47.975668" lon="10.157101">
        <ele>610.446289</ele>
        <time>2025-05-18T18:23:09.308Z</time>
      </trkpt>
      <trkpt lat="47.975378" lon="10.156194">
        <ele>607.854806</ele>
        <time>2025-05-18T18:23:19.131Z</time>
      </trkpt>
      <trkpt lat="47.975179" lon="10.155697">
        <ele>606.227437</ele>
        <time>2025-05-18T18:23:24.772Z</time>
      </trkpt>
      <trkpt lat="47.974995" lon="10.155379">
        <ele>605.046294</ele>
        <time>2025-05-18T18:23:28.882Z</time>
      </trkpt>
      <trkpt lat="47.974917" lon="10.155216">
        <ele>604.483256</ele>
        <time>2025-05-18T18:23:30.871Z</time>
      </trkpt>
      <trkpt lat="47.974818" lon="10.155282">
        <ele>604.028182</ele>
        <time>2025-05-18T18:23:32.513Z</time>
      </trkpt>
      <trkpt lat="47.974322" lon="10.154276">
        <ele>600.685018</ele>
        <time>2025-05-18T18:23:47.037Z</time>
      </trkpt>
      <trkpt lat="47.974196" lon="10.154021">
        <ele>600.835743</ele>
        <time>2025-05-18T18:23:51.609Z</time>
      </trkpt>
      <trkpt lat="47.973762" lon="10.153002">
        <ele>601.410108</ele>
        <time>2025-05-18T18:24:10.056Z</time>
      </trkpt>
      <trkpt lat="47.973709" lon="10.152873">
        <ele>601.482088</ele>
        <time>2025-05-18T18:24:12.459Z</time>
      </trkpt>
      <trkpt lat="47.973345" lon="10.151959">
        <ele>602.206156</ele>
        <time>2025-05-18T18:24:29.047Z</time>
      </trkpt>
      <trkpt lat="47.973128" lon="10.151416">
        <ele>603.835358</ele>
        <time>2025-05-18T18:24:39.261Z</time>
      </trkpt>
      <trkpt lat="47.973006" lon="10.151121">
        <ele>604.728677</ele>
        <time>2025-05-18T18:24:45.018Z</time>
      </trkpt>
      <trkpt lat="47.972864" lon="10.151013">
        <ele>605.341880</ele>
        <time>2025-05-18T18:24:49.040Z</time>
      </trkpt>
      <trkpt lat="47.972416" lon="10.150075">
        <ele>608.310381</ele>
        <time>2025-05-18T18:25:09.325Z</time>
      </trkpt>
      <trkpt lat="47.971662" lon="10.148868">
        <ele>612.914469</ele>
        <time>2025-05-18T18:25:38.882Z</time>
      </trkpt>
      <trkpt lat="47.971043" lon="10.147782">
        <ele>616.640643</ele>
        <time>2025-05-18T18:26:02.708Z</time>
      </trkpt>
      <trkpt lat="47.970879" lon="10.147449">
        <ele>617.114592</ele>
        <time>2025-05-18T18:26:09.269Z</time>
      </trkpt>
      <trkpt lat="47.970848" lon="10.147255">
        <ele>617.343259</ele>
        <time>2025-05-18T18:26:12.397Z</time>
      </trkpt>
      <trkpt lat="47.970763" lon="10.146988">
        <ele>617.682216</ele>
        <time>2025-05-18T18:26:17.008Z</time>
      </trkpt>
      <trkpt lat="47.970579" lon="10.146660">
        <ele>618.172822</ele>
        <time>2025-05-18T18:26:23.639Z</time>
      </trkpt>
      <trkpt lat="47.967758" lon="10.142050">
        <ele>622.116763</ele>
        <time>2025-05-18T18:27:56.740Z</time>
      </trkpt>
      <trkpt lat="47.966041" lon="10.139244">
        <ele>623.433960</ele>
        <time>2025-05-18T18:28:52.630Z</time>
      </trkpt>
      <trkpt lat="47.965505" lon="10.138378">
        <ele>623.748264</ele>
        <time>2025-05-18T18:29:09.715Z</time>
      </trkpt>
      <trkpt lat="47.964803" lon="10.137232">
        <ele>624.153741</ele>
        <time>2025-05-18T18:29:32.200Z</time>
      </trkpt>
      <trkpt lat="47.963868" lon="10.135635">
        <ele>624.693583</ele>
        <time>2025-05-18T18:30:03.192Z</time>
      </trkpt>
      <trkpt lat="47.963746" lon="10.135458">
        <ele>624.754796</ele>
        <time>2025-05-18T18:30:06.907Z</time>
      </trkpt>
      <trkpt lat="47.962952" lon="10.133862">
        <ele>625.233938</ele>
        <time>2025-05-18T18:30:35.938Z</time>
      </trkpt>
      <trkpt lat="47.961575" lon="10.131144">
        <ele>625.502259</ele>
        <time>2025-05-18T18:31:24.466Z</time>
      </trkpt>
      <trkpt lat="47.961430" lon="10.130780">
        <ele>625.490442</ele>
        <time>2025-05-18T18:31:30.382Z</time>
      </trkpt>
      <trkpt lat="47.960371" lon="10.128263">
        <ele>625.526775</ele>
        <time>2025-05-18T18:32:12.088Z</time>
      </trkpt>
      <trkpt lat="47.959993" lon="10.127181">
        <ele>625.606034</ele>
        <time>2025-05-18T18:32:29.652Z</time>
      </trkpt>
      <trkpt lat="47.960063" lon="10.127145">
        <ele>625.613214</ele>
        <time>2025-05-18T18:32:32.192Z</time>
      </trkpt>
      <trkpt lat="47.959577" lon="10.125398">
        <ele>625.668000</ele>
        <time>2025-05-18T18:32:59.458Z</time>
      </trkpt>
      <trkpt lat="47.959497" lon="10.124958">
        <ele>625.680570</ele>
        <time>2025-05-18T18:33:05.857Z</time>
      </trkpt>
      <trkpt lat="47.959198" lon="10.123315">
        <ele>625.019798</ele>
        <time>2025-05-18T18:33:28.877Z</time>
      </trkpt>
      <trkpt lat="47.958929" lon="10.122147">
        <ele>624.378279</ele>
        <time>2025-05-18T18:33:44.898Z</time>
      </trkpt>
      <trkpt lat="47.958657" lon="10.120988">
        <ele>623.476798</ele>
        <time>2025-05-18T18:34:00.346Z</time>
      </trkpt>
      <trkpt lat="47.958355" lon="10.119700">
        <ele>622.432187</ele>
        <time>2025-05-18T18:34:17.945Z</time>
      </trkpt>
      <trkpt lat="47.958217" lon="10.119616">
        <ele>622.261843</ele>
        <time>2025-05-18T18:34:20.892Z</time>
      </trkpt>
      <trkpt lat="47.958026" lon="10.119422">
        <ele>621.732483</ele>
        <time>2025-05-18T18:34:25.385Z</time>
      </trkpt>
      <trkpt lat="47.957902" lon="10.119345">
        <ele>621.411415</ele>
        <time>2025-05-18T18:34:27.947Z</time>
      </trkpt>
      <trkpt lat="47.957615" lon="10.119233">
        <ele>620.702215</ele>
        <time>2025-05-18T18:34:33.431Z</time>
      </trkpt>
      <trkpt lat="47.957323" lon="10.119189">
        <ele>620.000561</ele>
        <time>2025-05-18T18:34:38.658Z</time>
      </trkpt>
      <trkpt lat="47.956424" lon="10.119001">
        <ele>617.736852</ele>
        <time>2025-05-18T18:34:53.368Z</time>
      </trkpt>
      <trkpt lat="47.956096" lon="10.118792">
        <ele>616.162958</ele>
        <time>2025-05-18T18:34:58.913Z</time>
      </trkpt>
      <trkpt lat="47.955791" lon="10.118545">
        <ele>614.631637</ele>
        <time>2025-05-18T18:35:04.254Z</time>
      </trkpt>
      <trkpt lat="47.955689" lon="10.118310">
        <ele>613.803928</ele>
        <time>2025-05-18T18:35:07.094Z</time>
      </trkpt>
      <trkpt lat="47.955622" lon="10.117877">
        <ele>612.490397</ele>
        <time>2025-05-18T18:35:11.533Z</time>
      </trkpt>
      <trkpt lat="47.955432" lon="10.117024">
        <ele>609.932363</ele>
        <time>2025-05-18T18:35:20.774Z</time>
      </trkpt>
      <trkpt lat="47.955432" lon="10.116685">
        <ele>609.516704</ele>
        <time>2025-05-18T18:35:24.337Z</time>
      </trkpt>
      <trkpt lat="47.955432" lon="10.116625">
        <ele>609.443136</ele>
        <time>2025-05-18T18:35:24.969Z</time>
      </trkpt>
      <trkpt lat="47.955409" lon="10.116311">
        <ele>609.055834</ele>
        <time>2025-05-18T18:35:28.329Z</time>
      </trkpt>
      <trkpt lat="47.955261" lon="10.116331">
        <ele>608.783762</ele>
        <time>2025-05-18T18:35:30.718Z</time>
      </trkpt>
      <trkpt lat="47.955140" lon="10.116252">
        <ele>608.541978</ele>
        <time>2025-05-18T18:35:32.892Z</time>
      </trkpt>
      <trkpt lat="47.955022" lon="10.116074">
        <ele>608.234882</ele>
        <time>2025-05-18T18:35:35.734Z</time>
      </trkpt>
      <trkpt lat="47.954846" lon="10.115785">
        <ele>607.755926</ele>
        <time>2025-05-18T18:35:40.374Z</time>
      </trkpt>
      <trkpt lat="47.954732" lon="10.115696">
        <ele>607.520402</ele>
        <time>2025-05-18T18:35:42.908Z</time>
      </trkpt>
      <trkpt lat="47.954533" lon="10.115697">
        <ele>607.156062</ele>
        <time>2025-05-18T18:35:47.247Z</time>
      </trkpt>
      <trkpt lat="47.954486" lon="10.115755">
        <ele>607.044428</ele>
        <time>2025-05-18T18:35:48.633Z</time>
      </trkpt>
      <trkpt lat="47.954326" lon="10.115986">
        <ele>606.773586</ele>
        <time>2025-05-18T18:35:53.849Z</time>
      </trkpt>
      <trkpt lat="47.954144" lon="10.116152">
        <ele>607.118628</ele>
        <time>2025-05-18T18:35:58.863Z</time>
      </trkpt>
      <trkpt lat="47.953924" lon="10.116258">
        <ele>607.492633</ele>
        <time>2025-05-18T18:36:04.314Z</time>
      </trkpt>
      <trkpt lat="47.953702" lon="10.116459">
        <ele>607.912674</ele>
        <time>2025-05-18T18:36:10.455Z</time>
      </trkpt>
      <trkpt lat="47.953569" lon="10.116557">
        <ele>608.152626</ele>
        <time>2025-05-18T18:36:13.969Z</time>
      </trkpt>
      <trkpt lat="47.953406" lon="10.116581">
        <ele>608.417619</ele>
        <time>2025-05-18T18:36:17.830Z</time>
      </trkpt>
      <trkpt lat="47.953197" lon="10.116589">
        <ele>608.755865</ele>
        <time>2025-05-18T18:36:22.694Z</time>
      </trkpt>
      <trkpt lat="47.952821" lon="10.116488">
        <ele>609.373952</ele>
        <time>2025-05-18T18:36:31.487Z</time>
      </trkpt>
      <trkpt lat="47.952762" lon="10.116467">
        <ele>609.472081</ele>
        <time>2025-05-18T18:36:32.861Z</time>
      </trkpt>
      <trkpt lat="47.952260" lon="10.116319">
        <ele>609.577916</ele>
        <time>2025-05-18T18:36:44.053Z</time>
      </trkpt>
      <trkpt lat="47.951668" lon="10.116213">
        <ele>609.519015</ele>
        <time>2025-05-18T18:36:55.886Z</time>
      </trkpt>
      <trkpt lat="47.951408" lon="10.116198">
        <ele>609.493311</ele>
        <time>2025-05-18T18:37:01.264Z</time>
      </trkpt>
      <trkpt lat="47.951070" lon="10.116259">
        <ele>609.459677</ele>
        <time>2025-05-18T18:37:08.345Z</time>
      </trkpt>
      <trkpt lat="47.950733" lon="10.116401">
        <ele>609.451273</ele>
        <time>2025-05-18T18:37:15.521Z</time>
      </trkpt>
      <trkpt lat="47.950292" lon="10.116672">
        <ele>609.478053</ele>
        <time>2025-05-18T18:37:25.094Z</time>
      </trkpt>
      <trkpt lat="47.949872" lon="10.116863">
        <ele>609.502708</ele>
        <time>2025-05-18T18:37:34.348Z</time>
      </trkpt>
      <trkpt lat="47.949610" lon="10.116849">
        <ele>609.517430</ele>
        <time>2025-05-18T18:37:40.100Z</time>
      </trkpt>
      <trkpt lat="47.949437" lon="10.116765">
        <ele>609.527646</ele>
        <time>2025-05-18T18:37:44.096Z</time>
      </trkpt>
      <trkpt lat="47.949252" lon="10.116594">
        <ele>609.539865</ele>
        <time>2025-05-18T18:37:48.841Z</time>
      </trkpt>
      <trkpt lat="47.949187" lon="10.116506">
        <ele>609.564988</ele>
        <time>2025-05-18T18:37:50.766Z</time>
      </trkpt>
      <trkpt lat="47.948997" lon="10.116172">
        <ele>609.747388</ele>
        <time>2025-05-18T18:37:57.194Z</time>
      </trkpt>
      <trkpt lat="47.948844" lon="10.116030">
        <ele>609.859344</ele>
        <time>2025-05-18T18:38:01.140Z</time>
      </trkpt>
      <trkpt lat="47.948375" lon="10.115742">
        <ele>610.174496</ele>
        <time>2025-05-18T18:38:12.393Z</time>
      </trkpt>
      <trkpt lat="47.947918" lon="10.115413">
        <ele>610.489793</ele>
        <time>2025-05-18T18:38:23.658Z</time>
      </trkpt>
      <trkpt lat="47.947536" lon="10.115215">
        <ele>610.863660</ele>
        <time>2025-05-18T18:38:32.472Z</time>
      </trkpt>
      <trkpt lat="47.946831" lon="10.114975">
        <ele>611.996992</ele>
        <time>2025-05-18T18:38:48.690Z</time>
      </trkpt>
      <trkpt lat="47.946431" lon="10.114886">
        <ele>612.630849</ele>
        <time>2025-05-18T18:38:58.022Z</time>
      </trkpt>
      <trkpt lat="47.945230" lon="10.114796">
        <ele>615.577450</ele>
        <time>2025-05-18T18:39:26.784Z</time>
      </trkpt>
      <trkpt lat="47.945090" lon="10.114766">
        <ele>616.026344</ele>
        <time>2025-05-18T18:39:30.278Z</time>
      </trkpt>
      <trkpt lat="47.944932" lon="10.114638">
        <ele>616.596893</ele>
        <time>2025-05-18T18:39:34.747Z</time>
      </trkpt>
      <trkpt lat="47.944724" lon="10.114274">
        <ele>617.614085</ele>
        <time>2025-05-18T18:39:42.761Z</time>
      </trkpt>
      <trkpt lat="47.944308" lon="10.113376">
        <ele>619.618230</ele>
        <time>2025-05-18T18:40:00.911Z</time>
      </trkpt>
      <trkpt lat="47.944101" lon="10.112600">
        <ele>620.640274</ele>
        <time>2025-05-18T18:40:14.508Z</time>
      </trkpt>
      <trkpt lat="47.943857" lon="10.111833">
        <ele>621.679249</ele>
        <time>2025-05-18T18:40:27.874Z</time>
      </trkpt>
      <trkpt lat="47.943432" lon="10.110864">
        <ele>621.358907</ele>
        <time>2025-05-18T18:40:43.653Z</time>
      </trkpt>
      <trkpt lat="47.942985" lon="10.110097">
        <ele>619.131424</ele>
        <time>2025-05-18T18:40:55.008Z</time>
      </trkpt>
      <trkpt lat="47.942742" lon="10.109771">
        <ele>618.062825</ele>
        <time>2025-05-18T18:41:00.133Z</time>
      </trkpt>
      <trkpt lat="47.942713" lon="10.109731">
        <ele>617.933681</ele>
        <time>2025-05-18T18:41:00.715Z</time>
      </trkpt>
      <trkpt lat="47.942331" lon="10.109280">
        <ele>616.072170</ele>
        <time>2025-05-18T18:41:07.893Z</time>
      </trkpt>
      <trkpt lat="47.941882" lon="10.108878">
        <ele>612.521044</ele>
        <time>2025-05-18T18:41:15.798Z</time>
      </trkpt>
      <trkpt lat="47.941335" lon="10.108487">
        <ele>608.407553</ele>
        <time>2025-05-18T18:41:25.179Z</time>
      </trkpt>
      <trkpt lat="47.941202" lon="10.108337">
        <ele>607.276952</ele>
        <time>2025-05-18T18:41:27.655Z</time>
      </trkpt>
      <trkpt lat="47.941254" lon="10.108190">
        <ele>606.521638</ele>
        <time>2025-05-18T18:41:29.196Z</time>
      </trkpt>
      <trkpt lat="47.941091" lon="10.108109">
        <ele>605.356425</ele>
        <time>2025-05-18T18:41:31.561Z</time>
      </trkpt>
      <trkpt lat="47.940878" lon="10.107968">
        <ele>603.955856</ele>
        <time>2025-05-18T18:41:34.730Z</time>
      </trkpt>
      <trkpt lat="47.940490" lon="10.107751">
        <ele>601.966821</ele>
        <time>2025-05-18T18:41:40.563Z</time>
      </trkpt>
      <trkpt lat="47.940250" lon="10.107563">
        <ele>600.665701</ele>
        <time>2025-05-18T18:41:44.566Z</time>
      </trkpt>
      <trkpt lat="47.940040" lon="10.107335">
        <ele>599.419146</ele>
        <time>2025-05-18T18:41:48.504Z</time>
      </trkpt>
      <trkpt lat="47.939726" lon="10.106994">
        <ele>597.555083</ele>
        <time>2025-05-18T18:41:54.647Z</time>
      </trkpt>
      <trkpt lat="47.939435" lon="10.106680">
        <ele>595.831375</ele>
        <time>2025-05-18T18:42:00.871Z</time>
      </trkpt>
      <trkpt lat="47.939394" lon="10.106642">
        <ele>595.754885</ele>
        <time>2025-05-18T18:42:01.833Z</time>
      </trkpt>
      <trkpt lat="47.939201" lon="10.106465">
        <ele>595.740832</ele>
        <time>2025-05-18T18:42:06.698Z</time>
      </trkpt>
      <trkpt lat="47.938956" lon="10.106306">
        <ele>595.724257</ele>
        <time>2025-05-18T18:42:12.919Z</time>
      </trkpt>
      <trkpt lat="47.938726" lon="10.106222">
        <ele>595.709567</ele>
        <time>2025-05-18T18:42:18.374Z</time>
      </trkpt>
      <trkpt lat="47.938788" lon="10.105961">
        <ele>595.698057</ele>
        <time>2025-05-18T18:42:22.555Z</time>
      </trkpt>
      <trkpt lat="47.939000" lon="10.105344">
        <ele>595.669236</ele>
        <time>2025-05-18T18:42:32.635Z</time>
      </trkpt>
      <trkpt lat="47.939270" lon="10.104453">
        <ele>595.415019</ele>
        <time>2025-05-18T18:42:45.309Z</time>
      </trkpt>
      <trkpt lat="47.939423" lon="10.103852">
        <ele>595.047271</ele>
        <time>2025-05-18T18:42:53.271Z</time>
      </trkpt>
      <trkpt lat="47.939580" lon="10.103228">
        <ele>594.666011</ele>
        <time>2025-05-18T18:43:01.781Z</time>
      </trkpt>
      <trkpt lat="47.939661" lon="10.103055">
        <ele>594.545286</ele>
        <time>2025-05-18T18:43:04.533Z</time>
      </trkpt>
      <trkpt lat="47.939736" lon="10.103009">
        <ele>594.476055</ele>
        <time>2025-05-18T18:43:06.138Z</time>
      </trkpt>
      <trkpt lat="47.939986" lon="10.103008">
        <ele>594.262600</ele>
        <time>2025-05-18T18:43:11.142Z</time>
      </trkpt>
      <trkpt lat="47.940058" lon="10.102958">
        <ele>594.194799</ele>
        <time>2025-05-18T18:43:12.743Z</time>
      </trkpt>
      <trkpt lat="47.940121" lon="10.102836">
        <ele>594.109173</ele>
        <time>2025-05-18T18:43:14.834Z</time>
      </trkpt>
      <trkpt lat="47.940147" lon="10.102692">
        <ele>594.096207</ele>
        <time>2025-05-18T18:43:16.875Z</time>
      </trkpt>
      <trkpt lat="47.940432" lon="10.100179">
        <ele>593.865281</ele>
        <time>2025-05-18T18:43:53.102Z</time>
      </trkpt>
      <trkpt lat="47.940500" lon="10.099511">
        <ele>593.457566</ele>
        <time>2025-05-18T18:44:02.030Z</time>
      </trkpt>
      <trkpt lat="47.940483" lon="10.099163">
        <ele>593.247017</ele>
        <time>2025-05-18T18:44:06.521Z</time>
      </trkpt>
      <trkpt lat="47.940401" lon="10.098012">
        <ele>592.548559</ele>
        <time>2025-05-18T18:44:21.217Z</time>
      </trkpt>
      <trkpt lat="47.940392" lon="10.097909">
        <ele>592.485880</ele>
        <time>2025-05-18T18:44:22.550Z</time>
      </trkpt>
      <trkpt lat="47.940369" lon="10.097467">
        <ele>592.248382</ele>
        <time>2025-05-18T18:44:28.228Z</time>
      </trkpt>
      <trkpt lat="47.940355" lon="10.097196">
        <ele>592.215041</ele>
        <time>2025-05-18T18:44:31.759Z</time>
      </trkpt>
      <trkpt lat="47.940286" lon="10.095885">
        <ele>592.053732</ele>
        <time>2025-05-18T18:44:49.852Z</time>
      </trkpt>
      <trkpt lat="47.940284" lon="10.095856">
        <ele>592.050156</ele>
        <time>2025-05-18T18:44:50.260Z</time>
      </trkpt>
      <trkpt lat="47.940138" lon="10.095129">
        <ele>591.957057</ele>
        <time>2025-05-18T18:45:01.243Z</time>
      </trkpt>
      <trkpt lat="47.940070" lon="10.094842">
        <ele>591.950619</ele>
        <time>2025-05-18T18:45:05.738Z</time>
      </trkpt>
      <trkpt lat="47.939943" lon="10.094216">
        <ele>592.225612</ele>
        <time>2025-05-18T18:45:15.414Z</time>
      </trkpt>
      <trkpt lat="47.939908" lon="10.094026">
        <ele>592.308459</ele>
        <time>2025-05-18T18:45:18.297Z</time>
      </trkpt>
      <trkpt lat="47.939770" lon="10.093370">
        <ele>592.597540</ele>
        <time>2025-05-18T18:45:28.458Z</time>
      </trkpt>
      <trkpt lat="47.939754" lon="10.092904">
        <ele>592.793719</ele>
        <time>2025-05-18T18:45:35.399Z</time>
      </trkpt>
      <trkpt lat="47.939836" lon="10.092579">
        <ele>592.939729</ele>
        <time>2025-05-18T18:45:40.594Z</time>
      </trkpt>
      <trkpt lat="47.939949" lon="10.092393">
        <ele>593.045297</ele>
        <time>2025-05-18T18:45:44.343Z</time>
      </trkpt>
      <trkpt lat="47.939657" lon="10.091918">
        <ele>593.300314</ele>
        <time>2025-05-18T18:45:53.920Z</time>
      </trkpt>
      <trkpt lat="47.939477" lon="10.091703">
        <ele>593.436103</ele>
        <time>2025-05-18T18:45:58.945Z</time>
      </trkpt>
      <trkpt lat="47.939240" lon="10.091511">
        <ele>593.594937</ele>
        <time>2025-05-18T18:46:04.730Z</time>
      </trkpt>
      <trkpt lat="47.939266" lon="10.091212">
        <ele>593.713912</ele>
        <time>2025-05-18T18:46:09.085Z</time>
      </trkpt>
      <trkpt lat="47.939223" lon="10.090661">
        <ele>593.932807</ele>
        <time>2025-05-18T18:46:17.296Z</time>
      </trkpt>
      <trkpt lat="47.939216" lon="10.090472">
        <ele>594.007500</ele>
        <time>2025-05-18T18:46:20.128Z</time>
      </trkpt>
      <trkpt lat="47.939228" lon="10.090099">
        <ele>594.168602</ele>
        <time>2025-05-18T18:46:25.732Z</time>
      </trkpt>
      <trkpt lat="47.939290" lon="10.089731">
        <ele>594.369927</ele>
        <time>2025-05-18T18:46:31.433Z</time>
      </trkpt>
      <trkpt lat="47.938921" lon="10.089451">
        <ele>594.697758</ele>
        <time>2025-05-18T18:46:40.646Z</time>
      </trkpt>
      <trkpt lat="47.938735" lon="10.089223">
        <ele>594.888370</ele>
        <time>2025-05-18T18:46:45.923Z</time>
      </trkpt>
      <trkpt lat="47.938536" lon="10.088791">
        <ele>595.166531</ele>
        <time>2025-05-18T18:46:53.665Z</time>
      </trkpt>
      <trkpt lat="47.938067" lon="10.087697">
        <ele>596.567197</ele>
        <time>2025-05-18T18:47:13.156Z</time>
      </trkpt>
      <trkpt lat="47.937906" lon="10.087330">
        <ele>597.323720</ele>
        <time>2025-05-18T18:47:20.034Z</time>
      </trkpt>
      <trkpt lat="47.937755" lon="10.086989">
        <ele>598.028637</ele>
        <time>2025-05-18T18:47:26.598Z</time>
      </trkpt>
      <trkpt lat="47.937688" lon="10.086918">
        <ele>598.240150</ele>
        <time>2025-05-18T18:47:28.573Z</time>
      </trkpt>
      <trkpt lat="47.937431" lon="10.086877">
        <ele>598.905480</ele>
        <time>2025-05-18T18:47:34.897Z</time>
      </trkpt>
      <trkpt lat="47.937167" lon="10.086778">
        <ele>599.606179</ele>
        <time>2025-05-18T18:47:41.676Z</time>
      </trkpt>
      <trkpt lat="47.936949" lon="10.086650">
        <ele>600.215573</ele>
        <time>2025-05-18T18:47:47.582Z</time>
      </trkpt>
      <trkpt lat="47.936756" lon="10.086494">
        <ele>600.871088</ele>
        <time>2025-05-18T18:47:53.242Z</time>
      </trkpt>
      <trkpt lat="47.936512" lon="10.086180">
        <ele>601.833283</ele>
        <time>2025-05-18T18:48:01.532Z</time>
      </trkpt>
      <trkpt lat="47.936251" lon="10.085806">
        <ele>602.913874</ele>
        <time>2025-05-18T18:48:10.538Z</time>
      </trkpt>
      <trkpt lat="47.935865" lon="10.085105">
        <ele>604.729509</ele>
        <time>2025-05-18T18:48:24.996Z</time>
      </trkpt>
      <trkpt lat="47.935731" lon="10.084809">
        <ele>605.444331</ele>
        <time>2025-05-18T18:48:30.593Z</time>
      </trkpt>
      <trkpt lat="47.935466" lon="10.084353">
        <ele>605.808298</ele>
        <time>2025-05-18T18:48:39.853Z</time>
      </trkpt>
      <trkpt lat="47.935469" lon="10.084302">
        <ele>605.832911</ele>
        <time>2025-05-18T18:48:40.613Z</time>
      </trkpt>
      <trkpt lat="47.935264" lon="10.083863">
        <ele>606.090179</ele>
        <time>2025-05-18T18:48:48.533Z</time>
      </trkpt>
      <trkpt lat="47.935180" lon="10.083730">
        <ele>606.178055</ele>
        <time>2025-05-18T18:48:51.197Z</time>
      </trkpt>
      <trkpt lat="47.935077" lon="10.083706">
        <ele>606.252864</ele>
        <time>2025-05-18T18:48:53.445Z</time>
      </trkpt>
      <trkpt lat="47.934902" lon="10.083796">
        <ele>606.385690</ele>
        <time>2025-05-18T18:48:57.410Z</time>
      </trkpt>
      <trkpt lat="47.934649" lon="10.084110">
        <ele>606.621808</ele>
        <time>2025-05-18T18:49:04.365Z</time>
      </trkpt>
      <trkpt lat="47.934351" lon="10.084348">
        <ele>606.863177</ele>
        <time>2025-05-18T18:49:11.415Z</time>
      </trkpt>
      <trkpt lat="47.932547" lon="10.085621">
        <ele>608.403528</ele>
        <time>2025-05-18T18:49:55.731Z</time>
      </trkpt>
      <trkpt lat="47.931826" lon="10.086080">
        <ele>609.465246</ele>
        <time>2025-05-18T18:50:13.978Z</time>
      </trkpt>
      <trkpt lat="47.931525" lon="10.086238">
        <ele>609.897428</ele>
        <time>2025-05-18T18:50:21.375Z</time>
      </trkpt>
      <trkpt lat="47.930695" lon="10.086613">
        <ele>610.518803</ele>
        <time>2025-05-18T18:50:40.977Z</time>
      </trkpt>
      <trkpt lat="47.930110" lon="10.086768">
        <ele>610.528055</ele>
        <time>2025-05-18T18:50:53.342Z</time>
      </trkpt>
      <trkpt lat="47.929870" lon="10.086770">
        <ele>610.531792</ele>
        <time>2025-05-18T18:50:58.167Z</time>
      </trkpt>
      <trkpt lat="47.929672" lon="10.086708">
        <ele>610.534943</ele>
        <time>2025-05-18T18:51:02.155Z</time>
      </trkpt>
      <trkpt lat="47.929565" lon="10.086621">
        <ele>610.536840</ele>
        <time>2025-05-18T18:51:04.585Z</time>
      </trkpt>
      <trkpt lat="47.929442" lon="10.086441">
        <ele>610.539522</ele>
        <time>2025-05-18T18:51:08.036Z</time>
      </trkpt>
      <trkpt lat="47.929430" lon="10.086399">
        <ele>610.539999</ele>
        <time>2025-05-18T18:51:08.641Z</time>
      </trkpt>
      <trkpt lat="47.929395" lon="10.086284">
        <ele>610.525975</ele>
        <time>2025-05-18T18:51:10.369Z</time>
      </trkpt>
      <trkpt lat="47.929366" lon="10.085890">
        <ele>610.462604</ele>
        <time>2025-05-18T18:51:15.711Z</time>
      </trkpt>
      <trkpt lat="47.929288" lon="10.085632">
        <ele>610.417350</ele>
        <time>2025-05-18T18:51:19.557Z</time>
      </trkpt>
      <trkpt lat="47.929129" lon="10.085452">
        <ele>610.369731</ele>
        <time>2025-05-18T18:51:23.607Z</time>
      </trkpt>
      <trkpt lat="47.928764" lon="10.085184">
        <ele>610.272668</ele>
        <time>2025-05-18T18:51:31.935Z</time>
      </trkpt>
      <trkpt lat="47.927525" lon="10.084385">
        <ele>610.240314</ele>
        <time>2025-05-18T18:52:00.645Z</time>
      </trkpt>
      <trkpt lat="47.926868" lon="10.084152">
        <ele>610.369864</ele>
        <time>2025-05-18T18:52:15.268Z</time>
      </trkpt>
      <trkpt lat="47.926111" lon="10.083936">
        <ele>610.498120</ele>
        <time>2025-05-18T18:52:31.747Z</time>
      </trkpt>
      <trkpt lat="47.925150" lon="10.083753">
        <ele>610.624712</ele>
        <time>2025-05-18T18:52:52.553Z</time>
      </trkpt>
      <trkpt lat="47.924305" lon="10.083614">
        <ele>610.699612</ele>
        <time>2025-05-18T18:53:10.461Z</time>
      </trkpt>
      <trkpt lat="47.924024" lon="10.083584">
        <ele>610.706499</ele>
        <time>2025-05-18T18:53:16.421Z</time>
      </trkpt>
      <trkpt lat="47.922937" lon="10.083529">
        <ele>610.733090</ele>
        <time>2025-05-18T18:53:39.204Z</time>
      </trkpt>
      <trkpt lat="47.922112" lon="10.083537">
        <ele>610.722409</ele>
        <time>2025-05-18T18:53:56.906Z</time>
      </trkpt>
      <trkpt lat="47.921906" lon="10.083396">
        <ele>610.718455</ele>
        <time>2025-05-18T18:54:01.803Z</time>
      </trkpt>
      <trkpt lat="47.921699" lon="10.083165">
        <ele>610.713945</ele>
        <time>2025-05-18T18:54:07.351Z</time>
      </trkpt>
      <trkpt lat="47.921229" lon="10.082989">
        <ele>610.705491</ele>
        <time>2025-05-18T18:54:17.496Z</time>
      </trkpt>
      <trkpt lat="47.920867" lon="10.082880">
        <ele>610.515929</ele>
        <time>2025-05-18T18:54:24.913Z</time>
      </trkpt>
      <trkpt lat="47.920377" lon="10.082672">
        <ele>610.169921</ele>
        <time>2025-05-18T18:54:34.821Z</time>
      </trkpt>
      <trkpt lat="47.919741" lon="10.082268">
        <ele>609.700443</ele>
        <time>2025-05-18T18:54:48.147Z</time>
      </trkpt>
      <trkpt lat="47.918667" lon="10.082159">
        <ele>609.491195</ele>
        <time>2025-05-18T18:55:10.351Z</time>
      </trkpt>
      <trkpt lat="47.918086" lon="10.082224">
        <ele>609.498094</ele>
        <time>2025-05-18T18:55:23.000Z</time>
      </trkpt>
      <trkpt lat="47.917904" lon="10.082225">
        <ele>609.500249</ele>
        <time>2025-05-18T18:55:26.917Z</time>
      </trkpt>
      <trkpt lat="47.917763" lon="10.082171">
        <ele>609.501973</ele>
        <time>2025-05-18T18:55:30.064Z</time>
      </trkpt>
      <trkpt lat="47.917630" lon="10.082079">
        <ele>609.503119</ele>
        <time>2025-05-18T18:55:33.213Z</time>
      </trkpt>
      <trkpt lat="47.917322" lon="10.081719">
        <ele>609.490519</ele>
        <time>2025-05-18T18:55:41.569Z</time>
      </trkpt>
      <trkpt lat="47.917057" lon="10.081489">
        <ele>609.480647</ele>
        <time>2025-05-18T18:55:48.030Z</time>
      </trkpt>
      <trkpt lat="47.916108" lon="10.081086">
        <ele>609.448872</ele>
        <time>2025-05-18T18:56:08.463Z</time>
      </trkpt>
      <trkpt lat="47.915869" lon="10.080927">
        <ele>609.464469</ele>
        <time>2025-05-18T18:56:13.926Z</time>
      </trkpt>
      <trkpt lat="47.915671" lon="10.080722">
        <ele>609.492682</ele>
        <time>2025-05-18T18:56:18.994Z</time>
      </trkpt>
      <trkpt lat="47.915129" lon="10.080038">
        <ele>609.575787</ele>
        <time>2025-05-18T18:56:34.076Z</time>
      </trkpt>
      <trkpt lat="47.914989" lon="10.079946">
        <ele>609.593696</ele>
        <time>2025-05-18T18:56:37.354Z</time>
      </trkpt>
      <trkpt lat="47.914903" lon="10.079925">
        <ele>609.603897</ele>
        <time>2025-05-18T18:56:39.225Z</time>
      </trkpt>
      <trkpt lat="47.914758" lon="10.079938">
        <ele>609.620903</ele>
        <time>2025-05-18T18:56:42.359Z</time>
      </trkpt>
      <trkpt lat="47.914529" lon="10.080027">
        <ele>609.648606</ele>
        <time>2025-05-18T18:56:47.456Z</time>
      </trkpt>
      <trkpt lat="47.913547" lon="10.080611">
        <ele>609.985692</ele>
        <time>2025-05-18T18:57:10.422Z</time>
      </trkpt>
      <trkpt lat="47.913001" lon="10.081011">
        <ele>610.187665</ele>
        <time>2025-05-18T18:57:23.622Z</time>
      </trkpt>
      <trkpt lat="47.912700" lon="10.081107">
        <ele>610.277200</ele>
        <time>2025-05-18T18:57:30.282Z</time>
      </trkpt>
      <trkpt lat="47.912551" lon="10.081098">
        <ele>610.309504</ele>
        <time>2025-05-18T18:57:33.508Z</time>
      </trkpt>
      <trkpt lat="47.912411" lon="10.081047">
        <ele>610.340723</ele>
        <time>2025-05-18T18:57:36.609Z</time>
      </trkpt>
      <trkpt lat="47.911555" lon="10.080436">
        <ele>610.546286</ele>
        <time>2025-05-18T18:57:57.033Z</time>
      </trkpt>
      <trkpt lat="47.911362" lon="10.080338">
        <ele>610.590450</ele>
        <time>2025-05-18T18:58:01.393Z</time>
      </trkpt>
      <trkpt lat="47.910086" lon="10.079849">
        <ele>610.777070</ele>
        <time>2025-05-18T18:58:29.477Z</time>
      </trkpt>
      <trkpt lat="47.909858" lon="10.079713">
        <ele>610.807693</ele>
        <time>2025-05-18T18:58:34.685Z</time>
      </trkpt>
      <trkpt lat="47.909742" lon="10.079511">
        <ele>610.829928</ele>
        <time>2025-05-18T18:58:38.459Z</time>
      </trkpt>
      <trkpt lat="47.909582" lon="10.078732">
        <ele>610.934022</ele>
        <time>2025-05-18T18:58:50.127Z</time>
      </trkpt>
      <trkpt lat="47.909499" lon="10.078575">
        <ele>610.970351</ele>
        <time>2025-05-18T18:58:52.984Z</time>
      </trkpt>
      <trkpt lat="47.908857" lon="10.077689">
        <ele>611.207406</ele>
        <time>2025-05-18T18:59:11.818Z</time>
      </trkpt>
      <trkpt lat="47.907988" lon="10.076846">
        <ele>611.483075</ele>
        <time>2025-05-18T18:59:34.369Z</time>
      </trkpt>
      <trkpt lat="47.907299" lon="10.076227">
        <ele>611.692434</ele>
        <time>2025-05-18T18:59:51.689Z</time>
      </trkpt>
      <trkpt lat="47.906908" lon="10.075944">
        <ele>611.805558</ele>
        <time>2025-05-18T19:00:00.982Z</time>
      </trkpt>
      <trkpt lat="47.906822" lon="10.075883">
        <ele>611.829969</ele>
        <time>2025-05-18T19:00:03.015Z</time>
      </trkpt>
      <trkpt lat="47.906672" lon="10.075849">
        <ele>611.867415</ele>
        <time>2025-05-18T19:00:06.277Z</time>
      </trkpt>
      <trkpt lat="47.906404" lon="10.075558">
        <ele>611.949226</ele>
        <time>2025-05-18T19:00:13.379Z</time>
      </trkpt>
      <trkpt lat="47.906292" lon="10.075483">
        <ele>611.979525</ele>
        <time>2025-05-18T19:00:16.021Z</time>
      </trkpt>
      <trkpt lat="47.906102" lon="10.075464">
        <ele>612.026524</ele>
        <time>2025-05-18T19:00:20.112Z</time>
      </trkpt>
      <trkpt lat="47.905612" lon="10.075661">
        <ele>612.151775</ele>
        <time>2025-05-18T19:00:31.012Z</time>
      </trkpt>
      <trkpt lat="47.905078" lon="10.075753">
        <ele>612.285389</ele>
        <time>2025-05-18T19:00:42.674Z</time>
      </trkpt>
      <trkpt lat="47.903399" lon="10.076366">
        <ele>612.734965</ele>
        <time>2025-05-18T19:01:19.977Z</time>
      </trkpt>
      <trkpt lat="47.902823" lon="10.076700">
        <ele>612.816559</ele>
        <time>2025-05-18T19:01:33.079Z</time>
      </trkpt>
      <trkpt lat="47.902381" lon="10.077017">
        <ele>612.881312</ele>
        <time>2025-05-18T19:01:43.474Z</time>
      </trkpt>
      <trkpt lat="47.902036" lon="10.077057">
        <ele>612.927000</ele>
        <time>2025-05-18T19:01:50.841Z</time>
      </trkpt>
      <trkpt lat="47.901475" lon="10.077004">
        <ele>613.068772</ele>
        <time>2025-05-18T19:02:02.914Z</time>
      </trkpt>
      <trkpt lat="47.901292" lon="10.077000">
        <ele>613.149511</ele>
        <time>2025-05-18T19:02:06.876Z</time>
      </trkpt>
      <trkpt lat="47.900266" lon="10.077118">
        <ele>613.603476</ele>
        <time>2025-05-18T19:02:29.498Z</time>
      </trkpt>
      <trkpt lat="47.899799" lon="10.077210">
        <ele>613.806257</ele>
        <time>2025-05-18T19:02:39.834Z</time>
      </trkpt>
      <trkpt lat="47.899300" lon="10.077304">
        <ele>614.003599</ele>
        <time>2025-05-18T19:02:50.748Z</time>
      </trkpt>
      <trkpt lat="47.898260" lon="10.077383">
        <ele>614.412183</ele>
        <time>2025-05-18T19:03:13.369Z</time>
      </trkpt>
      <trkpt lat="47.897518" lon="10.077491">
        <ele>614.923305</ele>
        <time>2025-05-18T19:03:29.531Z</time>
      </trkpt>
      <trkpt lat="47.897369" lon="10.077598">
        <ele>615.049030</ele>
        <time>2025-05-18T19:03:33.185Z</time>
      </trkpt>
      <trkpt lat="47.896918" lon="10.078475">
        <ele>615.612414</ele>
        <time>2025-05-18T19:03:49.929Z</time>
      </trkpt>
      <trkpt lat="47.896682" lon="10.078901">
        <ele>615.897968</ele>
        <time>2025-05-18T19:03:58.259Z</time>
      </trkpt>
      <trkpt lat="47.896522" lon="10.079327">
        <ele>616.164360</ele>
        <time>2025-05-18T19:04:05.593Z</time>
      </trkpt>
      <trkpt lat="47.896418" lon="10.079509">
        <ele>616.294822</ele>
        <time>2025-05-18T19:04:09.183Z</time>
      </trkpt>
      <trkpt lat="47.896351" lon="10.079538">
        <ele>616.351590</ele>
        <time>2025-05-18T19:04:10.732Z</time>
      </trkpt>
      <trkpt lat="47.896167" lon="10.079476">
        <ele>616.505084</ele>
        <time>2025-05-18T19:04:14.975Z</time>
      </trkpt>
      <trkpt lat="47.895902" lon="10.079373">
        <ele>616.727917</ele>
        <time>2025-05-18T19:04:21.138Z</time>
      </trkpt>
      <trkpt lat="47.895890" lon="10.079367">
        <ele>616.738215</ele>
        <time>2025-05-18T19:04:21.424Z</time>
      </trkpt>
      <trkpt lat="47.895513" lon="10.079189">
        <ele>617.059985</ele>
        <time>2025-05-18T19:04:30.224Z</time>
      </trkpt>
      <trkpt lat="47.895302" lon="10.079192">
        <ele>617.231684</ele>
        <time>2025-05-18T19:04:34.824Z</time>
      </trkpt>
      <trkpt lat="47.894792" lon="10.079249">
        <ele>617.315645</ele>
        <time>2025-05-18T19:04:46.028Z</time>
      </trkpt>
      <trkpt lat="47.894548" lon="10.079258">
        <ele>617.323176</ele>
        <time>2025-05-18T19:04:51.353Z</time>
      </trkpt>
      <trkpt lat="47.894250" lon="10.079220">
        <ele>617.332406</ele>
        <time>2025-05-18T19:04:57.765Z</time>
      </trkpt>
      <trkpt lat="47.893734" lon="10.078972">
        <ele>617.349135</ele>
        <time>2025-05-18T19:05:08.917Z</time>
      </trkpt>
      <trkpt lat="47.893604" lon="10.078969">
        <ele>617.353147</ele>
        <time>2025-05-18T19:05:11.518Z</time>
      </trkpt>
      <trkpt lat="47.893757" lon="10.078417">
        <ele>617.337106</ele>
        <time>2025-05-18T19:05:19.479Z</time>
      </trkpt>
      <trkpt lat="47.893773" lon="10.078076">
        <ele>617.317225</ele>
        <time>2025-05-18T19:05:24.060Z</time>
      </trkpt>
      <trkpt lat="47.893755" lon="10.077890">
        <ele>617.306295</ele>
        <time>2025-05-18T19:05:26.602Z</time>
      </trkpt>
      <trkpt lat="47.893264" lon="10.077554">
        <ele>617.259437</ele>
        <time>2025-05-18T19:05:37.736Z</time>
      </trkpt>
      <trkpt lat="47.893067" lon="10.077378">
        <ele>617.239519</ele>
        <time>2025-05-18T19:05:42.619Z</time>
      </trkpt>
      <trkpt lat="47.892948" lon="10.077272">
        <ele>617.227496</ele>
        <time>2025-05-18T19:05:45.611Z</time>
      </trkpt>
      <trkpt lat="47.892668" lon="10.077022">
        <ele>617.219725</ele>
        <time>2025-05-18T19:05:52.830Z</time>
      </trkpt>
      <trkpt lat="47.892206" lon="10.076542">
        <ele>617.522518</ele>
        <time>2025-05-18T19:06:05.433Z</time>
      </trkpt>
      <trkpt lat="47.891847" lon="10.076103">
        <ele>617.772177</ele>
        <time>2025-05-18T19:06:15.713Z</time>
      </trkpt>
      <trkpt lat="47.891578" lon="10.075790">
        <ele>617.955657</ele>
        <time>2025-05-18T19:06:23.181Z</time>
      </trkpt>
      <trkpt lat="47.891029" lon="10.075080">
        <ele>618.146353</ele>
        <time>2025-05-18T19:06:38.869Z</time>
      </trkpt>
      <trkpt lat="47.890818" lon="10.074768">
        <ele>618.125662</ele>
        <time>2025-05-18T19:06:45.039Z</time>
      </trkpt>
      <trkpt lat="47.890729" lon="10.074499">
        <ele>618.111655</ele>
        <time>2025-05-18T19:06:49.197Z</time>
      </trkpt>
      <trkpt lat="47.890667" lon="10.073760">
        <ele>618.076879</ele>
        <time>2025-05-18T19:06:59.567Z</time>
      </trkpt>
      <trkpt lat="47.890568" lon="10.073204">
        <ele>618.050018</ele>
        <time>2025-05-18T19:07:07.559Z</time>
      </trkpt>
      <trkpt lat="47.890433" lon="10.072472">
        <ele>618.209438</ele>
        <time>2025-05-18T19:07:18.063Z</time>
      </trkpt>
      <trkpt lat="47.890295" lon="10.071867">
        <ele>618.376889</ele>
        <time>2025-05-18T19:07:27.290Z</time>
      </trkpt>
      <trkpt lat="47.890103" lon="10.071225">
        <ele>618.561088</ele>
        <time>2025-05-18T19:07:37.738Z</time>
      </trkpt>
      <trkpt lat="47.889865" lon="10.070796">
        <ele>618.706987</ele>
        <time>2025-05-18T19:07:46.060Z</time>
      </trkpt>
      <trkpt lat="47.889680" lon="10.070567">
        <ele>618.877840</ele>
        <time>2025-05-18T19:07:51.391Z</time>
      </trkpt>
      <trkpt lat="47.889477" lon="10.070401">
        <ele>619.097060</ele>
        <time>2025-05-18T19:07:56.546Z</time>
      </trkpt>
      <trkpt lat="47.889057" lon="10.070212">
        <ele>619.512466</ele>
        <time>2025-05-18T19:08:06.303Z</time>
      </trkpt>
      <trkpt lat="47.888568" lon="10.070037">
        <ele>619.988642</ele>
        <time>2025-05-18T19:08:17.479Z</time>
      </trkpt>
      <trkpt lat="47.888042" lon="10.069779">
        <ele>620.556552</ele>
        <time>2025-05-18T19:08:30.027Z</time>
      </trkpt>
      <trkpt lat="47.887536" lon="10.069460">
        <ele>621.437076</ele>
        <time>2025-05-18T19:08:42.790Z</time>
      </trkpt>
      <trkpt lat="47.887442" lon="10.069350">
        <ele>621.628592</ele>
        <time>2025-05-18T19:08:45.565Z</time>
      </trkpt>
      <trkpt lat="47.887341" lon="10.069213">
        <ele>621.847430</ele>
        <time>2025-05-18T19:08:48.737Z</time>
      </trkpt>
      <trkpt lat="47.887164" lon="10.068966">
        <ele>622.235974</ele>
        <time>2025-05-18T19:08:54.397Z</time>
      </trkpt>
      <trkpt lat="47.887023" lon="10.068778">
        <ele>622.539136</ele>
        <time>2025-05-18T19:08:58.784Z</time>
      </trkpt>
      <trkpt lat="47.886911" lon="10.068703">
        <ele>622.735921</ele>
        <time>2025-05-18T19:09:01.635Z</time>
      </trkpt>
      <trkpt lat="47.886831" lon="10.068645">
        <ele>622.878497</ele>
        <time>2025-05-18T19:09:03.701Z</time>
      </trkpt>
      <trkpt lat="47.886054" lon="10.068062">
        <ele>623.707980</ele>
        <time>2025-05-18T19:09:23.576Z</time>
      </trkpt>
      <trkpt lat="47.885847" lon="10.067913">
        <ele>623.855020</ele>
        <time>2025-05-18T19:09:28.606Z</time>
      </trkpt>
      <trkpt lat="47.885752" lon="10.067830">
        <ele>623.925455</ele>
        <time>2025-05-18T19:09:31.004Z</time>
      </trkpt>
      <trkpt lat="47.885159" lon="10.067354">
        <ele>624.356271</ele>
        <time>2025-05-18T19:09:45.559Z</time>
      </trkpt>
      <trkpt lat="47.885020" lon="10.067238">
        <ele>624.458169</ele>
        <time>2025-05-18T19:09:48.946Z</time>
      </trkpt>
      <trkpt lat="47.884800" lon="10.067054">
        <ele>624.428495</ele>
        <time>2025-05-18T19:09:54.208Z</time>
      </trkpt>
      <trkpt lat="47.884351" lon="10.066688">
        <ele>624.296049</ele>
        <time>2025-05-18T19:10:04.563Z</time>
      </trkpt>
      <trkpt lat="47.883596" lon="10.066099">
        <ele>624.075504</ele>
        <time>2025-05-18T19:10:21.771Z</time>
      </trkpt>
      <trkpt lat="47.883382" lon="10.065991">
        <ele>624.020803</ele>
        <time>2025-05-18T19:10:26.438Z</time>
      </trkpt>
      <trkpt lat="47.882614" lon="10.065686">
        <ele>624.629365</ele>
        <time>2025-05-18T19:10:43.626Z</time>
      </trkpt>
      <trkpt lat="47.882416" lon="10.065602">
        <ele>624.786991</ele>
        <time>2025-05-18T19:10:48.225Z</time>
      </trkpt>
      <trkpt lat="47.882166" lon="10.065406">
        <ele>625.003265</ele>
        <time>2025-05-18T19:10:54.613Z</time>
      </trkpt>
      <trkpt lat="47.880284" lon="10.063412">
        <ele>628.170458</ele>
        <time>2025-05-18T19:11:47.668Z</time>
      </trkpt>
      <trkpt lat="47.879724" lon="10.062873">
        <ele>629.563854</ele>
        <time>2025-05-18T19:12:03.114Z</time>
      </trkpt>
      <trkpt lat="47.878801" lon="10.061684">
        <ele>632.197001</ele>
        <time>2025-05-18T19:12:31.851Z</time>
      </trkpt>
      <trkpt lat="47.878352" lon="10.060961">
        <ele>634.206031</ele>
        <time>2025-05-18T19:12:47.829Z</time>
      </trkpt>
      <trkpt lat="47.877816" lon="10.060277">
        <ele>636.350808</ele>
        <time>2025-05-18T19:13:05.380Z</time>
      </trkpt>
      <trkpt lat="47.877502" lon="10.059721">
        <ele>637.763266</ele>
        <time>2025-05-18T19:13:17.304Z</time>
      </trkpt>
      <trkpt lat="47.877267" lon="10.059198">
        <ele>638.838792</ele>
        <time>2025-05-18T19:13:27.392Z</time>
      </trkpt>
      <trkpt lat="47.877132" lon="10.059055">
        <ele>639.260627</ele>
        <time>2025-05-18T19:13:31.327Z</time>
      </trkpt>
      <trkpt lat="47.877031" lon="10.059044">
        <ele>639.518587</ele>
        <time>2025-05-18T19:13:33.735Z</time>
      </trkpt>
      <trkpt lat="47.876611" lon="10.059124">
        <ele>640.597135</ele>
        <time>2025-05-18T19:13:43.716Z</time>
      </trkpt>
      <trkpt lat="47.876429" lon="10.059127">
        <ele>641.060766</ele>
        <time>2025-05-18T19:13:47.977Z</time>
      </trkpt>
      <trkpt lat="47.875216" lon="10.059039">
        <ele>644.674001</ele>
        <time>2025-05-18T19:14:16.726Z</time>
      </trkpt>
      <trkpt lat="47.874682" lon="10.058963">
        <ele>646.367859</ele>
        <time>2025-05-18T19:14:30.175Z</time>
      </trkpt>
      <trkpt lat="47.874524" lon="10.058979">
        <ele>646.867920</ele>
        <time>2025-05-18T19:14:34.175Z</time>
      </trkpt>
      <trkpt lat="47.873722" lon="10.059202">
        <ele>650.183986</ele>
        <time>2025-05-18T19:14:54.871Z</time>
      </trkpt>
      <trkpt lat="47.873557" lon="10.059143">
        <ele>650.942603</ele>
        <time>2025-05-18T19:14:59.325Z</time>
      </trkpt>
      <trkpt lat="47.873427" lon="10.059014">
        <ele>651.640795</ele>
        <time>2025-05-18T19:15:03.489Z</time>
      </trkpt>
      <trkpt lat="47.873118" lon="10.058618">
        <ele>653.462577</ele>
        <time>2025-05-18T19:15:14.370Z</time>
      </trkpt>
      <trkpt lat="47.872874" lon="10.058378">
        <ele>654.769516</ele>
        <time>2025-05-18T19:15:22.093Z</time>
      </trkpt>
      <trkpt lat="47.872799" lon="10.058313">
        <ele>655.157376</ele>
        <time>2025-05-18T19:15:24.379Z</time>
      </trkpt>
      <trkpt lat="47.872431" lon="10.058108">
        <ele>657.015927</ele>
        <time>2025-05-18T19:15:34.551Z</time>
      </trkpt>
      <trkpt lat="47.871977" lon="10.058006">
        <ele>659.242292</ele>
        <time>2025-05-18T19:15:46.512Z</time>
      </trkpt>
      <trkpt lat="47.871213" lon="10.057802">
        <ele>663.005985</ele>
        <time>2025-05-18T19:16:06.834Z</time>
      </trkpt>
      <trkpt lat="47.870901" lon="10.057764">
        <ele>664.580308</ele>
        <time>2025-05-18T19:16:15.243Z</time>
      </trkpt>
      <trkpt lat="47.870629" lon="10.057788">
        <ele>666.678883</ele>
        <time>2025-05-18T19:16:22.830Z</time>
      </trkpt>
      <trkpt lat="47.870252" lon="10.057955">
        <ele>669.707967</ele>
        <time>2025-05-18T19:16:34.515Z</time>
      </trkpt>
      <trkpt lat="47.869717" lon="10.058295">
        <ele>674.187279</ele>
        <time>2025-05-18T19:16:53.258Z</time>
      </trkpt>
      <trkpt lat="47.868810" lon="10.059260">
        <ele>683.614072</ele>
        <time>2025-05-18T19:17:32.129Z</time>
      </trkpt>
      <trkpt lat="47.868580" lon="10.059481">
        <ele>686.118124</ele>
        <time>2025-05-18T19:17:41.936Z</time>
      </trkpt>
      <trkpt lat="47.868433" lon="10.059577">
        <ele>687.586729</ele>
        <time>2025-05-18T19:17:47.665Z</time>
      </trkpt>
      <trkpt lat="47.867621" lon="10.060151">
        <ele>695.494286</ele>
        <time>2025-05-18T19:18:18.286Z</time>
      </trkpt>
      <trkpt lat="47.867452" lon="10.060349">
        <ele>696.880259</ele>
        <time>2025-05-18T19:18:24.892Z</time>
      </trkpt>
      <trkpt lat="47.867191" lon="10.060789">
        <ele>699.420809</ele>
        <time>2025-05-18T19:18:36.256Z</time>
      </trkpt>
      <trkpt lat="47.866977" lon="10.061331">
        <ele>702.141173</ele>
        <time>2025-05-18T19:18:47.832Z</time>
      </trkpt>
      <trkpt lat="47.866497" lon="10.062058">
        <ele>706.567005</ele>
        <time>2025-05-18T19:19:06.597Z</time>
      </trkpt>
      <trkpt lat="47.866221" lon="10.062440">
        <ele>709.148364</ele>
        <time>2025-05-18T19:19:17.345Z</time>
      </trkpt>
      <trkpt lat="47.865675" lon="10.063110">
        <ele>713.995482</ele>
        <time>2025-05-18T19:19:38.886Z</time>
      </trkpt>
      <trkpt lat="47.865103" lon="10.063987">
        <ele>719.468716</ele>
        <time>2025-05-18T19:20:04.464Z</time>
      </trkpt>
      <trkpt lat="47.864617" lon="10.064609">
        <ele>723.165019</ele>
        <time>2025-05-18T19:20:23.041Z</time>
      </trkpt>
      <trkpt lat="47.864341" lon="10.064974">
        <ele>725.294112</ele>
        <time>2025-05-18T19:20:33.422Z</time>
      </trkpt>
      <trkpt lat="47.864093" lon="10.065369">
        <ele>727.388442</ele>
        <time>2025-05-18T19:20:43.332Z</time>
      </trkpt>
      <trkpt lat="47.863510" lon="10.066233">
        <ele>730.202537</ele>
        <time>2025-05-18T19:21:04.093Z</time>
      </trkpt>
      <trkpt lat="47.863400" lon="10.066342">
        <ele>730.488456</ele>
        <time>2025-05-18T19:21:07.280Z</time>
      </trkpt>
      <trkpt lat="47.862895" lon="10.066629">
        <ele>731.658332</ele>
        <time>2025-05-18T19:21:19.867Z</time>
      </trkpt>
      <trkpt lat="47.862476" lon="10.066819">
        <ele>732.606335</ele>
        <time>2025-05-18T19:21:29.563Z</time>
      </trkpt>
      <trkpt lat="47.862245" lon="10.066886">
        <ele>732.936558</ele>
        <time>2025-05-18T19:21:34.511Z</time>
      </trkpt>
      <trkpt lat="47.861743" lon="10.066968">
        <ele>732.931788</ele>
        <time>2025-05-18T19:21:45.223Z</time>
      </trkpt>
      <trkpt lat="47.861491" lon="10.067053">
        <ele>732.929348</ele>
        <time>2025-05-18T19:21:50.631Z</time>
      </trkpt>
      <trkpt lat="47.860985" lon="10.067358">
        <ele>732.924193</ele>
        <time>2025-05-18T19:22:01.827Z</time>
      </trkpt>
      <trkpt lat="47.860764" lon="10.067563">
        <ele>732.921735</ele>
        <time>2025-05-18T19:22:07.375Z</time>
      </trkpt>
      <trkpt lat="47.860628" lon="10.067729">
        <ele>732.894982</ele>
        <time>2025-05-18T19:22:11.138Z</time>
      </trkpt>
      <trkpt lat="47.860416" lon="10.068068">
        <ele>732.623493</ele>
        <time>2025-05-18T19:22:17.714Z</time>
      </trkpt>
      <trkpt lat="47.860296" lon="10.067930">
        <ele>732.491151</ele>
        <time>2025-05-18T19:22:20.833Z</time>
      </trkpt>
      <trkpt lat="47.859925" lon="10.067224">
        <ele>731.965792</ele>
        <time>2025-05-18T19:22:32.740Z</time>
      </trkpt>
      <trkpt lat="47.859527" lon="10.065713">
        <ele>730.381940</ele>
        <time>2025-05-18T19:22:52.713Z</time>
      </trkpt>
      <trkpt lat="47.859394" lon="10.065229">
        <ele>729.496743</ele>
        <time>2025-05-18T19:22:58.558Z</time>
      </trkpt>
      <trkpt lat="47.859302" lon="10.064895">
        <ele>728.885673</ele>
        <time>2025-05-18T19:23:02.545Z</time>
      </trkpt>
      <trkpt lat="47.859279" lon="10.064813">
        <ele>728.735251</ele>
        <time>2025-05-18T19:23:03.527Z</time>
      </trkpt>
      <trkpt lat="47.859041" lon="10.064028">
        <ele>727.277306</ele>
        <time>2025-05-18T19:23:12.978Z</time>
      </trkpt>
      <trkpt lat="47.858937" lon="10.063795">
        <ele>726.809237</ele>
        <time>2025-05-18T19:23:16.114Z</time>
      </trkpt>
      <trkpt lat="47.858746" lon="10.063615">
        <ele>726.587446</ele>
        <time>2025-05-18T19:23:19.961Z</time>
      </trkpt>
      <trkpt lat="47.858432" lon="10.063528">
        <ele>726.273986</ele>
        <time>2025-05-18T19:23:25.592Z</time>
      </trkpt>
      <trkpt lat="47.858303" lon="10.063458">
        <ele>726.139247</ele>
        <time>2025-05-18T19:23:28.096Z</time>
      </trkpt>
      <trkpt lat="47.858202" lon="10.063366">
        <ele>726.023072</ele>
        <time>2025-05-18T19:23:30.320Z</time>
      </trkpt>
      <trkpt lat="47.856877" lon="10.061352">
        <ele>724.581718</ele>
        <time>2025-05-18T19:24:10.073Z</time>
      </trkpt>
      <trkpt lat="47.856619" lon="10.060972">
        <ele>724.393692</ele>
        <time>2025-05-18T19:24:17.520Z</time>
      </trkpt>
      <trkpt lat="47.855957" lon="10.060130">
        <ele>723.476373</ele>
        <time>2025-05-18T19:24:34.031Z</time>
      </trkpt>
      <trkpt lat="47.855549" lon="10.059724">
        <ele>722.535145</ele>
        <time>2025-05-18T19:24:42.560Z</time>
      </trkpt>
      <trkpt lat="47.855288" lon="10.059542">
        <ele>721.982298</ele>
        <time>2025-05-18T19:24:47.479Z</time>
      </trkpt>
      <trkpt lat="47.854926" lon="10.059396">
        <ele>721.262796</ele>
        <time>2025-05-18T19:24:53.894Z</time>
      </trkpt>
      <trkpt lat="47.854433" lon="10.059392">
        <ele>720.604174</ele>
        <time>2025-05-18T19:25:02.481Z</time>
      </trkpt>
      <trkpt lat="47.854276" lon="10.059354">
        <ele>720.551326</ele>
        <time>2025-05-18T19:25:05.351Z</time>
      </trkpt>
      <trkpt lat="47.853598" lon="10.058881">
        <ele>720.302590</ele>
        <time>2025-05-18T19:25:19.991Z</time>
      </trkpt>
      <trkpt lat="47.852770" lon="10.058429">
        <ele>720.495397</ele>
        <time>2025-05-18T19:25:39.684Z</time>
      </trkpt>
      <trkpt lat="47.851023" lon="10.057667">
        <ele>725.187585</ele>
        <time>2025-05-18T19:26:23.433Z</time>
      </trkpt>
      <trkpt lat="47.850304" lon="10.057428">
        <ele>727.607020</ele>
        <time>2025-05-18T19:26:42.158Z</time>
      </trkpt>
      <trkpt lat="47.849888" lon="10.057084">
        <ele>729.169548</ele>
        <time>2025-05-18T19:26:54.015Z</time>
      </trkpt>
      <trkpt lat="47.849663" lon="10.056813">
        <ele>730.119715</ele>
        <time>2025-05-18T19:27:01.069Z</time>
      </trkpt>
      <trkpt lat="47.849449" lon="10.056940">
        <ele>730.448292</ele>
        <time>2025-05-18T19:27:06.557Z</time>
      </trkpt>
      <trkpt lat="47.848946" lon="10.057081">
        <ele>730.404642</ele>
        <time>2025-05-18T19:27:19.245Z</time>
      </trkpt>
      <trkpt lat="47.848696" lon="10.057105">
        <ele>730.383277</ele>
        <time>2025-05-18T19:27:25.120Z</time>
      </trkpt>
      <trkpt lat="47.848325" lon="10.057080">
        <ele>730.351605</ele>
        <time>2025-05-18T19:27:33.173Z</time>
      </trkpt>
      <trkpt lat="47.846285" lon="10.056802">
        <ele>727.503912</ele>
        <time>2025-05-18T19:28:13.371Z</time>
      </trkpt>
      <trkpt lat="47.845895" lon="10.056347">
        <ele>726.969933</ele>
        <time>2025-05-18T19:28:23.778Z</time>
      </trkpt>
      <trkpt lat="47.845534" lon="10.056036">
        <ele>726.970512</ele>
        <time>2025-05-18T19:28:33.246Z</time>
      </trkpt>
      <trkpt lat="47.845086" lon="10.055115">
        <ele>726.971574</ele>
        <time>2025-05-18T19:28:51.716Z</time>
      </trkpt>
      <trkpt lat="47.844610" lon="10.054284">
        <ele>726.805679</ele>
        <time>2025-05-18T19:29:09.397Z</time>
      </trkpt>
      <trkpt lat="47.844312" lon="10.054487">
        <ele>726.636415</ele>
        <time>2025-05-18T19:29:20.719Z</time>
      </trkpt>
      <trkpt lat="47.842714" lon="10.054343">
        <ele>724.722823</ele>
        <time>2025-05-18T19:30:14.678Z</time>
      </trkpt>
      <trkpt lat="47.842460" lon="10.054168">
        <ele>723.905818</ele>
        <time>2025-05-18T19:30:23.142Z</time>
      </trkpt>
      <trkpt lat="47.842329" lon="10.054012">
        <ele>723.416212</ele>
        <time>2025-05-18T19:30:28.028Z</time>
      </trkpt>
      <trkpt lat="47.842303" lon="10.053919">
        <ele>723.218801</ele>
        <time>2025-05-18T19:30:29.977Z</time>
      </trkpt>
      <trkpt lat="47.842199" lon="10.053826">
        <ele>722.864682</ele>
        <time>2025-05-18T19:30:33.472Z</time>
      </trkpt>
      <trkpt lat="47.842126" lon="10.053548">
        <ele>722.279731</ele>
        <time>2025-05-18T19:30:39.182Z</time>
      </trkpt>
      <trkpt lat="47.842039" lon="10.053411">
        <ele>721.910160</ele>
        <time>2025-05-18T19:30:42.796Z</time>
      </trkpt>
      <trkpt lat="47.841508" lon="10.053905">
        <ele>719.834411</ele>
        <time>2025-05-18T19:30:56.374Z</time>
      </trkpt>
      <trkpt lat="47.839996" lon="10.055331">
        <ele>712.455398</ele>
        <time>2025-05-18T19:31:35.342Z</time>
      </trkpt>
      <trkpt lat="47.839708" lon="10.055113">
        <ele>710.730041</ele>
        <time>2025-05-18T19:31:42.059Z</time>
      </trkpt>
      <trkpt lat="47.839297" lon="10.054687">
        <ele>708.055905</ele>
        <time>2025-05-18T19:31:52.362Z</time>
      </trkpt>
      <trkpt lat="47.839191" lon="10.054671">
        <ele>707.486859</ele>
        <time>2025-05-18T19:31:54.534Z</time>
      </trkpt>
      <trkpt lat="47.839055" lon="10.054762">
        <ele>706.690586</ele>
        <time>2025-05-18T19:31:57.554Z</time>
      </trkpt>
      <trkpt lat="47.838683" lon="10.055228">
        <ele>704.094267</ele>
        <time>2025-05-18T19:32:07.362Z</time>
      </trkpt>
      <trkpt lat="47.838566" lon="10.055402">
        <ele>703.069577</ele>
        <time>2025-05-18T19:32:10.677Z</time>
      </trkpt>
      <trkpt lat="47.838382" lon="10.055792">
        <ele>701.086264</ele>
        <time>2025-05-18T19:32:17.076Z</time>
      </trkpt>
      <trkpt lat="47.838332" lon="10.055846">
        <ele>700.703479</ele>
        <time>2025-05-18T19:32:18.325Z</time>
      </trkpt>
      <trkpt lat="47.838210" lon="10.055862">
        <ele>699.944354</ele>
        <time>2025-05-18T19:32:20.731Z</time>
      </trkpt>
      <trkpt lat="47.838119" lon="10.055758">
        <ele>699.233455</ele>
        <time>2025-05-18T19:32:22.982Z</time>
      </trkpt>
      <trkpt lat="47.838132" lon="10.055673">
        <ele>698.870748</ele>
        <time>2025-05-18T19:32:23.867Z</time>
      </trkpt>
      <trkpt lat="47.838081" lon="10.055479">
        <ele>698.003912</ele>
        <time>2025-05-18T19:32:25.963Z</time>
      </trkpt>
      <trkpt lat="47.837781" lon="10.055017">
        <ele>695.329499</ele>
        <time>2025-05-18T19:32:32.451Z</time>
      </trkpt>
      <trkpt lat="47.837483" lon="10.054520">
        <ele>692.924209</ele>
        <time>2025-05-18T19:32:39.287Z</time>
      </trkpt>
      <trkpt lat="47.837250" lon="10.053955">
        <ele>692.750438</ele>
        <time>2025-05-18T19:32:46.624Z</time>
      </trkpt>
      <trkpt lat="47.837150" lon="10.053782">
        <ele>692.690609</ele>
        <time>2025-05-18T19:32:49.494Z</time>
      </trkpt>
      <trkpt lat="47.837036" lon="10.053654">
        <ele>692.634878</ele>
        <time>2025-05-18T19:32:52.433Z</time>
      </trkpt>
      <trkpt lat="47.836790" lon="10.053471">
        <ele>692.527531</ele>
        <time>2025-05-18T19:32:58.756Z</time>
      </trkpt>
      <trkpt lat="47.836625" lon="10.053255">
        <ele>692.441778</ele>
        <time>2025-05-18T19:33:04.047Z</time>
      </trkpt>
      <trkpt lat="47.836242" lon="10.052084">
        <ele>693.367452</ele>
        <time>2025-05-18T19:33:26.140Z</time>
      </trkpt>
      <trkpt lat="47.835741" lon="10.051031">
        <ele>695.958794</ele>
        <time>2025-05-18T19:33:47.719Z</time>
      </trkpt>
      <trkpt lat="47.835563" lon="10.050590">
        <ele>696.991947</ele>
        <time>2025-05-18T19:33:56.151Z</time>
      </trkpt>
      <trkpt lat="47.835417" lon="10.050125">
        <ele>698.005329</ele>
        <time>2025-05-18T19:34:04.609Z</time>
      </trkpt>
      <trkpt lat="47.835325" lon="10.049688">
        <ele>698.884698</ele>
        <time>2025-05-18T19:34:12.242Z</time>
      </trkpt>
      <trkpt lat="47.835303" lon="10.049304">
        <ele>699.624687</ele>
        <time>2025-05-18T19:34:18.735Z</time>
      </trkpt>
      <trkpt lat="47.835309" lon="10.048796">
        <ele>700.600234</ele>
        <time>2025-05-18T19:34:27.461Z</time>
      </trkpt>
      <trkpt lat="47.835384" lon="10.046463">
        <ele>702.296857</ele>
        <time>2025-05-18T19:35:05.716Z</time>
      </trkpt>
      <trkpt lat="47.835379" lon="10.045777">
        <ele>702.026758</ele>
        <time>2025-05-18T19:35:13.974Z</time>
      </trkpt>
      <trkpt lat="47.835343" lon="10.045388">
        <ele>701.872158</ele>
        <time>2025-05-18T19:35:18.452Z</time>
      </trkpt>
      <trkpt lat="47.835257" lon="10.044943">
        <ele>701.519365</ele>
        <time>2025-05-18T19:35:23.652Z</time>
      </trkpt>
      <trkpt lat="47.835130" lon="10.044574">
        <ele>700.305347</ele>
        <time>2025-05-18T19:35:28.196Z</time>
      </trkpt>
      <trkpt lat="47.834859" lon="10.044124">
        <ele>698.535428</ele>
        <time>2025-05-18T19:35:34.838Z</time>
      </trkpt>
      <trkpt lat="47.834761" lon="10.044033">
        <ele>698.031780</ele>
        <time>2025-05-18T19:35:36.737Z</time>
      </trkpt>
      <trkpt lat="47.834389" lon="10.043668">
        <ele>696.089055</ele>
        <time>2025-05-18T19:35:44.019Z</time>
      </trkpt>
      <trkpt lat="47.833997" lon="10.043396">
        <ele>694.203035</ele>
        <time>2025-05-18T19:35:51.087Z</time>
      </trkpt>
      <trkpt lat="47.832315" lon="10.042393">
        <ele>683.632813</ele>
        <time>2025-05-18T19:36:18.635Z</time>
      </trkpt>
      <trkpt lat="47.831530" lon="10.041935">
        <ele>680.231670</ele>
        <time>2025-05-18T19:36:32.374Z</time>
      </trkpt>
      <trkpt lat="47.830525" lon="10.041289">
        <ele>676.071797</ele>
        <time>2025-05-18T19:36:51.245Z</time>
      </trkpt>
      <trkpt lat="47.830421" lon="10.041225">
        <ele>675.770048</ele>
        <time>2025-05-18T19:36:53.103Z</time>
      </trkpt>
      <trkpt lat="47.830207" lon="10.041053">
        <ele>675.117976</ele>
        <time>2025-05-18T19:36:56.931Z</time>
      </trkpt>
      <trkpt lat="47.830017" lon="10.040909">
        <ele>674.546312</ele>
        <time>2025-05-18T19:37:00.329Z</time>
      </trkpt>
      <trkpt lat="47.829743" lon="10.040602">
        <ele>673.626896</ele>
        <time>2025-05-18T19:37:05.806Z</time>
      </trkpt>
      <trkpt lat="47.829544" lon="10.040226">
        <ele>672.764942</ele>
        <time>2025-05-18T19:37:11.094Z</time>
      </trkpt>
      <trkpt lat="47.829166" lon="10.039277">
        <ele>671.995181</ele>
        <time>2025-05-18T19:37:25.276Z</time>
      </trkpt>
      <trkpt lat="47.829042" lon="10.038960">
        <ele>672.526442</ele>
        <time>2025-05-18T19:37:30.914Z</time>
      </trkpt>
      <trkpt lat="47.828863" lon="10.038496">
        <ele>673.301361</ele>
        <time>2025-05-18T19:37:39.552Z</time>
      </trkpt>
      <trkpt lat="47.828768" lon="10.038272">
        <ele>673.685023</ele>
        <time>2025-05-18T19:37:43.928Z</time>
      </trkpt>
      <trkpt lat="47.828711" lon="10.038247">
        <ele>673.813187</ele>
        <time>2025-05-18T19:37:45.402Z</time>
      </trkpt>
      <trkpt lat="47.828701" lon="10.038150">
        <ele>673.955293</ele>
        <time>2025-05-18T19:37:47.061Z</time>
      </trkpt>
      <trkpt lat="47.828683" lon="10.038013">
        <ele>674.157439</ele>
        <time>2025-05-18T19:37:49.428Z</time>
      </trkpt>
      <trkpt lat="47.828523" lon="10.037465">
        <ele>675.022764</ele>
        <time>2025-05-18T19:37:59.782Z</time>
      </trkpt>
      <trkpt lat="47.827902" lon="10.035611">
        <ele>681.458435</ele>
        <time>2025-05-18T19:38:38.321Z</time>
      </trkpt>
      <trkpt lat="47.827784" lon="10.035304">
        <ele>682.624712</ele>
        <time>2025-05-18T19:38:44.987Z</time>
      </trkpt>
      <trkpt lat="47.827590" lon="10.035013">
        <ele>683.976758</ele>
        <time>2025-05-18T19:38:52.560Z</time>
      </trkpt>
      <trkpt lat="47.827131" lon="10.034604">
        <ele>684.565072</ele>
        <time>2025-05-18T19:39:05.703Z</time>
      </trkpt>
      <trkpt lat="47.826803" lon="10.034536">
        <ele>684.831942</ele>
        <time>2025-05-18T19:39:13.183Z</time>
      </trkpt>
      <trkpt lat="47.826586" lon="10.034406">
        <ele>685.020428</ele>
        <time>2025-05-18T19:39:18.174Z</time>
      </trkpt>
      <trkpt lat="47.826453" lon="10.034391">
        <ele>685.127914</ele>
        <time>2025-05-18T19:39:20.832Z</time>
      </trkpt>
      <trkpt lat="47.826302" lon="10.034442">
        <ele>685.252688</ele>
        <time>2025-05-18T19:39:23.695Z</time>
      </trkpt>
      <trkpt lat="47.826115" lon="10.034474">
        <ele>685.404375</ele>
        <time>2025-05-18T19:39:27.053Z</time>
      </trkpt>
      <trkpt lat="47.825997" lon="10.034375">
        <ele>685.513515</ele>
        <time>2025-05-18T19:39:29.519Z</time>
      </trkpt>
      <trkpt lat="47.825626" lon="10.033825">
        <ele>685.062747</ele>
        <time>2025-05-18T19:39:38.855Z</time>
      </trkpt>
      <trkpt lat="47.825494" lon="10.033517">
        <ele>684.722963</ele>
        <time>2025-05-18T19:39:43.081Z</time>
      </trkpt>
      <trkpt lat="47.825448" lon="10.033247">
        <ele>684.463934</ele>
        <time>2025-05-18T19:39:46.511Z</time>
      </trkpt>
      <trkpt lat="47.825462" lon="10.032976">
        <ele>684.211187</ele>
        <time>2025-05-18T19:39:49.954Z</time>
      </trkpt>
      <trkpt lat="47.825538" lon="10.032582">
        <ele>683.829988</ele>
        <time>2025-05-18T19:39:54.943Z</time>
      </trkpt>
      <trkpt lat="47.825528" lon="10.032116">
        <ele>683.396436</ele>
        <time>2025-05-18T19:40:00.638Z</time>
      </trkpt>
      <trkpt lat="47.825342" lon="10.030624">
        <ele>681.861067</ele>
        <time>2025-05-18T19:40:22.033Z</time>
      </trkpt>
      <trkpt lat="47.825389" lon="10.030416">
        <ele>681.634704</ele>
        <time>2025-05-18T19:40:25.100Z</time>
      </trkpt>
      <trkpt lat="47.825463" lon="10.030255">
        <ele>681.433457</ele>
        <time>2025-05-18T19:40:27.791Z</time>
      </trkpt>
      <trkpt lat="47.825472" lon="10.030027">
        <ele>681.197884</ele>
        <time>2025-05-18T19:40:30.825Z</time>
      </trkpt>
      <trkpt lat="47.825500" lon="10.029378">
        <ele>680.527104</ele>
        <time>2025-05-18T19:40:39.191Z</time>
      </trkpt>
      <trkpt lat="47.825370" lon="10.029046">
        <ele>679.569558</ele>
        <time>2025-05-18T19:40:43.510Z</time>
      </trkpt>
      <trkpt lat="47.825334" lon="10.028755">
        <ele>678.517614</ele>
        <time>2025-05-18T19:40:46.722Z</time>
      </trkpt>
      <trkpt lat="47.825151" lon="10.027918">
        <ele>675.388205</ele>
        <time>2025-05-18T19:40:55.260Z</time>
      </trkpt>
      <trkpt lat="47.825103" lon="10.027595">
        <ele>674.212117</ele>
        <time>2025-05-18T19:40:58.358Z</time>
      </trkpt>
      <trkpt lat="47.825043" lon="10.027378">
        <ele>673.377802</ele>
        <time>2025-05-18T19:41:00.567Z</time>
      </trkpt>
      <trkpt lat="47.824979" lon="10.027127">
        <ele>672.423288</ele>
        <time>2025-05-18T19:41:04.141Z</time>
      </trkpt>
      <trkpt lat="47.824959" lon="10.026843">
        <ele>671.408099</ele>
        <time>2025-05-18T19:41:08.074Z</time>
      </trkpt>
      <trkpt lat="47.824995" lon="10.026145">
        <ele>670.080197</ele>
        <time>2025-05-18T19:41:18.778Z</time>
      </trkpt>
      <trkpt lat="47.825102" lon="10.025932">
        <ele>669.707248</ele>
        <time>2025-05-18T19:41:23.174Z</time>
      </trkpt>
      <trkpt lat="47.825359" lon="10.025883">
        <ele>669.166225</ele>
        <time>2025-05-18T19:41:28.195Z</time>
      </trkpt>
      <trkpt lat="47.825421" lon="10.025713">
        <ele>668.895002</ele>
        <time>2025-05-18T19:41:30.713Z</time>
      </trkpt>
      <trkpt lat="47.825491" lon="10.025661">
        <ele>668.731664</ele>
        <time>2025-05-18T19:41:32.100Z</time>
      </trkpt>
      <trkpt lat="47.825937" lon="10.025407">
        <ele>667.734611</ele>
        <time>2025-05-18T19:41:41.218Z</time>
      </trkpt>
      <trkpt lat="47.826442" lon="10.025220">
        <ele>666.328882</ele>
        <time>2025-05-18T19:41:51.807Z</time>
      </trkpt>
      <trkpt lat="47.826433" lon="10.025141">
        <ele>666.133616</ele>
        <time>2025-05-18T19:41:52.737Z</time>
      </trkpt>
      <trkpt lat="47.826427" lon="10.024987">
        <ele>665.757703</ele>
        <time>2025-05-18T19:41:54.511Z</time>
      </trkpt>
      <trkpt lat="47.826604" lon="10.024908">
        <ele>665.087026</ele>
        <time>2025-05-18T19:41:57.477Z</time>
      </trkpt>
      <trkpt lat="47.826855" lon="10.024795">
        <ele>664.135270</ele>
        <time>2025-05-18T19:42:15.721Z</time>
      </trkpt>
      <trkpt lat="47.827010" lon="10.024724">
        <ele>663.546666</ele>
        <time>2025-05-18T19:42:26.981Z</time>
      </trkpt>
      <trkpt lat="47.826804" lon="10.024107">
        <ele>661.867460</ele>
        <time>2025-05-18T19:42:59.192Z</time>
      </trkpt>
      <trkpt lat="47.826883" lon="10.024071">
        <ele>661.567596</ele>
        <time>2025-05-18T19:43:00.576Z</time>
      </trkpt>
      <trkpt lat="47.826889" lon="10.023902">
        <ele>661.155189</ele>
        <time>2025-05-18T19:43:02.455Z</time>
      </trkpt>
      <trkpt lat="47.826863" lon="10.023777">
        <ele>660.836297</ele>
        <time>2025-05-18T19:43:03.915Z</time>
      </trkpt>
      <trkpt lat="47.826856" lon="10.023741">
        <ele>660.744964</ele>
        <time>2025-05-18T19:43:04.329Z</time>
      </trkpt>
      <trkpt lat="47.826853" lon="10.023727">
        <ele>660.709152</ele>
        <time>2025-05-18T19:43:04.494Z</time>
      </trkpt>
      <trkpt lat="47.826851" lon="10.023718">
        <ele>660.686050</ele>
        <time>2025-05-18T19:43:04.604Z</time>
      </trkpt>
      <trkpt lat="47.826849" lon="10.023709">
        <ele>660.662948</ele>
        <time>2025-05-18T19:43:04.709Z</time>
      </trkpt>
      <trkpt lat="47.826832" lon="10.023624">
        <ele>660.512385</ele>
        <time>2025-05-18T19:43:05.705Z</time>
      </trkpt>
      <trkpt lat="47.826827" lon="10.023602">
        <ele>660.491136</ele>
        <time>2025-05-18T19:43:05.963Z</time>
      </trkpt>
      <trkpt lat="47.826825" lon="10.023593">
        <ele>660.482463</ele>
        <time>2025-05-18T19:43:06.067Z</time>
      </trkpt>
      <trkpt lat="47.826821" lon="10.023575">
        <ele>660.465118</ele>
        <time>2025-05-18T19:43:06.272Z</time>
      </trkpt>
      <trkpt lat="47.826820" lon="10.023570">
        <ele>660.460345</ele>
        <time>2025-05-18T19:43:06.336Z</time>
      </trkpt>
      <trkpt lat="47.826809" lon="10.023515">
        <ele>660.407843</ele>
        <time>2025-05-18T19:43:06.965Z</time>
      </trkpt>
      <trkpt lat="47.826766" lon="10.023306">
        <ele>660.207865</ele>
        <time>2025-05-18T19:43:09.415Z</time>
      </trkpt>
      <trkpt lat="47.826688" lon="10.023280">
        <ele>660.098950</ele>
        <time>2025-05-18T19:43:10.755Z</time>
      </trkpt>
      <trkpt lat="47.826653" lon="10.023024">
        <ele>659.859943</ele>
        <time>2025-05-18T19:43:13.761Z</time>
      </trkpt>
      <trkpt lat="47.826449" lon="10.022216">
        <ele>659.070208</ele>
        <time>2025-05-18T19:43:24.887Z</time>
      </trkpt>
      <trkpt lat="47.826653" lon="10.023024">
        <ele>658.280472</ele>
        <time>2025-05-18T19:43:38.005Z</time>
      </trkpt>
      <trkpt lat="47.826688" lon="10.023280">
        <ele>658.095922</ele>
        <time>2025-05-18T19:43:42.064Z</time>
      </trkpt>
      <trkpt lat="47.826766" lon="10.023306">
        <ele>658.086817</ele>
        <time>2025-05-18T19:43:43.907Z</time>
      </trkpt>
      <trkpt lat="47.826809" lon="10.023515">
        <ele>658.070098</ele>
        <time>2025-05-18T19:43:47.374Z</time>
      </trkpt>
      <trkpt lat="47.826820" lon="10.023570">
        <ele>658.065709</ele>
        <time>2025-05-18T19:43:48.280Z</time>
      </trkpt>
      <trkpt lat="47.826821" lon="10.023575">
        <ele>658.065310</ele>
        <time>2025-05-18T19:43:48.371Z</time>
      </trkpt>
      <trkpt lat="47.826825" lon="10.023593">
        <ele>658.063860</ele>
        <time>2025-05-18T19:43:48.656Z</time>
      </trkpt>
      <trkpt lat="47.826827" lon="10.023602">
        <ele>658.063135</ele>
        <time>2025-05-18T19:43:48.796Z</time>
      </trkpt>
      <trkpt lat="47.826832" lon="10.023624">
        <ele>658.061359</ele>
        <time>2025-05-18T19:43:49.143Z</time>
      </trkpt>
      <trkpt lat="47.826849" lon="10.023709">
        <ele>658.054576</ele>
        <time>2025-05-18T19:43:50.519Z</time>
      </trkpt>
      <trkpt lat="47.826851" lon="10.023718">
        <ele>658.053851</ele>
        <time>2025-05-18T19:43:50.670Z</time>
      </trkpt>
      <trkpt lat="47.826853" lon="10.023727">
        <ele>658.053126</ele>
        <time>2025-05-18T19:43:50.825Z</time>
      </trkpt>
      <trkpt lat="47.826856" lon="10.023741">
        <ele>658.052002</ele>
        <time>2025-05-18T19:43:51.048Z</time>
      </trkpt>
      <trkpt lat="47.826853" lon="10.023727">
        <ele>658.050878</ele>
        <time>2025-05-18T19:43:51.276Z</time>
      </trkpt>
      <trkpt lat="47.826851" lon="10.023718">
        <ele>658.050153</ele>
        <time>2025-05-18T19:43:51.432Z</time>
      </trkpt>
      <trkpt lat="47.826849" lon="10.023709">
        <ele>658.049428</ele>
        <time>2025-05-18T19:43:51.581Z</time>
      </trkpt>
      <trkpt lat="47.826832" lon="10.023624">
        <ele>658.042645</ele>
        <time>2025-05-18T19:43:52.899Z</time>
      </trkpt>
      <trkpt lat="47.826827" lon="10.023602">
        <ele>658.040868</ele>
        <time>2025-05-18T19:43:53.246Z</time>
      </trkpt>
      <trkpt lat="47.826825" lon="10.023593">
        <ele>658.040143</ele>
        <time>2025-05-18T19:43:53.389Z</time>
      </trkpt>
      <trkpt lat="47.826821" lon="10.023575">
        <ele>658.038693</ele>
        <time>2025-05-18T19:43:53.670Z</time>
      </trkpt>
      <trkpt lat="47.826820" lon="10.023570">
        <ele>658.038294</ele>
        <time>2025-05-18T19:43:53.762Z</time>
      </trkpt>
      <trkpt lat="47.826809" lon="10.023515">
        <ele>658.033905</ele>
        <time>2025-05-18T19:43:54.644Z</time>
      </trkpt>
      <trkpt lat="47.826820" lon="10.023570">
        <ele>658.029516</ele>
        <time>2025-05-18T19:43:55.546Z</time>
      </trkpt>
      <trkpt lat="47.826821" lon="10.023575">
        <ele>658.029117</ele>
        <time>2025-05-18T19:43:55.630Z</time>
      </trkpt>
      <trkpt lat="47.826825" lon="10.023593">
        <ele>658.027667</ele>
        <time>2025-05-18T19:43:55.899Z</time>
      </trkpt>
      <trkpt lat="47.826827" lon="10.023602">
        <ele>658.026942</ele>
        <time>2025-05-18T19:43:56.037Z</time>
      </trkpt>
      <trkpt lat="47.826832" lon="10.023624">
        <ele>658.025165</ele>
        <time>2025-05-18T19:43:56.371Z</time>
      </trkpt>
      <trkpt lat="47.826849" lon="10.023709">
        <ele>658.018382</ele>
        <time>2025-05-18T19:43:57.714Z</time>
      </trkpt>
      <trkpt lat="47.826832" lon="10.023624">
        <ele>658.011599</ele>
        <time>2025-05-18T19:43:59.070Z</time>
      </trkpt>
      <trkpt lat="47.826827" lon="10.023602">
        <ele>658.009823</ele>
        <time>2025-05-18T19:43:59.401Z</time>
      </trkpt>
      <trkpt lat="47.826825" lon="10.023593">
        <ele>658.009098</ele>
        <time>2025-05-18T19:43:59.536Z</time>
      </trkpt>
      <trkpt lat="47.826821" lon="10.023575">
        <ele>658.007648</ele>
        <time>2025-05-18T19:43:59.794Z</time>
      </trkpt>
      <trkpt lat="47.826820" lon="10.023570">
        <ele>658.007249</ele>
        <time>2025-05-18T19:43:59.872Z</time>
      </trkpt>
      <trkpt lat="47.826821" lon="10.023575">
        <ele>658.006850</ele>
        <time>2025-05-18T19:43:59.956Z</time>
      </trkpt>
      <trkpt lat="47.826825" lon="10.023593">
        <ele>658.005399</ele>
        <time>2025-05-18T19:44:00.224Z</time>
      </trkpt>
      <trkpt lat="47.826827" lon="10.023602">
        <ele>658.004674</ele>
        <time>2025-05-18T19:44:00.361Z</time>
      </trkpt>
      <trkpt lat="47.826832" lon="10.023624">
        <ele>658.002898</ele>
        <time>2025-05-18T19:44:00.714Z</time>
      </trkpt>
      <trkpt lat="47.826849" lon="10.023709">
        <ele>657.996115</ele>
        <time>2025-05-18T19:44:02.063Z</time>
      </trkpt>
      <trkpt lat="47.826851" lon="10.023718">
        <ele>657.995390</ele>
        <time>2025-05-18T19:44:02.203Z</time>
      </trkpt>
      <trkpt lat="47.826853" lon="10.023727">
        <ele>657.994665</ele>
        <time>2025-05-18T19:44:02.349Z</time>
      </trkpt>
      <trkpt lat="47.826851" lon="10.023718">
        <ele>657.993940</ele>
        <time>2025-05-18T19:44:02.484Z</time>
      </trkpt>
      <trkpt lat="47.826849" lon="10.023709">
        <ele>657.993215</ele>
        <time>2025-05-18T19:44:02.614Z</time>
      </trkpt>
      <trkpt lat="47.826832" lon="10.023624">
        <ele>657.986432</ele>
        <time>2025-05-18T19:44:03.840Z</time>
      </trkpt>
      <trkpt lat="47.826849" lon="10.023709">
        <ele>657.979648</ele>
        <time>2025-05-18T19:44:05.162Z</time>
      </trkpt>
      <trkpt lat="47.826851" lon="10.023718">
        <ele>657.978923</ele>
        <time>2025-05-18T19:44:05.307Z</time>
      </trkpt>
      <trkpt lat="47.826849" lon="10.023709">
        <ele>657.978198</ele>
        <time>2025-05-18T19:44:05.444Z</time>
      </trkpt>
      <trkpt lat="47.826832" lon="10.023624">
        <ele>657.971415</ele>
        <time>2025-05-18T19:44:06.647Z</time>
      </trkpt>
      <trkpt lat="47.826827" lon="10.023602">
        <ele>657.969639</ele>
        <time>2025-05-18T19:44:06.970Z</time>
      </trkpt>
      <trkpt lat="47.826825" lon="10.023593">
        <ele>657.968914</ele>
        <time>2025-05-18T19:44:07.101Z</time>
      </trkpt>
      <trkpt lat="47.826821" lon="10.023575">
        <ele>657.967464</ele>
        <time>2025-05-18T19:44:07.377Z</time>
      </trkpt>
      <trkpt lat="47.826825" lon="10.023593">
        <ele>657.966014</ele>
        <time>2025-05-18T19:44:07.656Z</time>
      </trkpt>
      <trkpt lat="47.826827" lon="10.023602">
        <ele>657.965289</ele>
        <time>2025-05-18T19:44:07.787Z</time>
      </trkpt>
      <trkpt lat="47.826825" lon="10.023593">
        <ele>657.964564</ele>
        <time>2025-05-18T19:44:07.906Z</time>
      </trkpt>
      <trkpt lat="47.826827" lon="10.023602">
        <ele>657.963838</ele>
        <time>2025-05-18T19:44:08.042Z</time>
      </trkpt>
      <trkpt lat="47.826832" lon="10.023624">
        <ele>657.962062</ele>
        <time>2025-05-18T19:44:08.400Z</time>
      </trkpt>
      <trkpt lat="47.826849" lon="10.023709">
        <ele>657.955279</ele>
        <time>2025-05-18T19:44:09.610Z</time>
      </trkpt>
      <trkpt lat="47.826851" lon="10.023718">
        <ele>657.954554</ele>
        <time>2025-05-18T19:44:09.732Z</time>
      </trkpt>
      <trkpt lat="47.826853" lon="10.023727">
        <ele>657.953829</ele>
        <time>2025-05-18T19:44:09.868Z</time>
      </trkpt>
      <trkpt lat="47.826856" lon="10.023741">
        <ele>657.952705</ele>
        <time>2025-05-18T19:44:10.071Z</time>
      </trkpt>
      <trkpt lat="47.826863" lon="10.023777">
        <ele>657.949839</ele>
        <time>2025-05-18T19:44:10.622Z</time>
      </trkpt>
      <trkpt lat="47.826856" lon="10.023741">
        <ele>657.946972</ele>
        <time>2025-05-18T19:44:11.150Z</time>
      </trkpt>
      <trkpt lat="47.826853" lon="10.023727">
        <ele>657.945848</ele>
        <time>2025-05-18T19:44:11.360Z</time>
      </trkpt>
      <trkpt lat="47.826851" lon="10.023718">
        <ele>657.945123</ele>
        <time>2025-05-18T19:44:11.503Z</time>
      </trkpt>
      <trkpt lat="47.826849" lon="10.023709">
        <ele>657.944398</ele>
        <time>2025-05-18T19:44:11.640Z</time>
      </trkpt>
      <trkpt lat="47.826832" lon="10.023624">
        <ele>657.937615</ele>
        <time>2025-05-18T19:44:12.765Z</time>
      </trkpt>
      <trkpt lat="47.826827" lon="10.023602">
        <ele>657.935839</ele>
        <time>2025-05-18T19:44:13.068Z</time>
      </trkpt>
      <trkpt lat="47.826825" lon="10.023593">
        <ele>657.935114</ele>
        <time>2025-05-18T19:44:13.192Z</time>
      </trkpt>
      <trkpt lat="47.826821" lon="10.023575">
        <ele>657.933663</ele>
        <time>2025-05-18T19:44:13.442Z</time>
      </trkpt>
      <trkpt lat="47.826820" lon="10.023570">
        <ele>657.933264</ele>
        <time>2025-05-18T19:44:13.524Z</time>
      </trkpt>
      <trkpt lat="47.826809" lon="10.023515">
        <ele>657.928875</ele>
        <time>2025-05-18T19:44:14.296Z</time>
      </trkpt>
      <trkpt lat="47.826766" lon="10.023306">
        <ele>657.912157</ele>
        <time>2025-05-18T19:44:17.137Z</time>
      </trkpt>
      <trkpt lat="47.826688" lon="10.023280">
        <ele>657.903052</ele>
        <time>2025-05-18T19:44:18.756Z</time>
      </trkpt>
      <trkpt lat="47.826653" lon="10.023024">
        <ele>657.814711</ele>
        <time>2025-05-18T19:44:22.262Z</time>
      </trkpt>
      <trkpt lat="47.826449" lon="10.022216">
        <ele>657.399481</ele>
        <time>2025-05-18T19:44:33.684Z</time>
      </trkpt>
      <trkpt lat="47.826352" lon="10.022183">
        <ele>657.328195</ele>
        <time>2025-05-18T19:44:35.567Z</time>
      </trkpt>
      <trkpt lat="47.826311" lon="10.021937">
        <ele>657.206274</ele>
        <time>2025-05-18T19:44:38.858Z</time>
      </trkpt>
      <trkpt lat="47.826211" lon="10.021654">
        <ele>657.052444</ele>
        <time>2025-05-18T19:44:43.106Z</time>
      </trkpt>
      <trkpt lat="47.825898" lon="10.021848">
        <ele>656.809552</ele>
        <time>2025-05-18T19:44:50.060Z</time>
      </trkpt>
      <trkpt lat="47.825470" lon="10.022269">
        <ele>656.661517</ele>
        <time>2025-05-18T19:45:01.099Z</time>
      </trkpt>
      <trkpt lat="47.825349" lon="10.022414">
        <ele>656.697983</ele>
        <time>2025-05-18T19:45:04.446Z</time>
      </trkpt>
      <trkpt lat="47.825170" lon="10.022791">
        <ele>656.770778</ele>
        <time>2025-05-18T19:45:11.112Z</time>
      </trkpt>
      <trkpt lat="47.825104" lon="10.023007">
        <ele>656.808192</ele>
        <time>2025-05-18T19:45:14.556Z</time>
      </trkpt>
      <trkpt lat="47.824807" lon="10.023980">
        <ele>656.976697</ele>
        <time>2025-05-18T19:45:30.258Z</time>
      </trkpt>
      <trkpt lat="47.824737" lon="10.023939">
        <ele>656.994360</ele>
        <time>2025-05-18T19:45:31.899Z</time>
      </trkpt>
      <trkpt lat="47.824644" lon="10.023880">
        <ele>657.018096</ele>
        <time>2025-05-18T19:45:34.064Z</time>
      </trkpt>
      <trkpt lat="47.824625" lon="10.023862">
        <ele>657.023383</ele>
        <time>2025-05-18T19:45:34.532Z</time>
      </trkpt>
      <trkpt lat="47.824445" lon="10.023699">
        <ele>657.026206</ele>
        <time>2025-05-18T19:45:38.978Z</time>
      </trkpt>
      <trkpt lat="47.824274" lon="10.023425">
        <ele>657.021438</ele>
        <time>2025-05-18T19:45:44.248Z</time>
      </trkpt>
      <trkpt lat="47.824197" lon="10.023207">
        <ele>657.018299</ele>
        <time>2025-05-18T19:45:47.731Z</time>
      </trkpt>
      <trkpt lat="47.824172" lon="10.023006">
        <ele>657.015694</ele>
        <time>2025-05-18T19:45:50.622Z</time>
      </trkpt>
      <trkpt lat="47.824182" lon="10.022713">
        <ele>657.011955</ele>
        <time>2025-05-18T19:45:54.747Z</time>
      </trkpt>
      <trkpt lat="47.824180" lon="10.022571">
        <ele>657.010145</ele>
        <time>2025-05-18T19:45:56.740Z</time>
      </trkpt>
      <trkpt lat="47.824255" lon="10.022501">
        <ele>657.008465</ele>
        <time>2025-05-18T19:45:58.590Z</time>
      </trkpt>
      <trkpt lat="47.824282" lon="10.022393">
        <ele>657.006996</ele>
        <time>2025-05-18T19:46:00.201Z</time>
      </trkpt>
      <trkpt lat="47.824261" lon="10.022278">
        <ele>657.005477</ele>
        <time>2025-05-18T19:46:01.859Z</time>
      </trkpt>
      <trkpt lat="47.824197" lon="10.022201">
        <ele>657.003915</ele>
        <time>2025-05-18T19:46:03.580Z</time>
      </trkpt>
      <trkpt lat="47.824076" lon="10.022226">
        <ele>657.001597</ele>
        <time>2025-05-18T19:46:06.080Z</time>
      </trkpt>
      <trkpt lat="47.823968" lon="10.022014">
        <ele>656.998205</ele>
        <time>2025-05-18T19:46:09.752Z</time>
      </trkpt>
      <trkpt lat="47.823928" lon="10.021875">
        <ele>656.996278</ele>
        <time>2025-05-18T19:46:11.836Z</time>
      </trkpt>
      <trkpt lat="47.823811" lon="10.021332">
        <ele>656.929144</ele>
        <time>2025-05-18T19:46:19.897Z</time>
      </trkpt>
      <trkpt lat="47.823719" lon="10.020856">
        <ele>656.865073</ele>
        <time>2025-05-18T19:46:27.060Z</time>
      </trkpt>
      <trkpt lat="47.823656" lon="10.020576">
        <ele>656.826875</ele>
        <time>2025-05-18T19:46:31.275Z</time>
      </trkpt>
      <trkpt lat="47.823634" lon="10.020475">
        <ele>656.813140</ele>
        <time>2025-05-18T19:46:32.769Z</time>
      </trkpt>
      <trkpt lat="47.823460" lon="10.019655">
        <ele>656.701901</ele>
        <time>2025-05-18T19:46:44.509Z</time>
      </trkpt>
      <trkpt lat="47.823409" lon="10.019351">
        <ele>656.661370</ele>
        <time>2025-05-18T19:46:48.738Z</time>
      </trkpt>
      <trkpt lat="47.823405" lon="10.019098">
        <ele>656.585964</ele>
        <time>2025-05-18T19:46:52.179Z</time>
      </trkpt>
      <trkpt lat="47.823520" lon="10.018399">
        <ele>656.298181</ele>
        <time>2025-05-18T19:47:01.999Z</time>
      </trkpt>
      <trkpt lat="47.823556" lon="10.017977">
        <ele>656.128077</ele>
        <time>2025-05-18T19:47:07.649Z</time>
      </trkpt>
      <trkpt lat="47.823469" lon="10.017082">
        <ele>655.766457</ele>
        <time>2025-05-18T19:47:19.587Z</time>
      </trkpt>
      <trkpt lat="47.823335" lon="10.015968">
        <ele>655.371130</ele>
        <time>2025-05-18T19:47:34.964Z</time>
      </trkpt>
      <trkpt lat="47.823264" lon="10.015355">
        <ele>655.176324</ele>
        <time>2025-05-18T19:47:43.450Z</time>
      </trkpt>
      <trkpt lat="47.823201" lon="10.014698">
        <ele>654.968485</ele>
        <time>2025-05-18T19:47:52.585Z</time>
      </trkpt>
      <trkpt lat="47.823193" lon="10.014612">
        <ele>654.941295</ele>
        <time>2025-05-18T19:47:53.774Z</time>
      </trkpt>
      <trkpt lat="47.823091" lon="10.013434">
        <ele>654.577207</ele>
        <time>2025-05-18T19:48:09.753Z</time>
      </trkpt>
      <trkpt lat="47.823013" lon="10.012360">
        <ele>654.254621</ele>
        <time>2025-05-18T19:48:24.624Z</time>
      </trkpt>
      <trkpt lat="47.822978" lon="10.011932">
        <ele>654.125868</ele>
        <time>2025-05-18T19:48:30.443Z</time>
      </trkpt>
      <trkpt lat="47.822842" lon="10.010710">
        <ele>653.852111</ele>
        <time>2025-05-18T19:48:47.263Z</time>
      </trkpt>
      <trkpt lat="47.822689" lon="10.009499">
        <ele>653.677488</ele>
        <time>2025-05-18T19:49:04.611Z</time>
      </trkpt>
      <trkpt lat="47.822577" lon="10.008844">
        <ele>653.581704</ele>
        <time>2025-05-18T19:49:13.928Z</time>
      </trkpt>
      <trkpt lat="47.822311" lon="10.007674">
        <ele>653.221130</ele>
        <time>2025-05-18T19:49:31.113Z</time>
      </trkpt>
      <trkpt lat="47.822218" lon="10.007304">
        <ele>653.097103</ele>
        <time>2025-05-18T19:49:36.282Z</time>
      </trkpt>
      <trkpt lat="47.822109" lon="10.006823">
        <ele>652.937732</ele>
        <time>2025-05-18T19:49:42.810Z</time>
      </trkpt>
      <trkpt lat="47.821982" lon="10.006251">
        <ele>652.748599</ele>
        <time>2025-05-18T19:49:50.883Z</time>
      </trkpt>
      <trkpt lat="47.821955" lon="10.006124">
        <ele>652.747557</ele>
        <time>2025-05-18T19:49:52.737Z</time>
      </trkpt>
      <trkpt lat="47.821903" lon="10.005918">
        <ele>652.922043</ele>
        <time>2025-05-18T19:49:55.843Z</time>
      </trkpt>
      <trkpt lat="47.821887" lon="10.005865">
        <ele>652.968116</ele>
        <time>2025-05-18T19:49:56.666Z</time>
      </trkpt>
      <trkpt lat="47.821748" lon="10.005344">
        <ele>653.412602</ele>
        <time>2025-05-18T19:50:04.834Z</time>
      </trkpt>
      <trkpt lat="47.821586" lon="10.004767">
        <ele>653.908459</ele>
        <time>2025-05-18T19:50:14.251Z</time>
      </trkpt>
      <trkpt lat="47.821509" lon="10.004377">
        <ele>654.230760</ele>
        <time>2025-05-18T19:50:20.548Z</time>
      </trkpt>
      <trkpt lat="47.821430" lon="10.003983">
        <ele>654.556774</ele>
        <time>2025-05-18T19:50:27.083Z</time>
      </trkpt>
      <trkpt lat="47.821287" lon="10.003140">
        <ele>655.559758</ele>
        <time>2025-05-18T19:50:41.152Z</time>
      </trkpt>
      <trkpt lat="47.821232" lon="10.003161">
        <ele>655.678856</ele>
        <time>2025-05-18T19:50:42.504Z</time>
      </trkpt>
      <trkpt lat="47.821062" lon="10.001709">
        <ele>657.754729</ele>
        <time>2025-05-18T19:51:05.802Z</time>
      </trkpt>
      <trkpt lat="47.820936" lon="10.000834">
        <ele>658.934829</ele>
        <time>2025-05-18T19:51:19.544Z</time>
      </trkpt>
      <trkpt lat="47.820847" lon="10.000396">
        <ele>659.450017</ele>
        <time>2025-05-18T19:51:26.579Z</time>
      </trkpt>
      <trkpt lat="47.820772" lon="10.000112">
        <ele>659.793587</ele>
        <time>2025-05-18T19:51:31.268Z</time>
      </trkpt>
      <trkpt lat="47.820659" lon="9.999840">
        <ele>660.153681</ele>
        <time>2025-05-18T19:51:36.168Z</time>
      </trkpt>
      <trkpt lat="47.820694" lon="9.999797">
        <ele>660.229755</ele>
        <time>2025-05-18T19:51:37.213Z</time>
      </trkpt>
      <trkpt lat="47.820868" lon="9.999711">
        <ele>660.537143</ele>
        <time>2025-05-18T19:51:41.444Z</time>
      </trkpt>
      <trkpt lat="47.820912" lon="9.999647">
        <ele>660.640265</ele>
        <time>2025-05-18T19:51:42.861Z</time>
      </trkpt>
      <trkpt lat="47.820917" lon="9.999580">
        <ele>660.716158</ele>
        <time>2025-05-18T19:51:43.914Z</time>
      </trkpt>
      <trkpt lat="47.820846" lon="9.999410">
        <ele>660.941548</ele>
        <time>2025-05-18T19:51:47.040Z</time>
      </trkpt>
      <trkpt lat="47.820828" lon="9.999085">
        <ele>661.308678</ele>
        <time>2025-05-18T19:51:52.178Z</time>
      </trkpt>
      <trkpt lat="47.820795" lon="9.998887">
        <ele>661.538352</ele>
        <time>2025-05-18T19:51:55.391Z</time>
      </trkpt>
      <trkpt lat="47.820701" lon="9.998715">
        <ele>661.814661</ele>
        <time>2025-05-18T19:51:58.909Z</time>
      </trkpt>
      <trkpt lat="47.820391" lon="9.996906">
        <ele>664.272527</ele>
        <time>2025-05-18T19:52:28.336Z</time>
      </trkpt>
      <trkpt lat="47.820271" lon="9.996347">
        <ele>665.045142</ele>
        <time>2025-05-18T19:52:37.425Z</time>
      </trkpt>
      <trkpt lat="47.820001" lon="9.995405">
        <ele>665.912553</ele>
        <time>2025-05-18T19:52:53.127Z</time>
      </trkpt>
      <trkpt lat="47.819707" lon="9.994559">
        <ele>666.678724</ele>
        <time>2025-05-18T19:53:07.651Z</time>
      </trkpt>
      <trkpt lat="47.819342" lon="9.993913">
        <ele>667.322047</ele>
        <time>2025-05-18T19:53:20.456Z</time>
      </trkpt>
      <trkpt lat="47.819081" lon="9.993599">
        <ele>667.412036</ele>
        <time>2025-05-18T19:53:27.934Z</time>
      </trkpt>
      <trkpt lat="47.818649" lon="9.993253">
        <ele>667.543593</ele>
        <time>2025-05-18T19:53:38.554Z</time>
      </trkpt>
      <trkpt lat="47.818531" lon="9.993066">
        <ele>667.589807</ele>
        <time>2025-05-18T19:53:42.116Z</time>
      </trkpt>
      <trkpt lat="47.818187" lon="9.992669">
        <ele>667.706530</ele>
        <time>2025-05-18T19:53:50.933Z</time>
      </trkpt>
      <trkpt lat="47.817683" lon="9.991713">
        <ele>668.269890</ele>
        <time>2025-05-18T19:54:08.479Z</time>
      </trkpt>
      <trkpt lat="47.817626" lon="9.991550">
        <ele>668.389831</ele>
        <time>2025-05-18T19:54:11.206Z</time>
      </trkpt>
      <trkpt lat="47.817420" lon="9.990781">
        <ele>668.930171</ele>
        <time>2025-05-18T19:54:23.703Z</time>
      </trkpt>
      <trkpt lat="47.817369" lon="9.990579">
        <ele>669.071015</ele>
        <time>2025-05-18T19:54:27.020Z</time>
      </trkpt>
      <trkpt lat="47.817083" lon="9.989617">
        <ele>669.885027</ele>
        <time>2025-05-18T19:54:43.452Z</time>
      </trkpt>
      <trkpt lat="47.816828" lon="9.989133">
        <ele>670.524025</ele>
        <time>2025-05-18T19:54:52.886Z</time>
      </trkpt>
      <trkpt lat="47.816612" lon="9.988823">
        <ele>670.988045</ele>
        <time>2025-05-18T19:54:59.723Z</time>
      </trkpt>
      <trkpt lat="47.816362" lon="9.988543">
        <ele>671.471912</ele>
        <time>2025-05-18T19:55:06.892Z</time>
      </trkpt>
      <trkpt lat="47.816012" lon="9.988247">
        <ele>672.094513</ele>
        <time>2025-05-18T19:55:16.169Z</time>
      </trkpt>
      <trkpt lat="47.815512" lon="9.987951">
        <ele>672.946728</ele>
        <time>2025-05-18T19:55:28.629Z</time>
      </trkpt>
      <trkpt lat="47.815398" lon="9.987753">
        <ele>673.226606</ele>
        <time>2025-05-18T19:55:32.710Z</time>
      </trkpt>
      <trkpt lat="47.815323" lon="9.987672">
        <ele>673.374657</ele>
        <time>2025-05-18T19:55:34.860Z</time>
      </trkpt>
      <trkpt lat="47.815196" lon="9.987612">
        <ele>673.587573</ele>
        <time>2025-05-18T19:55:37.969Z</time>
      </trkpt>
      <trkpt lat="47.815094" lon="9.987589">
        <ele>673.752427</ele>
        <time>2025-05-18T19:55:40.344Z</time>
      </trkpt>
      <trkpt lat="47.814865" lon="9.987708">
        <ele>674.140011</ele>
        <time>2025-05-18T19:55:45.973Z</time>
      </trkpt>
      <trkpt lat="47.814722" lon="9.987703">
        <ele>674.368589</ele>
        <time>2025-05-18T19:55:49.273Z</time>
      </trkpt>
      <trkpt lat="47.814166" lon="9.987759">
        <ele>675.236188</ele>
        <time>2025-05-18T19:56:02.058Z</time>
      </trkpt>
      <trkpt lat="47.812083" lon="9.987719">
        <ele>677.225235</ele>
        <time>2025-05-18T19:56:48.762Z</time>
      </trkpt>
      <trkpt lat="47.810711" lon="9.987687">
        <ele>678.259375</ele>
        <time>2025-05-18T19:57:19.113Z</time>
      </trkpt>
      <trkpt lat="47.810155" lon="9.987552">
        <ele>678.847157</ele>
        <time>2025-05-18T19:57:31.709Z</time>
      </trkpt>
      <trkpt lat="47.809675" lon="9.987283">
        <ele>679.415978</ele>
        <time>2025-05-18T19:57:43.314Z</time>
      </trkpt>
      <trkpt lat="47.809488" lon="9.987121">
        <ele>679.655927</ele>
        <time>2025-05-18T19:57:48.249Z</time>
      </trkpt>
      <trkpt lat="47.809151" lon="9.986758">
        <ele>680.117237</ele>
        <time>2025-05-18T19:57:57.753Z</time>
      </trkpt>
      <trkpt lat="47.808765" lon="9.986144">
        <ele>680.916941</ele>
        <time>2025-05-18T19:58:10.607Z</time>
      </trkpt>
      <trkpt lat="47.808544" lon="9.985645">
        <ele>681.549866</ele>
        <time>2025-05-18T19:58:19.802Z</time>
      </trkpt>
      <trkpt lat="47.808467" lon="9.985721">
        <ele>681.695518</ele>
        <time>2025-05-18T19:58:21.912Z</time>
      </trkpt>
      <trkpt lat="47.808266" lon="9.985305">
        <ele>682.238164</ele>
        <time>2025-05-18T19:58:29.823Z</time>
      </trkpt>
      <trkpt lat="47.808209" lon="9.985248">
        <ele>682.346419</ele>
        <time>2025-05-18T19:58:31.408Z</time>
      </trkpt>
      <trkpt lat="47.808147" lon="9.985081">
        <ele>682.548473</ele>
        <time>2025-05-18T19:58:34.371Z</time>
      </trkpt>
      <trkpt lat="47.808115" lon="9.984996">
        <ele>682.651655</ele>
        <time>2025-05-18T19:58:35.881Z</time>
      </trkpt>
      <trkpt lat="47.807873" lon="9.984330">
        <ele>683.626450</ele>
        <time>2025-05-18T19:58:47.647Z</time>
      </trkpt>
      <trkpt lat="47.807767" lon="9.984018">
        <ele>684.221434</ele>
        <time>2025-05-18T19:58:53.191Z</time>
      </trkpt>
      <trkpt lat="47.807390" lon="9.982922">
        <ele>686.316849</ele>
        <time>2025-05-18T19:59:13.351Z</time>
      </trkpt>
      <trkpt lat="47.807168" lon="9.982264">
        <ele>687.569897</ele>
        <time>2025-05-18T19:59:25.197Z</time>
      </trkpt>
      <trkpt lat="47.807066" lon="9.981837">
        <ele>688.128101</ele>
        <time>2025-05-18T19:59:32.340Z</time>
      </trkpt>
      <trkpt lat="47.806928" lon="9.980948">
        <ele>689.143361</ele>
        <time>2025-05-18T19:59:46.558Z</time>
      </trkpt>
      <trkpt lat="47.806786" lon="9.980292">
        <ele>689.910262</ele>
        <time>2025-05-18T19:59:57.002Z</time>
      </trkpt>
      <trkpt lat="47.806480" lon="9.979476">
        <ele>690.986261</ele>
        <time>2025-05-18T20:00:11.044Z</time>
      </trkpt>
      <trkpt lat="47.805981" lon="9.978584">
        <ele>692.468577</ele>
        <time>2025-05-18T20:00:29.673Z</time>
      </trkpt>
      <trkpt lat="47.805127" lon="9.977176">
        <ele>694.271006</ele>
        <time>2025-05-18T20:00:59.335Z</time>
      </trkpt>
      <trkpt lat="47.805170" lon="9.977108">
        <ele>694.293735</ele>
        <time>2025-05-18T20:01:00.638Z</time>
      </trkpt>
      <trkpt lat="47.805278" lon="9.976666">
        <ele>694.408198</ele>
        <time>2025-05-18T20:01:07.458Z</time>
      </trkpt>
      <trkpt lat="47.805137" lon="9.976517">
        <ele>694.470848</ele>
        <time>2025-05-18T20:01:11.051Z</time>
      </trkpt>
      <trkpt lat="47.804912" lon="9.976341">
        <ele>694.562940</ele>
        <time>2025-05-18T20:01:16.162Z</time>
      </trkpt>
      <trkpt lat="47.804481" lon="9.975810">
        <ele>694.765640</ele>
        <time>2025-05-18T20:01:27.195Z</time>
      </trkpt>
      <trkpt lat="47.804403" lon="9.975683">
        <ele>694.837907</ele>
        <time>2025-05-18T20:01:29.680Z</time>
      </trkpt>
      <trkpt lat="47.804293" lon="9.975246">
        <ele>695.063515</ele>
        <time>2025-05-18T20:01:36.650Z</time>
      </trkpt>
      <trkpt lat="47.804145" lon="9.974960">
        <ele>695.238054</ele>
        <time>2025-05-18T20:01:42.095Z</time>
      </trkpt>
      <trkpt lat="47.804065" lon="9.974866">
        <ele>695.311406</ele>
        <time>2025-05-18T20:01:44.385Z</time>
      </trkpt>
      <trkpt lat="47.803759" lon="9.974680">
        <ele>695.549299</ele>
        <time>2025-05-18T20:01:51.811Z</time>
      </trkpt>
      <trkpt lat="47.803487" lon="9.974459">
        <ele>695.772328</ele>
        <time>2025-05-18T20:01:58.787Z</time>
      </trkpt>
      <trkpt lat="47.803174" lon="9.974377">
        <ele>696.001072</ele>
        <time>2025-05-18T20:02:05.909Z</time>
      </trkpt>
      <trkpt lat="47.803077" lon="9.974375">
        <ele>696.070895</ele>
        <time>2025-05-18T20:02:08.087Z</time>
      </trkpt>
      <trkpt lat="47.802853" lon="9.974444">
        <ele>696.236777</ele>
        <time>2025-05-18T20:02:13.214Z</time>
      </trkpt>
      <trkpt lat="47.802255" lon="9.974339">
        <ele>696.673451</ele>
        <time>2025-05-18T20:02:26.639Z</time>
      </trkpt>
      <trkpt lat="47.801649" lon="9.974136">
        <ele>697.123909</ele>
        <time>2025-05-18T20:02:40.335Z</time>
      </trkpt>
      <trkpt lat="47.801361" lon="9.973996">
        <ele>697.343618</ele>
        <time>2025-05-18T20:02:47.035Z</time>
      </trkpt>
      <trkpt lat="47.800904" lon="9.973641">
        <ele>697.843367</ele>
        <time>2025-05-18T20:02:58.506Z</time>
      </trkpt>
      <trkpt lat="47.800426" lon="9.973097">
        <ele>698.440474</ele>
        <time>2025-05-18T20:03:11.982Z</time>
      </trkpt>
      <trkpt lat="47.800238" lon="9.972932">
        <ele>698.657056</ele>
        <time>2025-05-18T20:03:16.863Z</time>
      </trkpt>
      <trkpt lat="47.799967" lon="9.972602">
        <ele>699.004510</ele>
        <time>2025-05-18T20:03:24.806Z</time>
      </trkpt>
      <trkpt lat="47.799691" lon="9.972455">
        <ele>699.419588</ele>
        <time>2025-05-18T20:03:31.514Z</time>
      </trkpt>
      <trkpt lat="47.799550" lon="9.972240">
        <ele>699.804470</ele>
        <time>2025-05-18T20:03:36.153Z</time>
      </trkpt>
      <trkpt lat="47.799459" lon="9.972040">
        <ele>700.113891</ele>
        <time>2025-05-18T20:03:39.899Z</time>
      </trkpt>
      <trkpt lat="47.799016" lon="9.970493">
        <ele>702.268019</ele>
        <time>2025-05-18T20:04:06.293Z</time>
      </trkpt>
      <trkpt lat="47.798952" lon="9.970334">
        <ele>702.505452</ele>
        <time>2025-05-18T20:04:09.254Z</time>
      </trkpt>
      <trkpt lat="47.798750" lon="9.970521">
        <ele>703.148796</ele>
        <time>2025-05-18T20:04:14.916Z</time>
      </trkpt>
      <trkpt lat="47.798613" lon="9.970754">
        <ele>703.749643</ele>
        <time>2025-05-18T20:04:19.867Z</time>
      </trkpt>
      <trkpt lat="47.798362" lon="9.970398">
        <ele>704.751078</ele>
        <time>2025-05-18T20:04:28.147Z</time>
      </trkpt>
      <trkpt lat="47.797747" lon="9.969667">
        <ele>707.024393</ele>
        <time>2025-05-18T20:04:47.273Z</time>
      </trkpt>
      <trkpt lat="47.797477" lon="9.969247">
        <ele>708.117984</ele>
        <time>2025-05-18T20:04:56.924Z</time>
      </trkpt>
      <trkpt lat="47.797250" lon="9.968786">
        <ele>709.122804</ele>
        <time>2025-05-18T20:05:06.543Z</time>
      </trkpt>
      <trkpt lat="47.796711" lon="9.967380">
        <ele>711.968657</ele>
        <time>2025-05-18T20:05:32.926Z</time>
      </trkpt>
      <trkpt lat="47.796508" lon="9.966966">
        <ele>712.285408</ele>
        <time>2025-05-18T20:05:40.699Z</time>
      </trkpt>
      <trkpt lat="47.796304" lon="9.966571">
        <ele>711.802560</ele>
        <time>2025-05-18T20:05:47.718Z</time>
      </trkpt>
      <trkpt lat="47.795415" lon="9.964989">
        <ele>709.666272</ele>
        <time>2025-05-18T20:06:11.546Z</time>
      </trkpt>
      <trkpt lat="47.794882" lon="9.964044">
        <ele>706.731966</ele>
        <time>2025-05-18T20:06:24.793Z</time>
      </trkpt>
      <trkpt lat="47.793999" lon="9.962568">
        <ele>702.350213</ele>
        <time>2025-05-18T20:06:45.678Z</time>
      </trkpt>
      <trkpt lat="47.793470" lon="9.961613">
        <ele>700.031612</ele>
        <time>2025-05-18T20:06:59.543Z</time>
      </trkpt>
      <trkpt lat="47.792695" lon="9.960308">
        <ele>697.745727</ele>
        <time>2025-05-18T20:07:20.415Z</time>
      </trkpt>
      <trkpt lat="47.792508" lon="9.960045">
        <ele>697.429461</ele>
        <time>2025-05-18T20:07:25.144Z</time>
      </trkpt>
      <trkpt lat="47.792112" lon="9.959467">
        <ele>696.747657</ele>
        <time>2025-05-18T20:07:35.838Z</time>
      </trkpt>
      <trkpt lat="47.791864" lon="9.959230">
        <ele>696.385361</ele>
        <time>2025-05-18T20:07:41.747Z</time>
      </trkpt>
      <trkpt lat="47.791622" lon="9.958882">
        <ele>696.191497</ele>
        <time>2025-05-18T20:07:48.607Z</time>
      </trkpt>
      <trkpt lat="47.791294" lon="9.958397">
        <ele>695.998039</ele>
        <time>2025-05-18T20:07:58.384Z</time>
      </trkpt>
      <trkpt lat="47.790678" lon="9.957586">
        <ele>695.653921</ele>
        <time>2025-05-18T20:08:15.693Z</time>
      </trkpt>
      <trkpt lat="47.790447" lon="9.957349">
        <ele>695.471206</ele>
        <time>2025-05-18T20:08:21.239Z</time>
      </trkpt>
      <trkpt lat="47.790416" lon="9.957380">
        <ele>695.390861</ele>
        <time>2025-05-18T20:08:21.972Z</time>
      </trkpt>
      <trkpt lat="47.789232" lon="9.956250">
        <ele>692.364990</ele>
        <time>2025-05-18T20:08:46.587Z</time>
      </trkpt>
      <trkpt lat="47.789059" lon="9.956045">
        <ele>691.889259</ele>
        <time>2025-05-18T20:08:50.269Z</time>
      </trkpt>
      <trkpt lat="47.788786" lon="9.955619">
        <ele>690.539836</ele>
        <time>2025-05-18T20:08:56.598Z</time>
      </trkpt>
      <trkpt lat="47.788336" lon="9.955162">
        <ele>688.461292</ele>
        <time>2025-05-18T20:09:05.105Z</time>
      </trkpt>
      <trkpt lat="47.788231" lon="9.955046">
        <ele>687.962370</ele>
        <time>2025-05-18T20:09:07.114Z</time>
      </trkpt>
      <trkpt lat="47.787959" lon="9.954726">
        <ele>686.639513</ele>
        <time>2025-05-18T20:09:12.416Z</time>
      </trkpt>
      <trkpt lat="47.787720" lon="9.954356">
        <ele>685.323764</ele>
        <time>2025-05-18T20:09:17.796Z</time>
      </trkpt>
      <trkpt lat="47.787641" lon="9.954168">
        <ele>684.801341</ele>
        <time>2025-05-18T20:09:20.179Z</time>
      </trkpt>
      <trkpt lat="47.787603" lon="9.954078">
        <ele>684.722249</ele>
        <time>2025-05-18T20:09:21.313Z</time>
      </trkpt>
      <trkpt lat="47.787393" lon="9.953418">
        <ele>684.178872</ele>
        <time>2025-05-18T20:09:29.477Z</time>
      </trkpt>
      <trkpt lat="47.787389" lon="9.953296">
        <ele>684.087986</ele>
        <time>2025-05-18T20:09:30.957Z</time>
      </trkpt>
      <trkpt lat="47.787170" lon="9.953299">
        <ele>683.845443</ele>
        <time>2025-05-18T20:09:35.143Z</time>
      </trkpt>
      <trkpt lat="47.786980" lon="9.953276">
        <ele>683.634331</ele>
        <time>2025-05-18T20:09:38.949Z</time>
      </trkpt>
      <trkpt lat="47.786784" lon="9.953188">
        <ele>683.407608</ele>
        <time>2025-05-18T20:09:43.163Z</time>
      </trkpt>
      <trkpt lat="47.786515" lon="9.953007">
        <ele>683.080673</ele>
        <time>2025-05-18T20:09:49.668Z</time>
      </trkpt>
      <trkpt lat="47.786292" lon="9.952798">
        <ele>682.859073</ele>
        <time>2025-05-18T20:09:55.687Z</time>
      </trkpt>
      <trkpt lat="47.786138" lon="9.952655">
        <ele>683.016308</ele>
        <time>2025-05-18T20:09:59.812Z</time>
      </trkpt>
      <trkpt lat="47.785768" lon="9.952325">
        <ele>683.389961</ele>
        <time>2025-05-18T20:10:09.552Z</time>
      </trkpt>
      <trkpt lat="47.785358" lon="9.952103">
        <ele>683.767892</ele>
        <time>2025-05-18T20:10:19.343Z</time>
      </trkpt>
      <trkpt lat="47.784799" lon="9.951806">
        <ele>684.282050</ele>
        <time>2025-05-18T20:10:32.550Z</time>
      </trkpt>
      <trkpt lat="47.784763" lon="9.951704">
        <ele>684.349110</ele>
        <time>2025-05-18T20:10:34.269Z</time>
      </trkpt>
      <trkpt lat="47.784588" lon="9.951598">
        <ele>684.477138</ele>
        <time>2025-05-18T20:10:38.421Z</time>
      </trkpt>
      <trkpt lat="47.784327" lon="9.951403">
        <ele>684.658835</ele>
        <time>2025-05-18T20:10:44.878Z</time>
      </trkpt>
      <trkpt lat="47.784197" lon="9.951212">
        <ele>684.772488</ele>
        <time>2025-05-18T20:10:48.914Z</time>
      </trkpt>
      <trkpt lat="47.784093" lon="9.951002">
        <ele>684.881547</ele>
        <time>2025-05-18T20:10:52.794Z</time>
      </trkpt>
      <trkpt lat="47.783972" lon="9.950575">
        <ele>685.075277</ele>
        <time>2025-05-18T20:10:59.679Z</time>
      </trkpt>
      <trkpt lat="47.783833" lon="9.949725">
        <ele>685.440990</ele>
        <time>2025-05-18T20:11:12.667Z</time>
      </trkpt>
      <trkpt lat="47.783717" lon="9.949375">
        <ele>685.517127</ele>
        <time>2025-05-18T20:11:18.447Z</time>
      </trkpt>
      <trkpt lat="47.783556" lon="9.949000">
        <ele>685.539324</ele>
        <time>2025-05-18T20:11:25.010Z</time>
      </trkpt>
      <trkpt lat="47.783203" lon="9.948442">
        <ele>685.577552</ele>
        <time>2025-05-18T20:11:36.108Z</time>
      </trkpt>
      <trkpt lat="47.782761" lon="9.947915">
        <ele>685.619594</ele>
        <time>2025-05-18T20:11:47.730Z</time>
      </trkpt>
      <trkpt lat="47.782592" lon="9.947694">
        <ele>685.636294</ele>
        <time>2025-05-18T20:11:52.287Z</time>
      </trkpt>
      <trkpt lat="47.782175" lon="9.947167">
        <ele>685.599238</ele>
        <time>2025-05-18T20:12:03.341Z</time>
      </trkpt>
      <trkpt lat="47.781658" lon="9.946528">
        <ele>685.547288</ele>
        <time>2025-05-18T20:12:17.145Z</time>
      </trkpt>
      <trkpt lat="47.781483" lon="9.946257">
        <ele>685.527765</ele>
        <time>2025-05-18T20:12:22.526Z</time>
      </trkpt>
      <trkpt lat="47.780571" lon="9.945084">
        <ele>685.810447</ele>
        <time>2025-05-18T20:12:49.203Z</time>
      </trkpt>
      <trkpt lat="47.779838" lon="9.944266">
        <ele>686.147676</ele>
        <time>2025-05-18T20:13:09.144Z</time>
      </trkpt>
      <trkpt lat="47.779258" lon="9.943974">
        <ele>685.225089</ele>
        <time>2025-05-18T20:13:21.464Z</time>
      </trkpt>
      <trkpt lat="47.778926" lon="9.943842">
        <ele>684.664049</ele>
        <time>2025-05-18T20:13:27.974Z</time>
      </trkpt>
      <trkpt lat="47.777990" lon="9.943475">
        <ele>682.996443</ele>
        <time>2025-05-18T20:13:44.354Z</time>
      </trkpt>
      <trkpt lat="47.777564" lon="9.943208">
        <ele>681.776353</ele>
        <time>2025-05-18T20:13:51.750Z</time>
      </trkpt>
      <trkpt lat="47.777113" lon="9.942680">
        <ele>680.261689</ele>
        <time>2025-05-18T20:14:01.267Z</time>
      </trkpt>
      <trkpt lat="47.776903" lon="9.942300">
        <ele>679.389011</ele>
        <time>2025-05-18T20:14:07.046Z</time>
      </trkpt>
      <trkpt lat="47.776761" lon="9.941954">
        <ele>678.669881</ele>
        <time>2025-05-18T20:14:11.859Z</time>
      </trkpt>
      <trkpt lat="47.776560" lon="9.941266">
        <ele>677.223107</ele>
        <time>2025-05-18T20:14:20.677Z</time>
      </trkpt>
      <trkpt lat="47.776509" lon="9.940873">
        <ele>676.440755</ele>
        <time>2025-05-18T20:14:25.500Z</time>
      </trkpt>
      <trkpt lat="47.776500" lon="9.940450">
        <ele>675.613542</ele>
        <time>2025-05-18T20:14:30.485Z</time>
      </trkpt>
      <trkpt lat="47.776499" lon="9.938979">
        <ele>673.013169</ele>
        <time>2025-05-18T20:14:46.218Z</time>
      </trkpt>
      <trkpt lat="47.776488" lon="9.938565">
        <ele>672.641391</ele>
        <time>2025-05-18T20:14:50.686Z</time>
      </trkpt>
      <trkpt lat="47.776451" lon="9.938206">
        <ele>672.315488</ele>
        <time>2025-05-18T20:14:54.776Z</time>
      </trkpt>
      <trkpt lat="47.776364" lon="9.937667">
        <ele>671.818080</ele>
        <time>2025-05-18T20:15:01.533Z</time>
      </trkpt>
      <trkpt lat="47.776296" lon="9.937386">
        <ele>671.550084</ele>
        <time>2025-05-18T20:15:05.533Z</time>
      </trkpt>
      <trkpt lat="47.776139" lon="9.936955">
        <ele>671.110178</ele>
        <time>2025-05-18T20:15:12.622Z</time>
      </trkpt>
      <trkpt lat="47.776001" lon="9.936573">
        <ele>670.998380</ele>
        <time>2025-05-18T20:15:19.253Z</time>
      </trkpt>
      <trkpt lat="47.775722" lon="9.936014">
        <ele>671.773386</ele>
        <time>2025-05-18T20:15:30.269Z</time>
      </trkpt>
      <trkpt lat="47.775633" lon="9.935717">
        <ele>672.135332</ele>
        <time>2025-05-18T20:15:35.479Z</time>
      </trkpt>
      <trkpt lat="47.775570" lon="9.935643">
        <ele>672.268264</ele>
        <time>2025-05-18T20:15:37.390Z</time>
      </trkpt>
      <trkpt lat="47.775495" lon="9.935641">
        <ele>672.392500</ele>
        <time>2025-05-18T20:15:39.162Z</time>
      </trkpt>
      <trkpt lat="47.775361" lon="9.935637">
        <ele>672.614478</ele>
        <time>2025-05-18T20:15:42.332Z</time>
      </trkpt>
      <trkpt lat="47.775293" lon="9.935580">
        <ele>672.743741</ele>
        <time>2025-05-18T20:15:44.166Z</time>
      </trkpt>
      <trkpt lat="47.775206" lon="9.935443">
        <ele>672.953537</ele>
        <time>2025-05-18T20:15:47.117Z</time>
      </trkpt>
      <trkpt lat="47.774994" lon="9.934971">
        <ele>673.585426</ele>
        <time>2025-05-18T20:15:55.896Z</time>
      </trkpt>
      <trkpt lat="47.774853" lon="9.934753">
        <ele>673.821340</ele>
        <time>2025-05-18T20:16:00.509Z</time>
      </trkpt>
      <trkpt lat="47.774586" lon="9.934120">
        <ele>673.800938</ele>
        <time>2025-05-18T20:16:11.533Z</time>
      </trkpt>
      <trkpt lat="47.774385" lon="9.933721">
        <ele>673.787325</ele>
        <time>2025-05-18T20:16:18.410Z</time>
      </trkpt>
      <trkpt lat="47.772424" lon="9.930766">
        <ele>672.771909</ele>
        <time>2025-05-18T20:17:14.304Z</time>
      </trkpt>
      <trkpt lat="47.772217" lon="9.930412">
        <ele>672.792858</ele>
        <time>2025-05-18T20:17:20.896Z</time>
      </trkpt>
      <trkpt lat="47.772052" lon="9.930127">
        <ele>672.809651</ele>
        <time>2025-05-18T20:17:26.226Z</time>
      </trkpt>
      <trkpt lat="47.771994" lon="9.930077">
        <ele>672.814103</ele>
        <time>2025-05-18T20:17:27.652Z</time>
      </trkpt>
      <trkpt lat="47.771778" lon="9.930186">
        <ele>672.829254</ele>
        <time>2025-05-18T20:17:32.525Z</time>
      </trkpt>
      <trkpt lat="47.771717" lon="9.930186">
        <ele>672.833306</ele>
        <time>2025-05-18T20:17:33.829Z</time>
      </trkpt>
      <trkpt lat="47.771605" lon="9.930065">
        <ele>672.842500</ele>
        <time>2025-05-18T20:17:36.803Z</time>
      </trkpt>
      <trkpt lat="47.770793" lon="9.928685">
        <ele>672.636266</ele>
        <time>2025-05-18T20:18:03.484Z</time>
      </trkpt>
      <trkpt lat="47.770101" lon="9.927628">
        <ele>672.215580</ele>
        <time>2025-05-18T20:18:23.338Z</time>
      </trkpt>
      <trkpt lat="47.769546" lon="9.926856">
        <ele>671.431249</ele>
        <time>2025-05-18T20:18:37.587Z</time>
      </trkpt>
      <trkpt lat="47.768807" lon="9.925745">
        <ele>670.086902</ele>
        <time>2025-05-18T20:18:57.497Z</time>
      </trkpt>
      <trkpt lat="47.768742" lon="9.925496">
        <ele>669.857160</ele>
        <time>2025-05-18T20:19:00.936Z</time>
      </trkpt>
      <trkpt lat="47.768743" lon="9.925176">
        <ele>669.807078</ele>
        <time>2025-05-18T20:19:04.871Z</time>
      </trkpt>
      <trkpt lat="47.768719" lon="9.925054">
        <ele>669.800787</ele>
        <time>2025-05-18T20:19:06.402Z</time>
      </trkpt>
      <trkpt lat="47.768649" lon="9.924966">
        <ele>669.794040</ele>
        <time>2025-05-18T20:19:08.019Z</time>
      </trkpt>
      <trkpt lat="47.768456" lon="9.924888">
        <ele>669.779316</ele>
        <time>2025-05-18T20:19:11.477Z</time>
      </trkpt>
      <trkpt lat="47.768274" lon="9.924857">
        <ele>669.765828</ele>
        <time>2025-05-18T20:19:14.731Z</time>
      </trkpt>
      <trkpt lat="47.767359" lon="9.924891">
        <ele>669.698440</ele>
        <time>2025-05-18T20:19:35.117Z</time>
      </trkpt>
      <trkpt lat="47.767097" lon="9.924815">
        <ele>669.843324</ele>
        <time>2025-05-18T20:19:41.274Z</time>
      </trkpt>
      <trkpt lat="47.766867" lon="9.924672">
        <ele>670.139201</ele>
        <time>2025-05-18T20:19:47.141Z</time>
      </trkpt>
      <trkpt lat="47.766615" lon="9.924416">
        <ele>670.501390</ele>
        <time>2025-05-18T20:19:54.412Z</time>
      </trkpt>
      <trkpt lat="47.766247" lon="9.923688">
        <ele>671.228115</ele>
        <time>2025-05-18T20:20:09.040Z</time>
      </trkpt>
      <trkpt lat="47.766111" lon="9.923495">
        <ele>671.451201</ele>
        <time>2025-05-18T20:20:13.053Z</time>
      </trkpt>
      <trkpt lat="47.765920" lon="9.923325">
        <ele>671.715381</ele>
        <time>2025-05-18T20:20:17.403Z</time>
      </trkpt>
      <trkpt lat="47.765727" lon="9.923213">
        <ele>671.618984</ele>
        <time>2025-05-18T20:20:21.150Z</time>
      </trkpt>
      <trkpt lat="47.765462" lon="9.923154">
        <ele>671.148052</ele>
        <time>2025-05-18T20:20:25.896Z</time>
      </trkpt>
      <trkpt lat="47.765137" lon="9.923034">
        <ele>670.559526</ele>
        <time>2025-05-18T20:20:31.617Z</time>
      </trkpt>
      <trkpt lat="47.764760" lon="9.922821">
        <ele>669.850766</ele>
        <time>2025-05-18T20:20:38.601Z</time>
      </trkpt>
      <trkpt lat="47.764267" lon="9.922361">
        <ele>668.827988</ele>
        <time>2025-05-18T20:20:48.991Z</time>
      </trkpt>
      <trkpt lat="47.763725" lon="9.921683">
        <ele>667.120673</ele>
        <time>2025-05-18T20:21:02.011Z</time>
      </trkpt>
      <trkpt lat="47.763078" lon="9.920842">
        <ele>664.962883</ele>
        <time>2025-05-18T20:21:16.305Z</time>
      </trkpt>
      <trkpt lat="47.762940" lon="9.920653">
        <ele>664.491796</ele>
        <time>2025-05-18T20:21:19.310Z</time>
      </trkpt>
      <trkpt lat="47.762585" lon="9.919947">
        <ele>663.038524</ele>
        <time>2025-05-18T20:21:28.844Z</time>
      </trkpt>
      <trkpt lat="47.762461" lon="9.919866">
        <ele>662.708882</ele>
        <time>2025-05-18T20:21:31.061Z</time>
      </trkpt>
      <trkpt lat="47.762279" lon="9.919893">
        <ele>662.263681</ele>
        <time>2025-05-18T20:21:34.088Z</time>
      </trkpt>
      <trkpt lat="47.762086" lon="9.919855">
        <ele>661.789806</ele>
        <time>2025-05-18T20:21:37.357Z</time>
      </trkpt>
      <trkpt lat="47.761903" lon="9.919692">
        <ele>661.270628</ele>
        <time>2025-05-18T20:21:41.056Z</time>
      </trkpt>
      <trkpt lat="47.761799" lon="9.919489">
        <ele>660.853006</ele>
        <time>2025-05-18T20:21:44.071Z</time>
      </trkpt>
      <trkpt lat="47.761693" lon="9.919185">
        <ele>660.292657</ele>
        <time>2025-05-18T20:21:48.182Z</time>
      </trkpt>
      <trkpt lat="47.761692" lon="9.919104">
        <ele>660.160100</ele>
        <time>2025-05-18T20:21:49.164Z</time>
      </trkpt>
      <trkpt lat="47.761754" lon="9.918976">
        <ele>659.901955</ele>
        <time>2025-05-18T20:21:51.109Z</time>
      </trkpt>
      <trkpt lat="47.761728" lon="9.918855">
        <ele>659.758814</ele>
        <time>2025-05-18T20:21:52.696Z</time>
      </trkpt>
      <trkpt lat="47.761552" lon="9.918513">
        <ele>659.680827</ele>
        <time>2025-05-18T20:21:58.228Z</time>
      </trkpt>
      <trkpt lat="47.761090" lon="9.917878">
        <ele>659.511401</ele>
        <time>2025-05-18T20:22:10.921Z</time>
      </trkpt>
      <trkpt lat="47.759770" lon="9.916098">
        <ele>659.504690</ele>
        <time>2025-05-18T20:22:49.841Z</time>
      </trkpt>
      <trkpt lat="47.759587" lon="9.915792">
        <ele>659.570400</ele>
        <time>2025-05-18T20:22:55.726Z</time>
      </trkpt>
      <trkpt lat="47.759214" lon="9.915219">
        <ele>659.698371</ele>
        <time>2025-05-18T20:23:07.174Z</time>
      </trkpt>
      <trkpt lat="47.758812" lon="9.914733">
        <ele>659.638279</ele>
        <time>2025-05-18T20:23:17.923Z</time>
      </trkpt>
      <trkpt lat="47.758560" lon="9.914447">
        <ele>659.587965</ele>
        <time>2025-05-18T20:23:24.372Z</time>
      </trkpt>
      <trkpt lat="47.758399" lon="9.914278">
        <ele>659.556686</ele>
        <time>2025-05-18T20:23:28.430Z</time>
      </trkpt>
      <trkpt lat="47.758002" lon="9.913914">
        <ele>659.482659</ele>
        <time>2025-05-18T20:23:38.226Z</time>
      </trkpt>
      <trkpt lat="47.757594" lon="9.913490">
        <ele>659.329320</ele>
        <time>2025-05-18T20:23:48.643Z</time>
      </trkpt>
      <trkpt lat="47.757318" lon="9.913158">
        <ele>659.086843</ele>
        <time>2025-05-18T20:23:55.901Z</time>
      </trkpt>
      <trkpt lat="47.756139" lon="9.911811">
        <ele>658.125273</ele>
        <time>2025-05-18T20:24:24.933Z</time>
      </trkpt>
      <trkpt lat="47.755277" lon="9.910657">
        <ele>657.672003</ele>
        <time>2025-05-18T20:24:47.705Z</time>
      </trkpt>
      <trkpt lat="47.754674" lon="9.910183">
        <ele>657.635085</ele>
        <time>2025-05-18T20:25:02.739Z</time>
      </trkpt>
      <trkpt lat="47.754341" lon="9.909820">
        <ele>657.889920</ele>
        <time>2025-05-18T20:25:12.048Z</time>
      </trkpt>
      <trkpt lat="47.754255" lon="9.909657">
        <ele>657.975905</ele>
        <time>2025-05-18T20:25:15.195Z</time>
      </trkpt>
      <trkpt lat="47.754202" lon="9.909388">
        <ele>658.092232</ele>
        <time>2025-05-18T20:25:19.450Z</time>
      </trkpt>
      <trkpt lat="47.754078" lon="9.909355">
        <ele>658.169987</ele>
        <time>2025-05-18T20:25:22.265Z</time>
      </trkpt>
      <trkpt lat="47.754029" lon="9.909309">
        <ele>658.205752</ele>
        <time>2025-05-18T20:25:23.557Z</time>
      </trkpt>
      <trkpt lat="47.753661" lon="9.908760">
        <ele>658.527471</ele>
        <time>2025-05-18T20:25:35.085Z</time>
      </trkpt>
      <trkpt lat="47.753546" lon="9.908664">
        <ele>658.604324</ele>
        <time>2025-05-18T20:25:37.933Z</time>
      </trkpt>
      <trkpt lat="47.753378" lon="9.908618">
        <ele>658.595069</ele>
        <time>2025-05-18T20:25:41.563Z</time>
      </trkpt>
      <trkpt lat="47.753344" lon="9.908580">
        <ele>658.592764</ele>
        <time>2025-05-18T20:25:42.455Z</time>
      </trkpt>
      <trkpt lat="47.753151" lon="9.908517">
        <ele>658.582058</ele>
        <time>2025-05-18T20:25:46.517Z</time>
      </trkpt>
      <trkpt lat="47.753007" lon="9.908536">
        <ele>658.574226</ele>
        <time>2025-05-18T20:25:49.470Z</time>
      </trkpt>
      <trkpt lat="47.752386" lon="9.908507">
        <ele>658.540562</ele>
        <time>2025-05-18T20:26:02.288Z</time>
      </trkpt>
      <trkpt lat="47.752140" lon="9.908441">
        <ele>658.527018</ele>
        <time>2025-05-18T20:26:07.525Z</time>
      </trkpt>
      <trkpt lat="47.752000" lon="9.908373">
        <ele>658.519038</ele>
        <time>2025-05-18T20:26:10.632Z</time>
      </trkpt>
      <trkpt lat="47.751408" lon="9.907915">
        <ele>658.475652</ele>
        <time>2025-05-18T20:26:24.733Z</time>
      </trkpt>
      <trkpt lat="47.751306" lon="9.907935">
        <ele>658.468422</ele>
        <time>2025-05-18T20:26:26.898Z</time>
      </trkpt>
      <trkpt lat="47.751225" lon="9.907945">
        <ele>658.462711</ele>
        <time>2025-05-18T20:26:28.587Z</time>
      </trkpt>
      <trkpt lat="47.751143" lon="9.907896">
        <ele>658.456501</ele>
        <time>2025-05-18T20:26:30.443Z</time>
      </trkpt>
      <trkpt lat="47.751090" lon="9.907884">
        <ele>658.452734</ele>
        <time>2025-05-18T20:26:31.573Z</time>
      </trkpt>
      <trkpt lat="47.751091" lon="9.907825">
        <ele>658.449946</ele>
        <time>2025-05-18T20:26:32.399Z</time>
      </trkpt>
      <trkpt lat="47.750995" lon="9.907499">
        <ele>658.433131</ele>
        <time>2025-05-18T20:26:37.402Z</time>
      </trkpt>
      <trkpt lat="47.750714" lon="9.907204">
        <ele>658.408962</ele>
        <time>2025-05-18T20:26:44.567Z</time>
      </trkpt>
      <trkpt lat="47.750516" lon="9.906933">
        <ele>658.390054</ele>
        <time>2025-05-18T20:26:50.167Z</time>
      </trkpt>
      <trkpt lat="47.750223" lon="9.906389">
        <ele>658.402875</ele>
        <time>2025-05-18T20:26:59.918Z</time>
      </trkpt>
      <trkpt lat="47.749691" lon="9.904673">
        <ele>658.485764</ele>
        <time>2025-05-18T20:27:26.738Z</time>
      </trkpt>
      <trkpt lat="47.749447" lon="9.904072">
        <ele>658.774046</ele>
        <time>2025-05-18T20:27:36.953Z</time>
      </trkpt>
      <trkpt lat="47.749104" lon="9.903481">
        <ele>659.288325</ele>
        <time>2025-05-18T20:27:48.508Z</time>
      </trkpt>
      <trkpt lat="47.748738" lon="9.903000">
        <ele>659.766830</ele>
        <time>2025-05-18T20:27:59.512Z</time>
      </trkpt>
      <trkpt lat="47.748387" lon="9.902645">
        <ele>660.182687</ele>
        <time>2025-05-18T20:28:09.292Z</time>
      </trkpt>
      <trkpt lat="47.748177" lon="9.902476">
        <ele>660.598035</ele>
        <time>2025-05-18T20:28:14.859Z</time>
      </trkpt>
      <trkpt lat="47.747542" lon="9.902056">
        <ele>662.069243</ele>
        <time>2025-05-18T20:28:31.214Z</time>
      </trkpt>
      <trkpt lat="47.747149" lon="9.901875">
        <ele>662.940184</ele>
        <time>2025-05-18T20:28:40.963Z</time>
      </trkpt>
      <trkpt lat="47.746497" lon="9.901729">
        <ele>664.215601</ele>
        <time>2025-05-18T20:28:56.489Z</time>
      </trkpt>
      <trkpt lat="47.746293" lon="9.901643">
        <ele>664.462853</ele>
        <time>2025-05-18T20:29:01.419Z</time>
      </trkpt>
      <trkpt lat="47.745989" lon="9.901458">
        <ele>664.845871</ele>
        <time>2025-05-18T20:29:09.025Z</time>
      </trkpt>
      <trkpt lat="47.745602" lon="9.901130">
        <ele>665.365284</ele>
        <time>2025-05-18T20:29:19.180Z</time>
      </trkpt>
      <trkpt lat="47.745114" lon="9.900524">
        <ele>666.106631</ele>
        <time>2025-05-18T20:29:33.276Z</time>
      </trkpt>
      <trkpt lat="47.744851" lon="9.900248">
        <ele>665.602979</ele>
        <time>2025-05-18T20:29:40.056Z</time>
      </trkpt>
      <trkpt lat="47.744579" lon="9.900029">
        <ele>664.962480</ele>
        <time>2025-05-18T20:29:46.213Z</time>
      </trkpt>
      <trkpt lat="47.744185" lon="9.899811">
        <ele>664.091961</ele>
        <time>2025-05-18T20:29:53.875Z</time>
      </trkpt>
      <trkpt lat="47.743851" lon="9.899677">
        <ele>663.375600</ele>
        <time>2025-05-18T20:29:59.761Z</time>
      </trkpt>
      <trkpt lat="47.742919" lon="9.899356">
        <ele>659.554871</ele>
        <time>2025-05-18T20:30:14.456Z</time>
      </trkpt>
      <trkpt lat="47.742753" lon="9.899209">
        <ele>658.451271</ele>
        <time>2025-05-18T20:30:17.274Z</time>
      </trkpt>
      <trkpt lat="47.742628" lon="9.898962">
        <ele>657.263846</ele>
        <time>2025-05-18T20:30:20.316Z</time>
      </trkpt>
      <trkpt lat="47.742535" lon="9.898587">
        <ele>655.728569</ele>
        <time>2025-05-18T20:30:24.254Z</time>
      </trkpt>
      <trkpt lat="47.742627" lon="9.897731">
        <ele>652.398789</ele>
        <time>2025-05-18T20:30:32.712Z</time>
      </trkpt>
      <trkpt lat="47.742648" lon="9.897345">
        <ele>650.627668</ele>
        <time>2025-05-18T20:30:36.452Z</time>
      </trkpt>
      <trkpt lat="47.742595" lon="9.896970">
        <ele>648.823284</ele>
        <time>2025-05-18T20:30:40.152Z</time>
      </trkpt>
      <trkpt lat="47.742396" lon="9.896048">
        <ele>644.263602</ele>
        <time>2025-05-18T20:30:49.552Z</time>
      </trkpt>
      <trkpt lat="47.742323" lon="9.895771">
        <ele>642.862666</ele>
        <time>2025-05-18T20:30:52.412Z</time>
      </trkpt>
      <trkpt lat="47.742257" lon="9.895649">
        <ele>642.125365</ele>
        <time>2025-05-18T20:30:53.916Z</time>
      </trkpt>
      <trkpt lat="47.741849" lon="9.895185">
        <ele>638.427487</ele>
        <time>2025-05-18T20:31:01.148Z</time>
      </trkpt>
      <trkpt lat="47.741504" lon="9.894863">
        <ele>635.298582</ele>
        <time>2025-05-18T20:31:06.860Z</time>
      </trkpt>
      <trkpt lat="47.741356" lon="9.894807">
        <ele>634.125478</ele>
        <time>2025-05-18T20:31:09.005Z</time>
      </trkpt>
      <trkpt lat="47.741290" lon="9.894654">
        <ele>633.186492</ele>
        <time>2025-05-18T20:31:10.728Z</time>
      </trkpt>
      <trkpt lat="47.741017" lon="9.894400">
        <ele>630.712763</ele>
        <time>2025-05-18T20:31:15.275Z</time>
      </trkpt>
      <trkpt lat="47.740500" lon="9.893930">
        <ele>626.058012</ele>
        <time>2025-05-18T20:31:23.850Z</time>
      </trkpt>
      <trkpt lat="47.740108" lon="9.893512">
        <ele>622.431697</ele>
        <time>2025-05-18T20:31:30.667Z</time>
      </trkpt>
      <trkpt lat="47.739626" lon="9.893080">
        <ele>618.209068</ele>
        <time>2025-05-18T20:31:38.617Z</time>
      </trkpt>
      <trkpt lat="47.738514" lon="9.892207">
        <ele>609.867879</ele>
        <time>2025-05-18T20:31:56.433Z</time>
      </trkpt>
      <trkpt lat="47.738100" lon="9.891960">
        <ele>607.571020</ele>
        <time>2025-05-18T20:32:03.032Z</time>
      </trkpt>
      <trkpt lat="47.737940" lon="9.891921">
        <ele>606.736191</ele>
        <time>2025-05-18T20:32:05.484Z</time>
      </trkpt>
      <trkpt lat="47.737831" lon="9.891756">
        <ele>605.935292</ele>
        <time>2025-05-18T20:32:07.878Z</time>
      </trkpt>
      <trkpt lat="47.737087" lon="9.891140">
        <ele>602.504114</ele>
        <time>2025-05-18T20:32:21.797Z</time>
      </trkpt>
      <trkpt lat="47.736561" lon="9.890513">
        <ele>601.318124</ele>
        <time>2025-05-18T20:32:33.974Z</time>
      </trkpt>
      <trkpt lat="47.735746" lon="9.889403">
        <ele>599.568495</ele>
        <time>2025-05-18T20:32:55.039Z</time>
      </trkpt>
      <trkpt lat="47.735297" lon="9.888735">
        <ele>598.923058</ele>
        <time>2025-05-18T20:33:07.387Z</time>
      </trkpt>
      <trkpt lat="47.734484" lon="9.887477">
        <ele>597.785591</ele>
        <time>2025-05-18T20:33:30.040Z</time>
      </trkpt>
      <trkpt lat="47.732514" lon="9.884583">
        <ele>595.780984</ele>
        <time>2025-05-18T20:34:24.802Z</time>
      </trkpt>
      <trkpt lat="47.731593" lon="9.883281">
        <ele>595.343839</ele>
        <time>2025-05-18T20:34:50.811Z</time>
      </trkpt>
      <trkpt lat="47.731322" lon="9.882770">
        <ele>595.284737</ele>
        <time>2025-05-18T20:34:59.928Z</time>
      </trkpt>
      <trkpt lat="47.731198" lon="9.882409">
        <ele>595.247921</ele>
        <time>2025-05-18T20:35:05.670Z</time>
      </trkpt>
      <trkpt lat="47.731128" lon="9.882096">
        <ele>595.217963</ele>
        <time>2025-05-18T20:35:10.409Z</time>
      </trkpt>
      <trkpt lat="47.730967" lon="9.882112">
        <ele>595.197502</ele>
        <time>2025-05-18T20:35:13.853Z</time>
      </trkpt>
      <trkpt lat="47.730845" lon="9.882043">
        <ele>595.197502</ele>
        <time>2025-05-18T20:35:16.669Z</time>
      </trkpt>
      <trkpt lat="47.730051" lon="9.880888">
        <ele>595.197502</ele>
        <time>2025-05-18T20:35:40.484Z</time>
      </trkpt>
      <trkpt lat="47.729951" lon="9.880739">
        <ele>595.197502</ele>
        <time>2025-05-18T20:35:43.543Z</time>
      </trkpt>
      <trkpt lat="47.730130" lon="9.880444">
        <ele>595.197502</ele>
        <time>2025-05-18T20:35:49.299Z</time>
      </trkpt>
    </trkseg>
  </trk>
</gpx>